[[{"header":{"parameterUnit":"m.s-1","parameterCategory":1,"la1":30.6,"la2":29.2853,"lo1":-89.7004,"lo2":-87.6739,"dy":0.0162,"dx":0.0183,"nx":112,"ny":82,"refTime":"2024-03-25T06:00:00:Z","depth":0,"parameterNumber":2,"parameterNumberName":"U-component_of_WINDS"},"data":[0.0,0.0,0.0,0.0,0.0,0.0,0.0,0.0,0.0,0.0,0.0,0.0,0.0,0.0,0.0,0.0,0.0,0.0,0.0,0.0,0.0,0.0,0.0,0.0,0.0,0.0,0.0,0.0,0.0,0.0,0.0,0.0,0.0,0.0,0.0,0.0,0.0,0.0,0.0,0.0,0.0,0.0,0.0,0.0,0.0,0.0,0.0,0.0,0.0,0.0,0.0,0.0,0.0,0.0,0.0,0.0,0.0,0.0,0.0,0.0,0.0,0.0,0.0,0.0,0.0,0.0,0.0,0.0,0.0,0.0,0.0,0.0,0.0,0.0,0.0,0.0,0.0,0.0,0.0,0.0,0.0,0.0,0.0,0.0,0.0,0.0,0.0,0.0,0.0,0.0,-4.0807,-4.0796,-4.0808,-4.0792,-4.0795,-4.0873,-4.0944,-4.0988,0.0,0.0,0.0,0.0,0.0,0.0,0.0,0.0,0.0,0.0,0.0,0.0,0.0,0.0,0.0,0.0,0.0,0.0,0.0,0.0,0.0,0.0,0.0,0.0,0.0,0.0,0.0,0.0,0.0,0.0,0.0,0.0,0.0,0.0,0.0,0.0,0.0,0.0,0.0,0.0,0.0,0.0,0.0,0.0,0.0,0.0,0.0,0.0,0.0,0.0,0.0,0.0,0.0,0.0,0.0,0.0,0.0,0.0,0.0,0.0,0.0,0.0,0.0,0.0,0.0,0.0,0.0,0.0,0.0,0.0,0.0,0.0,0.0,0.0,0.0,0.0,0.0,0.0,0.0,0.0,0.0,0.0,0.0,0.0,0.0,0.0,0.0,0.0,0.0,0.0,0.0,0.0,0.0,0.0,0.0,0.0,0.0,0.0,0.0,0.0,0.0,0.0,0.0,0.0,-4.0809,-4.0796,-4.0803,-4.0803,-4.0788,-4.0913,-4.097,-4.0918,0.0,0.0,0.0,0.0,0.0,0.0,0.0,0.0,0.0,0.0,0.0,0.0,0.0,0.0,0.0,0.0,0.0,0.0,0.0,0.0,0.0,0.0,0.0,0.0,0.0,0.0,0.0,0.0,0.0,0.0,0.0,0.0,0.0,0.0,0.0,0.0,0.0,0.0,0.0,0.0,0.0,0.0,0.0,0.0,0.0,0.0,0.0,0.0,0.0,0.0,0.0,0.0,0.0,0.0,0.0,0.0,0.0,0.0,0.0,0.0,0.0,0.0,0.0,0.0,0.0,0.0,0.0,0.0,0.0,0.0,0.0,0.0,0.0,0.0,0.0,0.0,0.0,0.0,0.0,0.0,0.0,0.0,0.0,0.0,0.0,0.0,0.0,0.0,0.0,0.0,0.0,0.0,0.0,0.0,0.0,0.0,0.0,0.0,0.0,0.0,0.0,0.0,0.0,-4.0769,-4.0732,-4.0707,-4.0681,-4.0707,-4.0746,-4.0849,-4.0887,-4.0897,-4.0984,0.0,0.0,0.0,0.0,0.0,0.0,0.0,0.0,0.0,0.0,0.0,0.0,0.0,0.0,0.0,0.0,0.0,0.0,0.0,0.0,0.0,0.0,0.0,0.0,0.0,0.0,0.0,0.0,0.0,0.0,0.0,0.0,0.0,0.0,0.0,0.0,0.0,0.0,0.0,0.0,0.0,0.0,0.0,0.0,0.0,0.0,0.0,0.0,0.0,0.0,0.0,0.0,0.0,0.0,0.0,0.0,0.0,0.0,0.0,0.0,0.0,0.0,0.0,0.0,0.0,0.0,0.0,0.0,0.0,0.0,0.0,0.0,0.0,0.0,0.0,0.0,0.0,0.0,0.0,0.0,0.0,0.0,0.0,0.0,0.0,0.0,0.0,0.0,0.0,0.0,0.0,0.0,0.0,0.0,0.0,0.0,0.0,0.0,0.0,0.0,0.0,0.0,-4.0707,-4.0687,-4.0628,-4.0614,-4.0621,-4.0668,-4.0762,-4.0855,-4.0905,-4.0989,0.0,0.0,0.0,0.0,0.0,0.0,0.0,0.0,0.0,0.0,0.0,0.0,0.0,0.0,0.0,0.0,0.0,0.0,0.0,0.0,0.0,0.0,0.0,0.0,0.0,0.0,0.0,0.0,0.0,0.0,0.0,0.0,0.0,0.0,0.0,0.0,0.0,0.0,0.0,0.0,0.0,0.0,0.0,0.0,0.0,0.0,0.0,0.0,0.0,0.0,0.0,0.0,0.0,0.0,0.0,0.0,0.0,0.0,0.0,0.0,0.0,0.0,0.0,0.0,0.0,0.0,0.0,0.0,0.0,0.0,0.0,0.0,0.0,0.0,0.0,0.0,0.0,0.0,0.0,0.0,0.0,0.0,0.0,0.0,0.0,0.0,0.0,0.0,0.0,0.0,0.0,0.0,0.0,0.0,0.0,0.0,0.0,0.0,0.0,0.0,0.0,0.0,-4.0739,-4.07,-4.0694,-4.0647,-4.0595,-4.0614,-4.0786,-4.0886,-4.0893,-4.1023,0.0,0.0,0.0,0.0,0.0,0.0,0.0,0.0,0.0,0.0,0.0,0.0,0.0,0.0,0.0,0.0,0.0,0.0,0.0,0.0,0.0,0.0,0.0,0.0,0.0,0.0,0.0,0.0,0.0,0.0,0.0,0.0,0.0,0.0,0.0,0.0,0.0,0.0,0.0,0.0,0.0,0.0,0.0,0.0,0.0,0.0,0.0,0.0,0.0,0.0,0.0,0.0,0.0,0.0,0.0,0.0,0.0,0.0,0.0,0.0,0.0,0.0,0.0,0.0,0.0,0.0,0.0,0.0,0.0,0.0,0.0,0.0,0.0,0.0,0.0,0.0,0.0,0.0,0.0,0.0,0.0,0.0,0.0,0.0,0.0,0.0,0.0,0.0,0.0,0.0,0.0,0.0,0.0,0.0,0.0,0.0,0.0,0.0,0.0,0.0,0.0,0.0,-4.0726,-4.0668,-4.0635,-4.0621,-4.0621,-4.0661,-4.073,-4.0835,-4.0958,0.0,0.0,0.0,0.0,0.0,0.0,0.0,0.0,0.0,0.0,0.0,0.0,0.0,0.0,0.0,0.0,0.0,0.0,0.0,0.0,0.0,0.0,0.0,0.0,0.0,0.0,0.0,0.0,0.0,0.0,0.0,0.0,0.0,0.0,0.0,0.0,0.0,0.0,0.0,0.0,0.0,0.0,0.0,0.0,0.0,0.0,0.0,0.0,0.0,0.0,0.0,0.0,0.0,0.0,0.0,0.0,0.0,0.0,0.0,0.0,0.0,0.0,0.0,0.0,0.0,0.0,0.0,0.0,0.0,0.0,0.0,0.0,0.0,0.0,0.0,0.0,0.0,0.0,0.0,0.0,0.0,0.0,0.0,0.0,0.0,0.0,0.0,0.0,0.0,0.0,0.0,0.0,0.0,0.0,0.0,0.0,0.0,0.0,0.0,0.0,0.0,0.0,-4.0746,-4.0707,-4.0571,-4.0242,-4.0228,-4.0132,-3.9889,-3.9902,-3.9993,-4.0128,0.0,0.0,0.0,0.0,0.0,0.0,0.0,0.0,0.0,0.0,0.0,0.0,0.0,0.0,0.0,0.0,0.0,0.0,0.0,0.0,0.0,0.0,0.0,0.0,0.0,0.0,0.0,0.0,0.0,0.0,0.0,0.0,0.0,0.0,0.0,0.0,0.0,0.0,0.0,0.0,0.0,0.0,0.0,0.0,0.0,0.0,0.0,0.0,0.0,0.0,0.0,0.0,0.0,0.0,0.0,0.0,0.0,0.0,0.0,0.0,0.0,0.0,0.0,0.0,0.0,0.0,0.0,0.0,0.0,0.0,0.0,0.0,0.0,0.0,0.0,0.0,0.0,0.0,0.0,0.0,0.0,0.0,0.0,0.0,0.0,0.0,0.0,0.0,0.0,0.0,0.0,0.0,0.0,0.0,0.0,0.0,0.0,0.0,0.0,0.0,0.0,0.0,-4.0771,-4.072,-4.0346,-3.9483,-3.9386,-3.9038,-3.817,-3.823,-3.8292,0.0,0.0,0.0,0.0,0.0,0.0,0.0,0.0,0.0,0.0,0.0,0.0,0.0,0.0,0.0,0.0,0.0,0.0,0.0,0.0,0.0,0.0,0.0,0.0,0.0,0.0,0.0,0.0,0.0,0.0,0.0,0.0,0.0,0.0,0.0,0.0,0.0,0.0,0.0,0.0,0.0,0.0,0.0,0.0,0.0,0.0,0.0,0.0,0.0,0.0,0.0,0.0,0.0,0.0,0.0,0.0,0.0,0.0,0.0,0.0,0.0,0.0,0.0,0.0,0.0,0.0,0.0,0.0,0.0,0.0,0.0,0.0,0.0,0.0,0.0,0.0,0.0,0.0,0.0,0.0,0.0,0.0,0.0,0.0,0.0,0.0,0.0,0.0,0.0,0.0,0.0,0.0,0.0,0.0,0.0,0.0,0.0,0.0,0.0,0.0,0.0,0.0,0.0,-3.9823,-3.9725,-3.939,-3.851,-3.8498,-3.8453,-3.8182,-3.821,-3.8257,-3.83,0.0,0.0,0.0,0.0,0.0,0.0,0.0,0.0,0.0,0.0,0.0,0.0,0.0,0.0,0.0,0.0,0.0,0.0,0.0,0.0,0.0,0.0,0.0,0.0,0.0,0.0,0.0,0.0,0.0,0.0,0.0,0.0,0.0,0.0,0.0,0.0,0.0,0.0,0.0,0.0,0.0,0.0,0.0,0.0,0.0,0.0,0.0,0.0,0.0,0.0,0.0,0.0,0.0,0.0,0.0,0.0,0.0,0.0,0.0,0.0,0.0,0.0,0.0,0.0,0.0,0.0,0.0,0.0,0.0,0.0,0.0,0.0,0.0,0.0,0.0,0.0,0.0,0.0,0.0,0.0,0.0,0.0,0.0,0.0,0.0,0.0,0.0,0.0,0.0,0.0,0.0,0.0,0.0,0.0,0.0,0.0,0.0,0.0,0.0,0.0,0.0,0.0,-3.8796,-3.8677,-3.8362,-3.7526,-3.7565,-3.7507,-3.7159,-3.717,-3.7226,-3.7264,0.0,0.0,0.0,0.0,0.0,0.0,0.0,0.0,0.0,0.0,0.0,0.0,0.0,0.0,0.0,0.0,0.0,0.0,0.0,0.0,0.0,0.0,0.0,0.0,0.0,0.0,0.0,0.0,0.0,0.0,0.0,0.0,0.0,0.0,0.0,0.0,0.0,0.0,0.0,0.0,0.0,0.0,0.0,0.0,0.0,0.0,0.0,0.0,0.0,0.0,0.0,0.0,0.0,0.0,0.0,0.0,0.0,0.0,0.0,0.0,0.0,0.0,0.0,0.0,0.0,0.0,0.0,0.0,0.0,0.0,0.0,0.0,0.0,0.0,0.0,0.0,0.0,0.0,0.0,0.0,0.0,0.0,0.0,0.0,0.0,0.0,0.0,0.0,0.0,0.0,0.0,0.0,0.0,0.0,0.0,0.0,0.0,0.0,0.0,0.0,0.0,0.0,-3.7753,-3.7581,-3.725,-3.6527,-3.6563,-3.6324,-3.5567,-3.5608,-3.5698,-3.5704,0.0,0.0,0.0,0.0,0.0,0.0,0.0,0.0,0.0,0.0,0.0,0.0,0.0,0.0,0.0,0.0,0.0,0.0,0.0,0.0,0.0,0.0,0.0,0.0,0.0,0.0,0.0,0.0,0.0,0.0,0.0,0.0,0.0,0.0,0.0,0.0,0.0,0.0,0.0,0.0,0.0,0.0,0.0,0.0,0.0,0.0,0.0,0.0,0.0,0.0,0.0,0.0,0.0,0.0,0.0,0.0,0.0,0.0,0.0,0.0,-4.113,-4.1247,0.0,0.0,0.0,0.0,0.0,0.0,0.0,0.0,0.0,0.0,0.0,0.0,0.0,0.0,0.0,0.0,0.0,0.0,0.0,0.0,0.0,0.0,0.0,0.0,0.0,0.0,0.0,0.0,0.0,0.0,0.0,0.0,0.0,0.0,0.0,0.0,0.0,0.0,0.0,0.0,-3.6642,-3.6435,-3.6084,-3.534,-3.5373,-3.5476,-3.5496,-3.5528,-3.559,-3.5684,-3.5866,0.0,0.0,0.0,0.0,0.0,0.0,0.0,0.0,0.0,0.0,0.0,0.0,0.0,0.0,0.0,0.0,0.0,0.0,0.0,0.0,0.0,0.0,0.0,0.0,0.0,0.0,0.0,0.0,0.0,0.0,0.0,0.0,0.0,0.0,0.0,0.0,0.0,0.0,0.0,0.0,0.0,0.0,0.0,0.0,0.0,0.0,0.0,0.0,0.0,0.0,0.0,0.0,0.0,0.0,0.0,0.0,0.0,0.0,0.0,-4.0386,-4.0492,0.0,0.0,0.0,0.0,0.0,0.0,0.0,0.0,0.0,0.0,0.0,0.0,0.0,0.0,0.0,0.0,0.0,0.0,0.0,0.0,0.0,0.0,0.0,0.0,0.0,0.0,0.0,0.0,0.0,0.0,0.0,0.0,0.0,0.0,0.0,0.0,0.0,0.0,0.0,0.0,-3.5618,-3.5354,-3.5112,-3.4791,-3.4897,-3.5064,-3.5197,-3.5333,-3.5457,-3.5596,-3.5602,0.0,0.0,0.0,0.0,0.0,0.0,0.0,0.0,0.0,0.0,0.0,0.0,0.0,0.0,0.0,0.0,0.0,0.0,0.0,0.0,0.0,0.0,0.0,0.0,0.0,0.0,0.0,0.0,0.0,0.0,0.0,0.0,0.0,0.0,0.0,0.0,0.0,0.0,0.0,0.0,0.0,0.0,0.0,0.0,0.0,0.0,0.0,0.0,0.0,0.0,0.0,0.0,0.0,-4.0166,-4.0147,-4.0076,-4.0067,-4.0057,-4.0007,-4.0167,-4.0239,-4.0257,-4.0446,0.0,0.0,0.0,0.0,0.0,0.0,0.0,0.0,0.0,0.0,0.0,0.0,0.0,0.0,0.0,0.0,0.0,0.0,0.0,0.0,0.0,0.0,-4.0053,-4.0031,-3.9948,-3.9853,-3.9868,0.0,0.0,0.0,0.0,0.0,0.0,0.0,0.0,0.0,0.0,0.0,-3.4852,-3.4528,-3.4439,-3.4572,-3.4753,-3.486,-3.4925,-3.5136,-3.5311,-3.545,-3.5463,-3.5528,0.0,0.0,0.0,0.0,0.0,0.0,0.0,0.0,0.0,0.0,0.0,0.0,0.0,0.0,0.0,0.0,0.0,0.0,0.0,0.0,0.0,0.0,0.0,0.0,0.0,0.0,0.0,0.0,0.0,0.0,0.0,0.0,-3.9833,-3.9683,0.0,0.0,0.0,0.0,0.0,0.0,0.0,0.0,0.0,0.0,0.0,0.0,0.0,-3.9611,-3.9611,-3.9781,-3.9837,-3.9762,-3.9996,-4.0046,-3.9922,-3.9986,-4.0007,-3.9996,-3.9975,0.0,-4.0058,-4.0128,0.0,0.0,0.0,0.0,0.0,0.0,0.0,0.0,0.0,0.0,0.0,0.0,0.0,0.0,0.0,0.0,0.0,0.0,0.0,0.0,0.0,0.0,-3.9754,-3.9074,-3.8893,-3.8674,-3.7955,-3.8563,-3.9229,-3.9117,-3.8478,-3.7889,0.0,0.0,0.0,0.0,0.0,0.0,-3.4642,-3.4386,-3.4316,-3.4561,-3.4626,-3.4762,-3.5062,-3.5113,-3.5179,-3.5323,-3.533,-3.5388,-3.5522,-3.5528,0.0,0.0,0.0,0.0,0.0,0.0,0.0,0.0,0.0,0.0,0.0,0.0,0.0,0.0,0.0,0.0,0.0,0.0,0.0,0.0,0.0,0.0,0.0,0.0,0.0,0.0,0.0,0.0,0.0,-3.9361,-3.9045,-3.9045,-3.9178,-3.9324,0.0,0.0,0.0,0.0,0.0,0.0,0.0,0.0,0.0,-3.9332,-3.9332,-3.9332,-3.9332,-3.9421,-3.9433,-3.9352,-3.9482,-3.9482,-3.9402,-3.9421,-3.9433,-3.9433,-3.9414,-3.9408,-3.947,-3.9881,-4.0067,-4.0087,0.0,0.0,0.0,0.0,-4.0224,-4.0215,-4.0148,-4.0177,-4.0212,-4.0148,0.0,0.0,0.0,0.0,0.0,0.0,0.0,-3.9362,-3.9342,-3.8911,-3.8414,-3.8045,-3.7969,-3.7856,-3.7476,-3.7433,-3.7594,-3.7975,-3.7747,-3.7328,-3.6804,-3.6434,0.0,0.0,0.0,-3.4708,-3.4708,-3.4539,-3.4473,-3.4602,-3.4666,-3.4769,-3.4908,-3.4973,-3.5044,-3.5179,-3.5187,-3.5243,-3.5388,-3.5388,-3.5457,0.0,0.0,0.0,0.0,0.0,0.0,0.0,0.0,0.0,0.0,0.0,0.0,0.0,0.0,0.0,0.0,0.0,0.0,0.0,0.0,0.0,0.0,0.0,0.0,0.0,0.0,0.0,0.0,-3.8807,-3.8658,-3.8692,-3.8833,-3.8956,0.0,0.0,0.0,0.0,0.0,0.0,-3.9099,-3.9017,-3.9008,-3.9008,-3.9008,-3.9008,-3.9008,-3.9058,-3.9058,-3.899,-3.9085,-3.9085,-3.8994,-3.9022,-3.9036,-3.9017,-3.9008,-3.9008,-3.9077,-3.9592,-3.9804,-3.9785,-3.9859,-3.9881,-3.9881,-3.9851,-3.984,-3.9829,-3.9773,-3.9743,-3.9743,-3.9743,-3.9773,-3.9739,-3.9583,0.0,0.0,0.0,0.0,-3.8458,-3.8448,-3.7924,-3.7363,-3.7135,-3.7097,-3.704,-3.6803,-3.6291,-3.6102,-3.6927,-3.6898,-3.6557,-3.5969,-3.5874,0.0,-3.5003,-3.484,-3.4798,-3.4798,-3.4676,-3.4623,-3.4645,-3.4747,-3.4809,-3.481,-3.487,-3.4936,-3.5044,-3.5053,-3.5113,-3.5235,-3.5243,-3.5304,-3.5443,0.0,0.0,0.0,0.0,0.0,0.0,0.0,0.0,0.0,0.0,0.0,0.0,0.0,0.0,0.0,0.0,0.0,0.0,0.0,0.0,0.0,0.0,0.0,0.0,0.0,0.0,0.0,0.0,0.0,-3.8673,-3.8528,0.0,0.0,0.0,0.0,-3.9192,-3.8966,-3.8814,-3.8814,-3.8582,-3.8446,-3.8446,-3.8446,-3.8446,-3.8446,-3.8685,-3.8789,-3.873,-3.9031,-3.9125,-3.9008,-3.9058,-3.908,-3.9099,-3.9036,-3.9049,-3.9099,-3.92,-3.9195,-3.9152,-3.9287,-3.93,-3.9231,-3.9178,-3.9152,-3.9139,-3.9058,-3.9049,-3.9049,-3.9049,-3.9085,-3.9003,-3.8251,-3.8239,0.0,0.0,-3.7404,-3.7555,-3.7487,-3.7438,-3.7211,-3.6453,-3.6263,-3.6026,-3.5192,-3.4984,-3.5211,-3.6093,-3.559,-3.5003,-3.4965,0.0,-3.4946,-3.4908,-3.484,-3.4798,-3.4798,-3.4676,-3.4645,-3.4778,-3.4788,-3.4839,-3.4889,-3.4908,-3.4889,-3.4917,-3.4917,-3.4963,-3.5105,-3.5113,-3.5171,-3.5315,-3.5304,0.0,0.0,0.0,0.0,0.0,0.0,0.0,0.0,0.0,0.0,0.0,0.0,0.0,0.0,0.0,0.0,0.0,0.0,0.0,0.0,0.0,0.0,0.0,0.0,0.0,0.0,0.0,0.0,-3.8496,-3.8478,0.0,-3.8643,-3.871,-3.874,-3.8744,-3.8673,-3.86,-3.8535,-3.8462,-3.8399,-3.8399,-3.8399,-3.8399,-3.8399,-3.8491,-3.8538,-3.8507,-3.8582,-3.86,-3.8538,-3.8538,-3.8523,-3.8523,-3.851,-3.8491,-3.8523,-3.8588,-3.8792,-3.9049,-3.9095,-3.9077,-3.9077,-3.9031,-3.9049,-3.9017,-3.9008,-3.8994,-3.8994,-3.8994,-3.9022,-3.8882,-3.8133,-3.7983,-3.7916,-3.7081,-3.6506,-3.614,-3.6129,-3.5742,-3.5263,-3.4982,-3.4907,-3.4832,-3.4521,-3.4446,-3.454,-3.4851,-3.4803,-3.4639,-3.4469,-3.4446,-3.4446,-3.4446,-3.4583,-3.4666,-3.4666,-3.474,-3.4811,-3.485,-3.486,-3.487,-3.4908,-3.4908,-3.4908,-3.4908,-3.4908,-3.4917,-3.4963,-3.4963,-3.5035,-3.5171,-3.5171,-3.5227,0.0,0.0,0.0,0.0,0.0,0.0,0.0,0.0,0.0,0.0,0.0,0.0,0.0,0.0,0.0,0.0,0.0,0.0,0.0,0.0,0.0,0.0,0.0,0.0,0.0,-3.7981,-3.7947,-3.7981,-3.7998,-3.8015,-3.7997,-3.8219,-3.832,-3.8234,-3.8334,-3.8385,-3.8368,-3.8336,-3.832,-3.832,-3.8593,-3.8738,-3.8738,-3.8993,-3.912,-3.912,-3.9072,-3.8928,-3.869,-3.8641,-3.8462,-3.8224,-3.8209,-3.8209,-3.8209,-3.8259,-3.8446,-3.873,-3.8759,-3.8759,-3.873,-3.873,-3.873,-3.873,-3.873,-3.873,-3.873,-3.873,-3.873,-3.8582,-3.7837,-3.7465,-3.716,-3.6358,-3.5589,-3.5002,-3.5002,-3.4599,-3.4197,-3.4197,-3.4197,-3.4197,-3.4197,-3.4197,-3.4173,-3.4086,-3.4281,-3.4416,-3.4233,-3.4197,-3.4197,-3.4197,-3.434,-3.4473,-3.4473,-3.4649,-3.4801,-3.4801,-3.487,-3.4908,-3.4908,-3.4908,-3.4908,-3.4908,-3.4908,-3.4908,-3.4908,-3.4908,-3.4936,-3.5027,-3.5035,-3.5096,-3.5227,0.0,0.0,0.0,0.0,0.0,0.0,0.0,0.0,0.0,0.0,0.0,0.0,0.0,0.0,0.0,0.0,0.0,0.0,0.0,0.0,0.0,0.0,0.0,-3.7154,-3.7078,-3.7039,-3.719,-3.7131,-3.7073,-3.7001,-3.7431,-3.7685,-3.7685,-3.8003,-3.8227,-3.831,-3.8262,-3.8264,-3.8264,-3.9042,-3.9441,-3.9441,-4.0148,-4.051,-4.051,-4.051,-4.0165,-3.9544,-3.9475,-3.904,-3.8363,-3.8315,-3.8263,-3.8245,-3.8245,-3.8227,-3.8209,-3.8274,-3.8257,-3.8209,-3.8209,-3.8209,-3.8209,-3.8209,-3.8209,-3.8209,-3.8209,-3.8209,-3.8064,-3.7249,-3.6619,-3.6007,-3.5196,-3.4605,-3.4173,-3.4173,-3.4173,-3.4173,-3.4173,-3.4173,-3.4173,-3.4173,-3.4173,-3.4099,-3.3847,-3.3998,-3.4173,-3.4173,-3.4173,-3.4173,-3.4173,-3.4185,0.0,-3.4185,-3.4427,-3.4602,-3.4602,-3.4781,-3.4879,-3.4908,-3.4908,-3.4908,-3.4908,-3.4908,-3.4908,-3.4908,-3.4908,-3.4908,-3.4908,-3.4908,-3.4963,-3.5096,0.0,0.0,0.0,0.0,0.0,0.0,0.0,0.0,0.0,0.0,0.0,0.0,0.0,0.0,0.0,0.0,0.0,0.0,0.0,0.0,0.0,-3.6224,-3.6249,-3.6943,-3.698,-3.6941,-3.6978,-3.6999,-3.7018,-3.7001,-3.7209,-3.7339,-3.7339,-3.7929,-3.8287,-3.8306,-3.9101,-3.9589,-3.9589,-4.011,-4.0412,-4.0412,-4.0612,-4.0722,-4.0722,-4.0669,-4.0543,-4.036,-4.0255,-4.0075,-3.9875,-3.9876,-3.9568,-3.9078,-3.9078,-3.8734,-3.8209,-3.8225,-3.8225,-3.8209,-3.8209,-3.8209,-3.8209,-3.8209,-3.8209,-3.8209,-3.8209,-3.8209,-3.8064,-3.7249,-3.6499,-3.5745,-3.4945,-3.4182,-3.3633,-3.3633,-3.3633,-3.3633,-3.3633,-3.3633,-3.3633,-3.3633,-3.3633,-3.3605,-3.352,-3.3577,-3.3633,-3.3633,-3.3633,-3.3633,-3.3633,-3.3793,-3.3908,-3.3908,-3.4148,-3.4374,-3.4591,-3.4647,-3.474,-3.4898,-3.4908,-3.4908,-3.4908,-3.4908,-3.4908,-3.4908,-3.4908,-3.4908,-3.4908,-3.4908,-3.4927,0.0,0.0,0.0,0.0,0.0,0.0,0.0,0.0,0.0,0.0,0.0,0.0,0.0,0.0,0.0,0.0,0.0,0.0,0.0,0.0,0.0,0.0,-3.5761,-3.5788,-3.6336,-3.6374,-3.6371,-3.6371,-3.6437,-3.6478,-3.6419,-3.698,-3.7354,-3.7336,-3.8136,-3.8657,-3.8717,-3.9339,-3.9686,-3.9686,-4.0261,-4.0592,-4.0592,-4.0916,-4.1078,-4.1078,-4.1057,-4.0858,-4.0574,-4.0459,-4.0374,-4.0274,-4.0219,-4.0077,-3.984,-3.9644,-3.9283,-3.8833,0.0,0.0,0.0,0.0,-3.8209,-3.8209,-3.8209,-3.8209,-3.8209,-3.8209,-3.8209,-3.8118,-3.7647,-3.6941,-3.6218,-3.5729,-3.5041,-3.4407,-3.4407,-3.4407,-3.4407,-3.4407,-3.4407,-3.4317,-3.3991,-3.39,-3.381,-3.3465,-3.3393,0.0,-3.3393,-3.3393,-3.3393,-3.3393,-3.3534,-3.3629,-3.3629,-3.3855,-3.4099,-3.4245,-3.4381,-3.4476,-3.4588,-3.4599,0.0,0.0,0.0,-3.4821,-3.4908,-3.4908,0.0,0.0,0.0,-3.4908,-3.4908,-3.4908,0.0,0.0,-3.513,-3.513,0.0,0.0,0.0,0.0,0.0,0.0,0.0,0.0,0.0,0.0,0.0,0.0,0.0,0.0,0.0,0.0,-3.56,-3.56,-3.56,-3.56,-3.56,-3.56,-3.5796,-3.5886,-3.5757,-3.6889,-3.7625,-3.7551,-3.8503,-3.9132,-3.9259,-3.9283,0.0,0.0,0.0,-4.0455,-4.0455,-4.1148,-4.1503,-4.1503,-4.1503,-4.1156,-4.0517,-4.0463,-4.0344,-4.0148,-4.0034,-4.019,-4.0455,-4.0043,-3.9799,-3.9624,-3.8635,-3.8285,-3.8317,-3.8227,-3.8209,-3.8209,-3.8209,0.0,0.0,-3.8209,-3.8209,-3.8209,-3.8209,-3.7647,-3.6995,-3.6995,-3.6417,-3.5804,-3.5804,-3.5804,-3.5804,-3.5804,-3.5804,-3.5605,-3.4881,-3.4736,-3.4519,-3.381,-3.3665,-3.3665,-3.3665,-3.352,-3.3393,-3.3393,-3.3393,-3.3393,-3.3393,-3.3619,-3.3766,-3.3807,-3.4011,0.0,-3.4197,-3.4197,-3.4293,-3.4539,-3.4572,-3.4678,-3.487,-3.4898,-3.4908,-3.4908,-3.4908,-3.4908,-3.4908,-3.4908,-3.4908,-3.4908,-3.4908,-3.4908,0.0,0.0,0.0,0.0,0.0,0.0,0.0,0.0,0.0,0.0,0.0,0.0,0.0,0.0,0.0,-3.56,-3.56,-3.56,-3.56,-3.56,-3.56,-3.56,-3.6203,-3.6598,-3.6575,-3.7346,-3.7834,-3.7817,-3.8567,-3.9024,-3.9065,-3.9973,-4.047,-4.047,-4.1001,-4.1271,-4.1271,-4.1433,-4.1503,-4.1503,-4.1503,0.0,-4.1297,-4.1275,-4.1248,-4.1216,-4.1194,-4.0863,-4.032,-4.0236,-3.9824,-3.9177,-3.8712,-3.8798,-3.9079,-3.8444,-3.8209,-3.8209,-3.8209,-3.8209,-3.8209,-3.8209,-3.8209,-3.8209,-3.8209,-3.7647,0.0,-3.6995,-3.6417,-3.5804,-3.5804,-3.5804,-3.5804,-3.5804,-3.5804,-3.575,-3.5605,-3.5569,-3.5514,-3.5369,-3.5333,-3.5333,-3.5333,-3.4262,-3.3393,-3.3393,-3.3393,-3.3393,-3.3393,-3.3452,-3.3563,-3.378,-3.386,-3.3959,-3.4185,-3.4197,-3.4221,-3.4269,-3.4484,-3.4623,-3.4647,-3.4802,-3.4908,-3.4908,-3.4908,-3.4908,-3.4908,-3.4908,-3.4908,-3.4908,-3.4908,-3.4908,0.0,0.0,0.0,0.0,0.0,0.0,0.0,0.0,0.0,0.0,0.0,-3.56,-3.56,0.0,-3.56,-3.56,-3.56,-3.56,-3.56,-3.596,-3.6197,-3.6197,-3.6575,-3.6948,-3.7313,-3.8007,-3.8447,-3.8447,-3.9123,-3.9554,-3.9554,-4.0124,-4.0434,-4.0434,-4.0683,-4.0808,-4.0808,-4.0808,-4.0808,-4.0808,-4.0808,-4.0808,-4.0808,-4.0808,-4.0949,-4.1139,-4.1139,-4.1049,-4.0876,-4.065,-4.0311,-3.9877,-3.9328,-3.9317,-3.9589,-3.9408,-3.9115,-3.8807,-3.8807,-3.8553,-3.8209,-3.8209,-3.8209,-3.8209,-3.8209,-3.7919,-3.7611,-3.7611,-3.7321,-3.6997,-3.6997,-3.6997,-3.6997,-3.6997,-3.6997,-3.6888,-3.649,-3.6399,-3.6272,-3.5876,-3.5804,-3.5804,-3.5804,-3.5116,-3.4606,-3.4606,-3.4262,-3.4009,-3.4009,-3.3647,-3.3452,-3.3591,-3.3605,-3.3643,-3.3793,-3.3921,-3.3998,-3.3998,-3.4245,-3.4461,-3.4583,-3.4699,-3.4801,-3.4908,-3.4908,-3.4908,-3.4908,-3.4908,-3.4908,-3.4908,-3.4908,-3.4879,0.0,0.0,0.0,0.0,0.0,0.0,0.0,0.0,-3.56,-3.56,-3.56,-3.56,-3.56,-3.56,-3.56,-3.56,-3.56,-3.565,-3.5802,-3.6383,-3.6914,-3.7202,-3.7235,-3.7472,-3.8058,-3.8768,-3.9208,-3.9208,-3.9774,-4.0096,-4.0096,-4.0096,-4.0096,-4.0096,-4.0096,-4.0096,-4.0096,-4.0096,-4.0096,-4.0096,-4.0096,-4.0096,-4.0096,-4.0096,-4.0303,-4.0659,-4.0659,-4.0879,-4.1208,-4.0825,-4.0659,-4.0607,-4.0059,-3.99,-4.0017,-4.0271,-3.9987,-3.9463,-3.9424,-3.8988,-3.8408,-3.8263,-3.8209,-3.8209,-3.8209,-3.8209,-3.8209,-3.8209,-3.8209,-3.8209,-3.8209,-3.8209,-3.8209,-3.8209,-3.8209,-3.8028,-3.7375,-3.723,-3.7049,-3.6399,-3.6272,-3.6272,-3.6272,-3.6272,-3.6148,-3.584,-3.5131,-3.4606,-3.4606,-3.39,-3.3393,-3.3393,-3.3393,-3.3393,-3.3393,-3.3605,-3.3726,-3.3726,-3.3972,-3.4221,-3.4439,-3.4539,-3.4678,-3.485,-3.4889,-3.4908,-3.4908,-3.4908,-3.4908,-3.4908,-3.4908,-3.485,-3.56,-3.56,-3.56,-3.56,-3.56,-3.56,0.0,0.0,-3.56,-3.56,-3.56,-3.56,-3.56,-3.56,-3.56,-3.56,-3.56,-3.5859,-3.6575,-3.6745,-3.7303,-3.8582,-3.8734,-3.8785,-3.887,-3.9529,-3.9977,-3.9977,-4.0045,-4.0096,-4.0096,-4.0096,-4.0096,-4.0096,-4.0096,-4.0096,-4.0096,-4.0096,-4.0096,-4.0096,-4.0096,-4.0096,-4.0096,-4.0096,-4.0121,-4.0171,-4.0171,-4.0221,-4.0254,-4.0196,-4.0171,-4.0204,-4.0549,-4.0659,-4.0625,-4.0083,-3.9828,-3.9724,-3.9481,-3.9333,-3.9151,-3.8444,-3.8209,-3.8209,-3.8209,-3.8209,-3.8209,-3.8209,-3.8209,-3.8209,-3.8209,-3.8209,-3.8209,-3.8209,-3.8209,-3.8191,-3.81,-3.8064,-3.8046,-3.7938,-3.7937,-3.7937,-3.7937,-3.7937,-3.7449,-3.6021,-3.5131,-3.4606,-3.4606,-3.39,-3.3393,-3.3393,-3.3393,-3.3393,-3.3393,-3.3422,-3.3437,-3.3437,-3.3698,-3.3873,-3.3881,-3.434,-3.4623,-3.4626,-3.4811,-3.4908,-3.4908,-3.4908,-3.4908,-3.4908,-3.4908,-3.485,-3.5224,-3.5115,-3.5045,0.0,-3.4904,-3.5115,-3.5115,-3.5379,-3.56,-3.56,-3.56,-3.56,-3.56,-3.5339,-3.5115,0.0,-3.5522,-3.5947,-3.6289,-3.7333,-3.8319,-3.892,-3.9377,-3.9656,-3.9656,-3.9926,-4.0096,-4.0096,-4.0096,-4.0096,-4.0096,-4.0096,-4.0096,-4.0096,-4.0096,-4.0096,-4.0096,-4.0096,-4.0096,-4.0096,-4.0096,-4.0096,-4.0096,-4.0096,-4.0096,-4.0096,-4.0096,-4.0096,-4.0096,-4.0096,-4.0096,-4.0121,-4.0303,-4.0385,-4.0422,-4.0696,-4.0226,-3.9474,-3.9599,-3.9049,-3.8276,-3.8232,-3.8209,-3.8209,-3.8209,-3.8209,-3.8209,-3.8209,-3.8209,-3.8209,-3.8209,-3.8209,-3.8209,-3.8209,-3.8209,-3.8209,-3.8209,-3.8209,-3.8209,-3.8209,-3.8209,-3.8209,-3.8209,-3.8209,-3.781,-3.6671,-3.582,-3.5116,-3.4645,-3.39,-3.3393,-3.3393,-3.3393,-3.3393,-3.3393,-3.3393,-3.3393,-3.3393,-3.3509,-3.3647,-3.3775,-3.4023,-3.4281,-3.4583,-3.4678,-3.4791,-3.4908,-3.4908,-3.4908,-3.4908,-3.4908,-3.485,-3.488,-3.4697,0.0,-3.4284,-3.4504,-3.4857,-3.4998,-3.5316,-3.56,-3.56,-3.56,-3.5538,-3.5402,-3.5045,-3.4745,-3.4601,-3.521,-3.5861,-3.6249,-3.7703,-3.8816,-3.9034,-3.9674,-4.002,-3.9867,-3.9995,-4.0096,-4.0096,-4.0096,-4.0096,-4.0096,-4.0096,-4.0096,-4.0096,-4.0096,-4.0096,-4.0096,-4.0096,-4.0096,-4.0096,-4.0096,-4.0096,-4.0096,-4.0096,-4.0096,-4.0096,-4.0096,-4.0096,-4.0096,-4.0096,-4.0096,-4.0096,-4.0096,-4.0096,-4.0162,-4.0637,-4.0197,-3.9371,-3.9578,-3.8836,-3.7863,-3.7969,-3.8088,-3.8209,-3.8209,-3.8209,-3.8209,-3.8209,-3.8209,-3.8209,-3.8209,-3.8209,-3.8209,-3.8209,-3.8209,-3.8209,-3.8209,-3.8209,-3.8209,-3.8209,-3.8209,-3.8209,-3.8209,-3.8028,-3.7611,-3.6796,-3.5983,-3.5261,-3.4663,-3.39,-3.3393,-3.3393,-3.3393,-3.3393,-3.3393,-3.3393,-3.3393,-3.3393,-3.3393,-3.3495,-3.3671,-3.3766,-3.4023,-3.4484,-3.4561,-3.4699,-3.4908,-3.4908,-3.4908,-3.4908,-3.5154,-3.5229,0.0,0.0,-3.4161,-3.4649,-3.4785,-3.4927,-3.5447,-3.56,-3.56,-3.56,-3.56,-3.5447,-3.4927,-3.4793,-3.4625,-3.4111,-3.4577,-3.5522,-3.6853,-3.7674,-3.8387,-3.9116,-3.9731,-3.9867,0.0,-3.9747,-4.0096,-4.0096,-4.0096,-4.0096,-4.0096,-4.0096,-4.0096,-4.0096,-4.0096,-4.0096,-4.0096,-4.0096,-4.0096,-4.0096,-4.0096,-4.0096,-4.0096,-4.0096,-4.0096,-4.0096,-4.0096,-4.0096,-4.0096,-4.0096,-4.0096,-4.0096,-4.0096,-4.0096,-4.0028,-3.9325,-3.9317,-3.9634,-3.9336,-3.8976,-3.8541,-3.7773,-3.7827,-3.8209,-3.8209,-3.8209,-3.8209,-3.8209,-3.8209,-3.8209,-3.8209,-3.8209,-3.8209,-3.8209,-3.8209,-3.8209,-3.8209,-3.8209,-3.8209,-3.8209,-3.8209,-3.8209,-3.8209,-3.7557,-3.6759,-3.5965,-3.5152,-3.4643,-3.4606,-3.39,-3.3393,-3.3393,-3.3393,-3.3393,-3.3393,-3.3393,-3.3393,-3.3393,-3.3393,-3.3393,-3.3408,-3.3657,-3.3934,-3.4209,-3.4473,-3.4699,-3.4908,-3.4908,-3.4908,-3.4927,-3.5761,-3.6159,-3.3878,0.0,-3.3433,-3.3251,-3.3485,-3.3777,-3.3978,-3.4292,-3.4553,-3.4553,-3.4553,-3.448,-3.4309,-3.3995,-3.3819,-3.4091,-3.4776,-3.5591,-3.6504,-3.791,-3.8924,-3.9172,-3.9391,0.0,0.0,0.0,-4.0096,-4.0096,-4.0096,-4.0096,-4.0096,-4.0096,-4.0096,-4.0096,-4.0096,-4.0096,-4.0096,-4.0096,-4.0096,-4.0096,-4.0096,-4.0096,-4.0096,-4.0096,-4.0096,-4.0096,-4.0096,-4.0096,-4.0096,-4.0096,-4.0096,-4.0096,-4.0096,-4.0096,-4.0011,-3.9259,-3.8805,-3.8457,-3.8109,-3.7624,-3.7151,-3.7411,-3.7614,-3.7792,-3.8106,-3.8209,-3.8209,-3.8209,-3.8209,-3.8209,-3.8209,-3.8209,-3.8209,-3.8209,-3.8209,-3.8209,-3.8209,-3.8209,-3.8209,-3.8209,-3.8209,-3.8209,-3.8209,-3.7991,-3.7341,-3.5985,-3.4645,-3.381,-3.381,-3.3574,-3.3393,-3.3393,-3.3393,-3.3393,-3.3393,-3.3393,-3.3393,-3.3393,-3.3393,-3.3393,-3.3393,-3.3495,-3.3657,-3.3934,-3.4711,-3.5251,-3.5501,-3.6212,-3.6557,-3.6557,-3.687,-3.7002,-3.3355,-3.3066,-3.2895,-3.2707,-3.2949,-3.3235,-3.3459,-3.3894,-3.4235,-3.4036,-3.4161,-3.4185,-3.3793,-3.3417,-3.3366,-3.383,-3.4566,-3.5401,-3.6279,-3.7633,-3.8562,-3.8562,-3.8756,-3.9028,0.0,0.0,0.0,-4.007,-4.0096,-4.0096,-4.0096,-4.0096,-4.0096,-4.0096,-4.0096,-4.0096,-4.0096,-4.0096,-4.0096,-4.0096,-4.0096,-4.0096,-4.0096,-4.0096,-4.0096,-4.0096,-4.0096,-4.0096,-4.0096,-4.0096,-4.0096,-4.0096,-4.0096,-4.0096,-3.9977,-3.8971,-3.8311,-3.7835,-3.7359,-3.681,-3.6409,-3.7075,-3.7377,-3.7596,-3.8054,-3.8209,-3.8209,-3.8209,-3.8209,-3.8209,-3.8209,-3.8209,-3.8209,-3.8209,-3.8209,-3.8209,-3.8209,-3.8209,-3.8209,-3.8209,-3.8209,-3.8209,-3.8209,-3.7955,-3.7214,-3.5605,-3.4498,-3.3719,-3.3447,-3.3393,-3.3393,-3.3393,-3.3393,-3.3393,-3.3393,-3.3393,-3.3393,-3.3393,-3.3393,-3.3393,-3.3393,-3.3393,-3.3666,-3.4215,-3.5012,-3.5664,-3.6235,-3.7022,-3.7401,-3.742,-3.7723,-3.7856,-3.3013,-3.2788,-3.252,-3.3039,-3.3172,-3.3303,-3.3793,-3.4309,-3.4529,-3.402,-3.4317,-3.4366,0.0,-3.3172,-3.3222,-3.3422,-3.4029,-3.4942,-3.6211,-3.6977,-3.7417,0.0,0.0,0.0,0.0,0.0,0.0,-4.002,-4.007,-4.0096,-4.0096,-4.0096,-4.0096,-4.0096,-4.0096,-4.0096,-4.0096,-4.0096,-4.0096,-4.0096,-4.0096,-4.0096,-4.0096,-4.0096,-4.0096,-4.0096,-4.0096,-4.0096,-4.0096,-4.0096,-4.0096,-4.0096,-4.0096,-4.0096,-3.9926,-3.8447,-3.7905,-3.7787,-3.7015,-3.6524,-3.6326,-3.6761,-3.717,-3.7578,-3.8054,-3.8209,-3.8209,-3.8209,-3.8209,-3.8209,-3.8209,-3.8209,-3.8209,-3.8209,-3.8209,-3.8209,-3.8209,-3.8209,-3.8209,-3.8209,-3.8209,-3.8209,-3.8209,-3.7538,-3.6488,-3.495,-3.4697,-3.4371,-3.352,-3.3393,-3.3393,-3.3393,-3.3393,-3.3393,-3.3393,-3.3393,-3.3393,-3.3393,-3.3393,-3.3393,-3.3393,-3.3447,-3.3942,-3.4958,-3.5351,-3.6025,-3.7045,-3.737,-3.7523,-3.7552,-3.8386,-3.8765,-3.2668,-3.2492,-3.2437,-3.2574,-3.2586,-3.2641,-3.2776,-3.2895,-3.2975,-3.283,-3.2938,-3.2922,-3.2641,-3.2586,-3.2977,-3.4027,-3.4382,0.0,-3.629,-3.7008,0.0,-3.7417,0.0,-3.7796,-3.8266,-3.8435,0.0,-3.9391,-3.9867,-4.0096,-4.0096,-4.0096,-4.0096,-4.0096,-4.0096,-4.0096,-4.0096,-4.0096,-4.0096,-4.0096,-4.0096,-4.0096,-4.0096,-4.0096,-4.0096,-4.0096,-4.0096,-4.0096,-4.0096,-4.0096,-4.0096,-4.0096,-4.0096,-4.0096,-3.9926,-3.8447,-3.7905,-3.7719,-3.6383,-3.5842,-3.5915,-3.6661,-3.6978,-3.7189,-3.7968,-3.8209,-3.8209,-3.8209,-3.8209,-3.8209,-3.8209,-3.8209,-3.8209,-3.8209,-3.8209,-3.8209,-3.8209,-3.8209,-3.8209,-3.8209,-3.8209,-3.8209,-3.8209,-3.7538,-3.6868,-3.6451,-3.5874,-3.4989,-3.3592,-3.3393,-3.3393,-3.3393,-3.3393,-3.3393,-3.3393,-3.3393,-3.3393,-3.3393,-3.3393,-3.3393,-3.3393,-3.3991,-3.4419,-3.4694,-3.6385,-3.7402,-3.7659,-3.8746,-3.9256,-3.9275,-3.9483,-3.9578,-3.2841,-3.2574,-3.2398,-3.2398,-3.2398,-3.2398,-3.2398,-3.2574,-3.2695,-3.2453,-3.2602,0.0,-3.2437,-3.2398,-3.2844,0.0,0.0,0.0,-3.6307,-3.6785,-3.7013,0.0,-3.7013,0.0,-3.7854,-3.7911,-3.8266,-3.9109,-3.9747,-4.0096,-4.0096,-4.0096,-4.0096,-4.0096,-4.0096,-4.0096,-4.0096,-4.0096,-4.0096,-4.0096,-4.0096,-4.0096,-4.0096,-4.0096,-4.0096,-4.0096,-4.0096,-4.0096,-4.0096,-4.0096,-4.0096,-4.0096,-4.0096,-4.0096,-3.9926,-3.8447,-3.7905,-3.7686,-3.6124,-3.56,-3.5717,-3.6412,-3.6759,-3.7017,-3.7685,-3.8037,-3.8157,-3.795,-3.8037,-3.814,-3.795,-3.8037,-3.8209,-3.8209,-3.8209,-3.8209,-3.8209,-3.8209,-3.8209,-3.8209,-3.8209,-3.8209,-3.8209,-3.7828,-3.7412,-3.7049,-3.6633,-3.5874,-3.4624,-3.4154,-3.3791,-3.3447,-3.3393,-3.3393,-3.3393,-3.3393,-3.3393,-3.3393,-3.3737,-3.3936,-3.3936,-3.4715,-3.5294,-3.5639,-3.6974,-3.7845,-3.8214,-3.9075,-3.958,-3.9717,-3.9717,-3.9781,-3.3182,-3.2815,-3.2398,-3.2398,-3.2398,-3.2398,-3.2398,-3.2761,-3.296,-3.2492,0.0,-3.2933,-3.2492,-3.2398,-3.2813,-3.415,0.0,-3.4951,-3.6184,-3.643,-3.6492,-3.6492,-3.6492,-3.6723,-3.7238,-3.7358,-3.787,-3.9001,-3.9644,-4.002,-4.0113,-4.0096,-4.0096,-4.0096,-4.0096,-4.0096,-4.0096,-4.0096,-4.0096,-4.0096,-4.0096,-4.0096,-4.0096,-4.0096,-4.0096,-4.0096,-4.0096,-4.0096,-4.0096,-4.0096,-4.0096,-4.0096,-4.0096,-4.0096,-3.9926,-3.8447,-3.7905,-3.7686,-3.6124,-3.56,-3.5689,-3.6152,-3.6557,-3.6978,-3.7395,-3.7827,-3.8123,-3.7721,-3.788,-3.8106,-3.7703,-3.788,-3.8209,-3.8209,-3.8209,-3.8209,-3.8209,-3.8209,-3.8209,-3.8209,-3.8209,-3.8209,-3.8209,-3.8209,-3.7955,-3.7267,-3.7158,-3.6868,-3.6073,-3.5261,-3.4498,-3.3791,-3.3719,-3.3719,-3.3719,-3.3719,-3.3719,-3.3719,-3.4356,-3.4754,-3.4754,-3.5514,-3.629,-3.6995,-3.7366,-3.79,-3.86,-3.8872,-3.9149,-3.9433,-3.9433,-3.9556,-3.3182,-3.2815,-3.2398,-3.2398,-3.2398,-3.2398,-3.2398,-3.2465,0.0,0.0,-3.2465,-3.252,-3.2425,-3.2398,-3.2659,-3.346,0.0,0.0,0.0,0.0,-3.6492,0.0,0.0,-3.6554,-3.6631,-3.7104,0.0,-3.8407,-3.9028,-3.9575,-4.007,-4.0096,-4.0096,-4.0096,-4.0096,-4.0096,-4.0096,-4.0096,-4.0096,-4.0096,-4.0096,-4.0096,-4.0096,-4.0096,-4.0096,-4.0096,-4.0096,-4.0096,-4.0096,-4.0096,-4.0096,-4.0096,-4.0096,-4.0096,-3.9926,-3.8447,-3.7905,-3.7686,-3.6124,-3.56,-3.5689,-3.6152,-3.6557,-3.6978,-3.7395,-3.7827,-3.8174,-3.8106,-3.814,-3.8174,-3.8106,-3.814,-3.8209,-3.8209,-3.8209,-3.8209,-3.8209,-3.8209,-3.8209,-3.8209,-3.8209,-3.8209,-3.8209,-3.8209,-3.8154,-3.8009,-3.7991,-3.7701,-3.6904,-3.6091,-3.5532,-3.5388,-3.5369,-3.5369,-3.5369,-3.5369,-3.5369,-3.5369,-3.5514,-3.5587,-3.5587,-3.6363,-3.6868,-3.6995,-3.7914,-3.8453,-3.86,-3.8872,-3.9022,-3.9095,-3.9095,-3.9104,-3.3675,-3.3433,-3.3161,-3.2895,-3.3029,-3.3161,-3.2868,0.0,0.0,0.0,-3.2398,-3.2398,-3.2398,-3.2398,0.0,0.0,0.0,0.0,0.0,0.0,0.0,0.0,0.0,0.0,0.0,-3.6754,-3.7312,-3.8222,-3.8574,-3.9135,-4.0045,-4.0096,-4.0096,-4.0096,-4.0096,-4.0096,-4.0096,-4.0096,-4.0096,-4.0096,-4.0096,-4.0096,-4.0096,-4.0096,-4.0096,-4.0096,-4.0096,-4.0096,-4.0096,-4.0096,-4.0096,-4.0096,-4.0096,-4.0096,-3.9926,-3.8447,-3.7905,-3.7686,-3.6124,-3.56,-3.5644,-3.5849,-3.6241,-3.6658,-3.7075,-3.7487,-3.7845,-3.7845,-3.802,-3.814,-3.7915,-3.802,-3.8209,-3.8209,-3.8209,-3.8209,-3.8209,-3.8209,-3.8209,-3.8209,-3.8209,-3.8209,-3.8209,-3.8209,-3.8209,-3.8209,-3.8209,-3.8064,-3.7665,-3.7286,-3.6725,-3.5876,-3.5804,-3.5804,-3.5804,-3.5804,-3.5804,-3.5804,-3.62,-3.6417,-3.6417,-3.7212,-3.7629,-3.7629,-3.8122,-3.8385,-3.8385,-3.8523,-3.8658,-3.8789,-3.8789,-3.8872,-3.4284,-3.4086,-3.3894,-3.3485,-3.3691,-3.3894,-3.3485,-3.3261,0.0,0.0,-3.2465,-3.2398,-3.2398,0.0,-3.2567,0.0,-3.3921,0.0,0.0,0.0,0.0,0.0,0.0,0.0,-3.6492,-3.6492,0.0,-3.8039,-3.8351,-3.8957,-4.0045,-4.0096,-4.0096,-4.0096,-4.0096,-4.0096,-4.0096,-4.0096,-4.0096,-4.0096,-4.0096,-4.0096,-4.0096,-4.0096,-4.0096,-4.0096,-4.0096,-4.0096,-4.0096,-4.0096,-4.0096,-4.0096,-4.0096,-4.0096,-3.9926,-3.8447,-3.7905,-3.7686,-3.6124,-3.56,-3.56,-3.56,-3.5915,-3.6364,-3.6678,-3.7113,-3.7505,-3.7505,-3.7845,-3.8123,-3.7756,-3.7915,-3.8209,-3.8209,-3.8209,-3.8209,-3.8209,-3.8209,-3.8209,-3.8209,-3.8209,-3.8209,-3.8209,-3.8209,-3.8209,-3.8209,-3.8209,-3.8209,-3.8209,-3.8209,-3.7721,-3.6453,-3.6309,-3.6309,-3.6309,-3.6309,-3.6309,-3.6309,-3.6906,-3.7267,-3.7267,-3.7865,-3.8209,-3.8209,-3.8209,-3.8209,-3.8209,-3.8209,-3.8305,-3.851,-3.851,-3.8628,-3.4745,-3.4382,-3.3986,-3.3944,-3.3944,-3.3986,-3.3935,0.0,0.0,-3.3145,-3.2749,-3.2398,-3.2398,-3.2398,-3.2413,-3.2475,0.0,-3.452,0.0,0.0,0.0,0.0,0.0,0.0,-3.6492,-3.6492,-3.6769,-3.7431,-3.8507,-3.9418,-4.007,-4.0096,-4.0096,-4.0096,-4.0096,-4.0096,-4.0096,-4.0096,-4.0096,-4.0096,-4.0096,-4.0096,-4.0096,-4.0096,-4.0096,-4.0096,-4.0096,-4.0096,-4.0096,-4.0096,-4.0096,-4.0096,-4.0096,-4.0096,-3.9926,-3.8447,-3.7905,-3.7686,-3.6124,-3.56,-3.56,-3.56,-3.5915,-3.6301,-3.6326,-3.688,-3.7505,-3.7505,-3.7845,-3.8192,-3.814,-3.8175,-3.8209,-3.8209,-3.8209,-3.8209,-3.8209,-3.8209,-3.8209,-3.8209,-3.8209,-3.8209,-3.8209,-3.8209,-3.8209,-3.8209,-3.8209,-3.8209,-3.8209,-3.8209,-3.8154,-3.8009,-3.7991,-3.7991,-3.7991,-3.7991,-3.7991,-3.7991,-3.8064,-3.81,-3.81,-3.8172,-3.8209,-3.8209,-3.8209,-3.8209,-3.8209,-3.8209,-3.8225,-3.8241,-3.8241,-3.8257,-3.488,-3.488,-3.488,-3.4553,-3.4721,-3.488,-3.4553,0.0,-3.3588,-3.3277,-3.2761,-3.2398,-3.2398,-3.2398,-3.2398,-3.2398,0.0,0.0,-3.4505,0.0,0.0,0.0,-3.6492,0.0,0.0,0.0,-3.6922,-3.7883,-3.8379,-3.9065,-4.0045,-4.0096,-4.0096,-4.0096,-4.0096,-4.0096,-4.0096,-4.0096,-4.0096,-4.0096,-4.0096,-4.0096,-4.0096,-4.0096,-4.0096,-4.0096,-4.0096,-4.0096,-4.0096,-4.0096,-4.0096,-4.0096,-4.0096,-4.0096,-3.9977,-3.8937,-3.8278,-3.7753,-3.6688,-3.6011,-3.56,-3.56,-3.5734,-3.5937,-3.6216,-3.6698,-3.7189,-3.7432,-3.7845,-3.8209,-3.8209,-3.8209,-3.8209,-3.8209,-3.8209,-3.8209,-3.8209,-3.8209,-3.8209,-3.8209,-3.8209,-3.8209,-3.8209,-3.8209,-3.8209,-3.8209,-3.8209,-3.8209,-3.8209,-3.8209,-3.8209,-3.8209,-3.8209,-3.8209,-3.8209,-3.8209,-3.8209,-3.8209,-3.8209,-3.8209,-3.8209,-3.8209,-3.8209,-3.8209,-3.8209,-3.8209,-3.8209,-3.8209,-3.8209,-3.8209,-3.8209,-3.8209,-3.5155,-3.5316,-3.5509,-3.5115,-3.5316,-3.5492,0.0,0.0,-3.3894,-3.3511,-3.2868,-3.2398,-3.2398,-3.2398,-3.2398,-3.2398,0.0,-3.4505,-3.4505,0.0,0.0,0.0,0.0,-3.6492,-3.6492,-3.6492,-3.6952,-3.7953,-3.8039,-3.849,-3.9506,-3.9747,-3.9918,-4.0096,-4.0096,-4.0096,-4.0096,-4.0096,-4.0096,-4.0096,-4.0096,-4.0096,-4.0096,-4.0096,-4.0096,-4.0096,-4.0096,-4.0096,-4.0096,-4.0096,-4.0096,-4.0096,-4.0096,-4.0096,-4.0011,-3.9259,-3.8531,-3.7787,-3.7066,-3.6265,-3.56,-3.56,-3.56,-3.5667,-3.6002,-3.6388,-3.6801,-3.7208,-3.7757,-3.8209,-3.8209,-3.8209,-3.8209,-3.8209,-3.8209,-3.8209,-3.8209,-3.8209,-3.8209,-3.8209,-3.8209,-3.8209,-3.8209,-3.8209,-3.8209,-3.8209,-3.8209,-3.8209,-3.8209,-3.8209,-3.8209,-3.8209,-3.8209,-3.8209,-3.8209,-3.8209,-3.8209,-3.8209,-3.8209,-3.8209,-3.8209,-3.8209,-3.8209,-3.8209,-3.8209,-3.8209,-3.8209,-3.8209,-3.8209,-3.8209,-3.8209,-3.8209,-3.56,-3.56,-3.56,-3.56,-3.56,-3.56,0.0,-3.4785,-3.4011,-3.3986,-3.3135,-3.2398,-3.2398,-3.2398,-3.2398,-3.2398,-3.3596,0.0,-3.4505,0.0,0.0,0.0,0.0,-3.6492,-3.6492,-3.6492,-3.6754,-3.7358,-3.7417,-3.7695,-3.8294,-3.8876,-3.947,-4.007,-4.0096,-4.0096,-4.0096,-4.0096,-4.0096,-4.0096,-4.0096,-4.0096,-4.0096,-4.0096,-4.0096,-4.0096,-4.0096,-4.0096,-4.0096,-4.0096,-4.0096,-4.0096,-4.0096,-4.0096,-4.0011,-3.9259,-3.8531,-3.7787,-3.7066,-3.6265,-3.56,-3.56,-3.56,-3.56,-3.56,-3.5937,-3.6388,-3.6781,-3.7523,-3.8209,-3.8209,-3.8209,-3.8209,-3.8209,-3.8209,-3.8209,-3.8209,-3.8209,-3.8209,-3.8209,-3.8209,-3.8209,-3.8209,-3.8209,-3.8209,-3.8209,-3.8209,-3.8209,-3.8209,-3.8209,-3.8209,-3.8209,-3.8209,-3.8209,-3.8209,-3.8209,-3.8209,-3.8209,-3.8209,-3.8209,-3.8209,-3.8209,-3.8209,-3.8209,-3.8209,-3.8209,-3.8209,-3.8209,-3.8209,-3.8209,-3.8209,-3.8209,-3.56,-3.56,-3.56,-3.56,-3.56,-3.5492,-3.5155,-3.4504,-3.3894,-3.3537,-3.2895,-3.2398,-3.2398,-3.2398,-3.2398,-3.2398,-3.3596,0.0,0.0,0.0,0.0,-3.6492,-3.6492,-3.6492,0.0,-3.6492,-3.6754,-3.7358,-3.7013,-3.7222,-3.8266,-3.849,-3.8849,-3.9487,-3.9876,-4.0096,-4.0096,-4.0096,-4.0096,-4.0096,-4.0096,-4.0096,-4.0096,-4.0096,-4.0096,-4.0096,-4.0096,-4.0096,-4.0096,-4.0096,-4.0096,-4.0096,-4.0096,-4.0096,-4.0079,-3.9842,-3.9276,-3.8548,-3.7804,-3.706,-3.6315,-3.5769,-3.56,-3.56,-3.56,-3.6135,-3.6858,-3.7595,-3.7985,-3.8209,-3.8209,-3.8209,-3.8209,-3.8209,-3.8209,-3.8209,-3.8209,-3.8209,-3.8209,-3.8209,-3.8209,-3.8209,-3.8209,-3.8209,-3.8209,-3.8209,-3.8209,-3.8209,-3.8209,-3.8209,-3.8209,-3.8209,-3.8209,-3.8209,-3.8209,-3.8209,-3.8209,-3.8209,-3.8209,-3.8209,-3.8209,-3.8209,-3.8209,-3.8209,-3.8209,-3.8209,-3.8209,-3.8209,-3.8209,-3.8209,-3.8209,-3.8499,0.0,-3.56,-3.56,-3.56,-3.56,0.0,-3.4927,-3.4382,-3.3843,-3.3329,-3.2761,-3.2398,-3.2398,-3.2398,-3.2398,-3.2398,-3.3596,-3.4505,0.0,0.0,0.0,-3.6492,0.0,0.0,-3.6492,-3.6492,-3.6662,-3.7043,-3.6723,-3.6831,-3.7592,-3.7854,-3.8238,-3.8821,-3.967,-4.0096,-4.0096,-4.0096,-4.0096,-4.0096,-4.0096,-4.0096,-4.0096,-4.0096,-4.0096,-4.0096,-4.0096,-4.0096,0.0,-4.0096,-4.0096,-4.0096,-4.0096,-4.0096,-4.0096,-4.0096,-3.9639,-3.8886,-3.8159,-3.7415,-3.6677,-3.5853,-3.56,-3.5644,-3.5805,-3.635,-3.7017,-3.7559,-3.7951,-3.8209,-3.8209,-3.8209,-3.8209,-3.8209,-3.8209,-3.8209,-3.8209,-3.8209,-3.8209,-3.8209,-3.8209,-3.8209,-3.8209,-3.8209,-3.8209,-3.8209,-3.8209,-3.8209,-3.8209,-3.8209,-3.8209,-3.8209,-3.8209,-3.8209,-3.8209,-3.8209,-3.8209,-3.8209,-3.8209,-3.8209,-3.8209,-3.8209,-3.8209,-3.8209,-3.8209,-3.8209,-3.8209,-3.8209,-3.8372,-3.8662,-3.8662,-3.9061,0.0,-3.56,-3.56,-3.56,-3.56,-3.5447,-3.488,-3.4358,0.0,-3.3277,-3.2749,-3.2398,-3.2398,-3.2398,-3.2413,-3.2459,-3.3598,-3.452,0.0,-3.566,0.0,0.0,-3.6492,-3.6492,-3.6492,-3.6492,-3.6492,-3.6492,-3.6492,-3.6492,-3.6492,-3.7058,-3.7695,-3.8278,-3.9428,-4.0045,-4.0096,-4.0096,-4.0096,-4.0096,-4.0096,-4.0096,-4.0096,-4.0096,-4.0096,-4.0096,-4.0096,-4.0096,-4.0096,-4.0096,-4.0096,-4.0096,-4.0096,-4.0096,-4.0096,-4.0096,-3.9673,-3.8971,-3.8227,-3.7499,-3.6745,-3.5893,-3.56,-3.5689,-3.611,-3.6557,-3.69,-3.6939,-3.7541,-3.8209,-3.8209,-3.8209,-3.8209,-3.8209,-3.8209,-3.8209,-3.8209,-3.8209,-3.8209,-3.8209,-3.8209,-3.8209,-3.8209,-3.8209,-3.8209,-3.8209,-3.8209,-3.8209,-3.8209,-3.8209,-3.8209,-3.8209,-3.8209,-3.8209,-3.8209,-3.8209,-3.8209,-3.8209,-3.8209,-3.8209,-3.8209,-3.8209,-3.8209,-3.8209,-3.8209,-3.8209,-3.8209,-3.8263,-3.8663,-3.9387,-3.9441,-3.9876,-3.56,0.0,-3.56,-3.56,-3.56,-3.5339,0.0,-3.4086,-3.3716,0.0,0.0,0.0,-3.2398,-3.2398,-3.2567,-3.3075,-3.3935,-3.469,-3.5198,0.0,0.0,-3.6492,-3.6492,-3.6492,-3.6492,-3.6492,-3.6492,-3.6492,-3.6492,-3.6492,-3.6492,-3.7058,-3.7695,-3.8278,-3.9028,-3.9644,-4.0113,-4.0096,-4.0096,-4.0096,-4.0096,-4.0096,-4.0096,-4.0096,-4.0096,-4.0096,-4.0096,-4.0096,-4.0096,-4.0096,-4.0096,-4.0096,-4.0096,-4.0096,-4.0096,-4.0096,-3.9994,-3.974,-3.8988,-3.8261,-3.7415,-3.6039,-3.56,-3.5622,-3.5734,-3.6308,-3.6958,-3.7266,-3.7774,-3.8209,-3.8209,-3.8209,-3.8209,-3.8209,-3.8209,-3.8209,-3.8209,-3.8209,-3.8209,-3.8209,-3.8209,-3.8209,-3.8209,-3.8209,-3.8209,-3.8209,-3.8209,-3.8209,-3.8209,-3.8209,-3.8209,-3.8209,-3.8209,-3.8209,-3.8209,-3.8209,-3.8209,-3.8209,-3.8209,-3.8209,-3.8209,-3.8209,-3.8209,-3.8209,-3.8209,-3.8209,-3.8209,-3.8808,-3.9223,-3.9405,-3.9985,-4.0655,-3.56,-3.56,-3.56,-3.56,-3.56,-3.5316,-3.4243,0.0,0.0,0.0,0.0,0.0,0.0,0.0,0.0,-3.3323,-3.4143,0.0,0.0,0.0,-3.6492,-3.6492,-3.6492,-3.6492,-3.6492,-3.6492,-3.6492,-3.6492,-3.6492,-3.6492,-3.6492,-3.6816,-3.7252,-3.7883,-3.8463,-3.9216,-4.0096,-4.0096,-4.0096,-4.0096,-4.0096,-4.0096,-4.0096,-4.0096,-4.0096,-4.0096,-4.0096,-4.0096,-4.0096,-4.0096,-4.0096,-4.0096,-4.0096,-4.0096,-4.0096,-4.0096,-4.0096,-3.9994,-3.9242,-3.8294,-3.7263,-3.6417,-3.591,-3.56,-3.56,-3.6092,-3.6719,-3.7113,-3.7703,-3.8209,-3.8209,-3.8209,-3.8209,-3.8209,-3.8209,-3.8209,-3.8209,-3.8209,-3.8209,-3.8209,-3.8209,-3.8209,-3.8209,-3.8209,-3.8209,-3.8209,-3.8209,-3.8209,-3.8209,-3.8209,-3.8209,-3.8209,-3.8209,-3.8209,-3.8209,-3.8209,-3.8209,-3.8209,-3.8209,-3.8209,-3.8209,-3.8209,-3.8209,-3.8209,-3.8209,-3.839,-3.8752,-3.9188,-3.9767,-4.0456,-4.0854,-4.1469,-3.56,-3.56,-3.5577,-3.5577,-3.5532,-3.5201,-3.421,0.0,0.0,0.0,0.0,0.0,0.0,0.0,0.0,0.0,0.0,0.0,-3.6088,-3.6352,-3.646,-3.6492,-3.6492,-3.6492,-3.6492,-3.6492,-3.6492,-3.6492,-3.6492,-3.6492,-3.6492,-3.6492,-3.6785,-3.7387,-3.7982,-3.8849,-3.9944,-4.0045,-4.0096,-4.0096,-4.0096,-4.0096,-4.0096,-4.0096,-4.0096,-4.0096,-4.0096,-4.0096,-4.0096,-4.0096,-4.0096,-4.0096,-4.0096,-4.0096,-4.0096,-4.0096,-4.0096,-3.9994,-3.9242,-3.8176,-3.7134,-3.7015,-3.6434,-3.5769,-3.5769,-3.6039,-3.6385,-3.6719,-3.7431,-3.8106,-3.8174,-3.8209,-3.8209,-3.8209,-3.8209,-3.8209,-3.8209,-3.8209,-3.8209,-3.8209,-3.8209,-3.8209,-3.8209,-3.8209,-3.8209,-3.8209,-3.8209,-3.8209,-3.8209,-3.8209,-3.8209,-3.8209,-3.8209,-3.8209,-3.8209,-3.8209,-3.8209,-3.8209,-3.8209,-3.8209,-3.8209,-3.8209,-3.8209,-3.8209,-3.8317,-3.8717,-3.9387,-3.9641,-4.0419,-4.1705,-4.1831,-4.2248,-3.56,-3.5549,-3.5514,-3.5514,-3.5158,-3.4691,-3.4059,0.0,0.0,0.0,0.0,0.0,0.0,0.0,-3.3696,0.0,0.0,-3.6057,0.0,0.0,-3.6305,-3.6492,-3.6492,-3.6492,-3.6492,-3.6492,-3.6492,-3.6492,-3.6492,-3.6492,-3.6492,-3.6492,-3.6785,-3.7387,-3.7982,-3.8629,-3.9339,-3.9825,-4.0096,-4.0096,-4.0096,-4.0096,-4.0096,-4.0096,-4.0096,-4.0096,-4.0096,-4.0096,-4.0096,-4.0096,-4.0096,-4.0096,-4.0096,-4.0096,-4.0096,-4.0096,-4.0096,-3.9994,-3.9242,-3.8836,-3.8548,-3.7922,-3.7229,-3.6626,-3.6626,-3.6466,-3.6322,-3.6367,-3.6978,-3.7703,-3.8106,-3.8209,-3.8209,-3.8209,-3.8209,-3.8209,-3.8209,-3.8209,-3.8209,-3.8209,-3.8209,-3.8209,-3.8209,-3.8209,-3.8209,-3.8209,-3.8209,-3.8209,-3.8209,-3.8209,-3.8209,-3.8209,-3.8209,-3.8209,-3.8209,-3.8209,-3.8209,-3.8209,-3.8209,-3.8209,-3.8209,-3.8209,-3.8209,-3.8209,-3.8862,-3.9278,-3.9387,-4.0709,-4.1469,-4.1723,-4.2393,-4.2774,-3.5549,-3.5475,-3.5291,-3.489,-3.4658,-3.4325,-3.3491,0.0,0.0,0.0,0.0,0.0,0.0,0.0,-3.3969,-3.518,0.0,-3.6053,-3.5943,-3.6085,-3.6242,-3.6352,-3.6414,-3.6492,-3.6492,-3.6492,-3.6492,-3.6492,-3.6492,-3.6492,-3.6492,-3.6492,-3.6647,-3.6892,-3.749,-3.8096,-3.8712,-3.9295,-3.9773,-4.0096,-4.0096,-4.0096,-4.0096,-4.0096,-4.0096,-4.0096,-4.0096,-4.0096,-4.0096,-4.0096,-4.0096,-4.0096,-4.0096,-4.0096,-4.0096,-4.0096,-4.0096,-4.0045,-3.9723,-3.9326,-3.8937,-3.8599,-3.799,-3.7381,-3.7381,-3.729,-3.7256,-3.7727,-3.769,-3.7542,-3.7756,-3.802,-3.8209,-3.8209,-3.8209,-3.8209,-3.8209,-3.8209,-3.8336,-3.8753,-3.8861,-3.8971,-3.9369,-3.9441,-3.9441,-3.9441,-3.9441,-3.9441,-3.9441,-3.9441,-3.9441,-3.9441,-3.9441,-3.9441,-3.9441,-3.9441,-3.9097,-3.8263,-3.8209,-3.8209,-3.8209,-3.8625,-3.8861,-3.8861,-3.9604,-4.022,-4.0655,-4.1343,-4.1922,-4.2357,-4.2719,-4.2901,-3.5514,-3.5377,-3.5048,-3.421,-3.4095,-3.3919,-3.2975,0.0,0.0,0.0,0.0,0.0,0.0,-3.3834,0.0,-3.5422,-3.575,-3.5863,-3.572,-3.5943,-3.6164,-3.6211,-3.6383,-3.6492,-3.6492,-3.6492,-3.6492,-3.6492,-3.6492,-3.6492,-3.6492,-3.6492,-3.6492,-3.6492,-3.7104,-3.7679,-3.8278,-3.8892,-3.9497,-4.0096,-4.0096,-4.0096,-4.0096,-4.0096,-4.0096,-4.0096,-4.0096,-4.0096,-4.0096,-4.0096,-4.0096,-4.0096,-4.0096,-4.0096,-4.0096,-4.0096,-4.0096,-4.0096,-4.0096,-3.974,-3.9242,-3.9242,-3.8751,-3.8159,-3.8159,-3.8041,-3.8061,-3.8834,-3.8501,-3.7948,-3.815,-3.8473,-3.8735,-3.8735,-3.8735,-3.8735,-3.8735,-3.8735,-3.8916,-3.9532,-3.9659,-3.984,-4.0401,-4.0492,-4.0492,-4.0492,-4.0492,-4.0492,-4.0492,-4.0492,-4.0492,-4.0492,-4.0492,-4.0492,-4.0492,-4.0492,-4.0003,-3.8808,-3.8735,-3.8735,-3.8735,-3.9333,-3.9659,-3.9659,-4.0383,-4.1071,-4.1705,-4.1886,-4.2303,-4.2901,-4.2901,-4.2901,-3.5492,-3.5314,-3.4859,-3.3742,-3.3459,0.0,-3.2749,-3.2315,0.0,0.0,0.0,0.0,0.0,-3.5115,-3.5582,-3.5672,-3.572,-3.572,-3.5688,-3.5894,-3.6068,-3.6179,-3.6383,-3.6492,-3.6492,-3.6492,-3.6492,-3.6492,-3.6492,-3.6492,-3.6492,-3.6492,-3.6492,-3.6492,-3.7104,-3.7679,-3.8278,-3.8892,-3.9497,-4.0096,-4.0096,-4.0096,-4.0096,-4.0096,-4.0096,-4.0096,-4.0096,-4.0096,-4.0096,-4.0096,-4.0096,-4.0096,-4.0096,-4.0096,-4.0096,-4.0096,-4.0096,-4.0096,-4.0096,-4.0079,-4.0028,-4.0028,-3.9537,-3.892,-3.892,-3.8447,-3.8007,-3.8493,-3.8854,-3.927,-4.0076,-4.0311,-4.0329,-4.0329,-4.0329,-4.0329,-4.0329,-4.0329,-4.0347,-4.0401,-4.042,-4.0438,-4.0492,-4.0492,-4.0492,-4.0492,-4.0492,-4.0492,-4.0492,-4.0492,-4.0492,-4.0492,-4.0492,-4.0492,-4.0492,-4.0492,-4.0438,-4.0329,-4.0329,-4.0329,-4.0329,-4.0383,-4.042,-4.042,-4.1198,-4.1632,-4.1705,-4.2448,-4.2847,-4.2901,-4.2901,-4.2901,-3.5308,-3.5175,-3.4811,-3.3588,0.0,0.0,0.0,0.0,0.0,0.0,-3.269,0.0,0.0,0.0,-3.5572,-3.5572,-3.5572,-3.5572,-3.5572,-3.5718,-3.5894,-3.6053,-3.6226,-3.6352,-3.6492,-3.6492,-3.6492,-3.6492,-3.6492,-3.6492,-3.6492,-3.6492,-3.6492,-3.6492,-3.7104,-3.7679,-3.8278,-3.8892,-3.9497,-4.0096,-4.0096,-4.0096,-4.0096,-4.0096,-4.0096,-4.0096,-4.0096,-4.0096,-4.0096,-4.0096,-4.0096,-4.0096,-4.0096,-4.0096,-4.0096,-4.0096,-4.0096,-4.0096,-4.0096,-4.0096,-4.0096,-4.0096,-3.991,-3.969,-3.969,-3.9503,-3.9438,-4.0197,-4.0513,-4.0542,-4.0225,-4.0311,-4.0492,-4.0492,-4.0492,-4.0492,-4.0492,-4.0492,-4.0637,-4.1144,-4.1252,-4.1397,-4.1904,-4.1995,-4.1995,-4.1995,-4.1995,-4.1995,-4.1995,-4.1995,-4.1995,-4.1995,-4.1995,-4.1995,-4.1995,-4.1995,-4.1995,-4.1995,-4.1053,-4.0492,-4.0492,-4.0981,-4.1252,-4.1252,-4.2049,-4.2448,-4.2448,-4.2737,-4.2901,-4.2901,-4.2901,-4.2901,-3.5152,-3.5065,-3.4723,0.0,0.0,0.0,0.0,0.0,0.0,0.0,-3.3155,0.0,0.0,0.0,0.0,-3.5504,-3.5504,-3.5504,-3.5504,-3.5621,-3.5752,-3.5894,-3.6053,-3.6179,-3.632,-3.6336,-3.6336,-3.6336,-3.6336,-3.6352,-3.6383,-3.6414,-3.6414,-3.6492,-3.7104,-3.7679,-3.8278,-3.8892,-3.9497,-4.0096,-4.0096,-4.0096,-4.0096,-4.0096,-4.0096,-4.0096,-4.0096,-4.0096,-4.0096,-4.0096,-4.0096,-4.0096,-4.0096,-4.0096,-4.0096,-4.0096,-4.0096,-4.0096,-4.0096,-4.0096,-4.0096,-4.0096,-4.0096,-4.0096,-4.0096,-4.0096,-4.0254,-4.1047,-4.137,-4.1384,-4.0778,-4.0937,-4.127,-4.127,-4.127,-4.127,-4.127,-4.127,-4.1433,-4.1977,-4.2067,-4.2248,-4.281,-4.2901,-4.2901,-4.2901,-4.2901,-4.2901,-4.2901,-4.2901,-4.2901,-4.2901,-4.2901,-4.2901,-4.2901,-4.2901,-4.2901,-4.2901,-4.1868,-4.127,-4.127,-4.1796,-4.2067,-4.2067,-4.2611,-4.2901,-4.2901,-4.2901,-4.2901,-4.2901,-4.2901,-4.2901,-3.5088,-3.4994,-3.4626,0.0,0.0,0.0,0.0,0.0,0.0,0.0,0.0,-3.5504,-3.5504,-3.5504,0.0,-3.5504,-3.5504,-3.5504,-3.5504,-3.5621,-3.5688,-3.5688,-3.5863,-3.6005,-3.6005,-3.6005,-3.6005,-3.6005,-3.6005,-3.6068,-3.6196,-3.6196,-3.6274,-3.6492,-3.7104,-3.7679,-3.8278,-3.8892,-3.9497,-4.0096,-4.0096,-4.0096,-4.0096,-4.0096,-4.0096,-4.0096,-4.0096,-4.0096,-4.0096,-4.0096,-4.0096,-4.0096,-4.0096,-4.0096,-4.0096,-4.0096,-4.0096,-4.0096,-4.0096,-4.0096,-4.0096,-4.0096,-4.0096,-4.0096,-4.0096,-4.0096,-4.0196,-4.0659,-4.1139,-4.1613,-4.2074,-4.2537,-4.2901,-4.2901,-4.2901,-4.2901,-4.2901,-4.2901,-4.2901,-4.2901,-4.2901,-4.2901,-4.2901,-4.2901,-4.2901,-4.2901,-4.2901,-4.2901,-4.2901,-4.2901,-4.2901,-4.2901,-4.2901,-4.2901,-4.2901,-4.2901,-4.2901,-4.2901,-4.2901,-4.2901,-4.2901,-4.2901,-4.2901,-4.2901,-4.2901,-4.2901,-4.2901,-4.2901,-4.2901,-4.2901,-4.2901,-4.2901,-3.5071,-3.4923,0.0,-3.3469,0.0,0.0,0.0,0.0,0.0,0.0,-3.4891,-3.5504,-3.5504,-3.5504,-3.5504,-3.5504,-3.5504,-3.5504,-3.5504,-3.5522,-3.5589,-3.5688,-3.5752,-3.5831,-3.6005,-3.6005,-3.6005,-3.6005,-3.6005,-3.6068,-3.6196,-3.6196,-3.6274,-3.6492,-3.7104,-3.7679,-3.8278,-3.8892,-3.9497,-4.0096,-4.0096,-4.0096,-4.0096,-4.0096,-4.0096,-4.0096,-4.0096,-4.0096,-4.0096,-4.0096,-4.0096,-4.0096,-4.0096,-4.0096,-4.0096,-4.0096,-4.0096,-4.0096,-4.0096,-4.0096,-4.0096,-4.0096,-4.0096,-4.0096,-4.0096,-4.0096,-4.0196,-4.0659,-4.1139,-4.1613,-4.2074,-4.2537,-4.2901,-4.2901,-4.2901,-4.2901,-4.2901,-4.2901,-4.2901,-4.2901,-4.2901,-4.2901,-4.2901,-4.2901,-4.2901,-4.2901,-4.2901,-4.2901,-4.2901,-4.2901,-4.2901,-4.2901,-4.2901,-4.2901,-4.2901,-4.2901,-4.2901,-4.2901,-4.2901,-4.2901,-4.2901,-4.2901,-4.2901,-4.2901,-4.2901,-4.2901,-4.2901,-4.2901,-4.2901,-4.2901,-4.2901,-4.2901,-3.5001,-3.4739,0.0,-3.3433,-3.3039,-3.2874,-3.2885,0.0,0.0,0.0,0.0,-3.5504,-3.5504,-3.5504,-3.5504,-3.5504,-3.5504,-3.5504,-3.5504,-3.5504,-3.5522,-3.5621,-3.5621,-3.5653,-3.5797,-3.5797,-3.5797,-3.5797,-3.5797,-3.5878,-3.6116,-3.6116,-3.6258,-3.6492,-3.7104,-3.7679,-3.8278,-3.8892,-3.9497,-4.0096,-4.0096,-4.0096,-4.0096,-4.0096,-4.0096,-4.0096,-4.0096,-4.0096,-4.0096,-4.0096,-4.0096,-4.0096,-4.0096,-4.0096,-4.0096,-4.0096,-4.0096,-4.0096,-4.0096,-4.0096,-4.0096,-4.0096,-4.0096,-4.0096,-4.0096,-4.0096,-4.0196,-4.0659,-4.1139,-4.1613,-4.2074,-4.2537,-4.2901,-4.2901,-4.2901,-4.2901,-4.2901,-4.2901,-4.2901,-4.2901,-4.2901,-4.2901,-4.2901,-4.2901,-4.2901,-4.2901,-4.2901,-4.2901,-4.2901,-4.2901,-4.2901,-4.2901,-4.2901,-4.2901,-4.2901,-4.2901,-4.2901,-4.2901,-4.2901,-4.2901,-4.2901,-4.2901,-4.2901,-4.2901,-4.2901,-4.2901,-4.2901,-4.2901,-4.2901,-4.2901,-4.2901,-4.2901,-3.4923,0.0,0.0,-3.3355,-3.2854,0.0,-3.3336,-3.4053,-3.4741,-3.537,0.0,-3.5504,-3.5504,-3.5424,-3.5392,-3.5392,-3.5326,-3.5326,-3.5392,-3.5326,-3.5326,-3.5392,-3.5392,-3.5392,-3.5392,-3.5472,-3.5504,-3.5504,-3.5504,-3.5651,-3.5973,-3.6005,-3.6132,-3.6492,-3.7043,-3.7608,-3.821,-3.881,-3.9418,-4.002,-4.007,-4.0096,-4.0096,-4.0096,-4.0096,-4.0096,-4.0096,-4.0096,-4.0096,-4.0096,-4.0096,-4.0096,-4.0096,-4.0096,-4.0096,-4.0096,-4.0096,-4.0096,-4.0096,-4.0096,-4.0096,-4.0096,-4.0096,-4.0096,-4.0096,-4.0096,-4.0196,-4.0659,-4.1139,-4.1613,-4.2074,-4.2537,-4.2901,-4.2901,-4.2901,-4.2901,-4.2901,-4.2901,-4.2901,-4.2901,-4.2901,-4.2901,-4.2901,-4.2901,-4.2901,-4.2901,-4.2901,-4.2901,-4.2901,-4.2901,-4.2901,-4.2901,-4.2901,-4.2901,-4.2901,-4.2901,-4.2901,-4.2901,-4.2901,-4.2901,-4.2901,-4.2901,-4.2901,-4.2901,-4.2901,-4.2901,-4.2901,-4.2901,-4.2901,-4.2901,-4.2901,-4.2901,-3.5001,-3.4828,0.0,0.0,-3.3236,-3.3307,-3.3455,-3.4427,-3.5325,-3.5474,-3.5504,-3.5504,-3.5504,-3.4971,-3.4562,-3.4562,-3.4056,-3.3885,-3.4461,-3.4056,-3.3919,-3.4495,-3.4562,-3.4562,-3.4562,-3.5133,-3.5504,-3.5504,-3.5504,-3.5651,-3.5973,-3.6005,-3.6132,-3.6492,-3.6647,-3.6983,-3.7578,-3.8181,-3.8794,-3.9391,-3.9876,-4.0096,-4.0096,-4.0096,-4.0096,-4.0096,-4.0096,-4.0096,-4.0096,-4.0096,-4.0096,-4.0096,-4.0096,-4.0096,-4.0096,-4.0096,-4.0096,-4.0096,-4.0096,-4.0096,-4.0096,-4.0096,-4.0096,-4.0096,-4.0096,-4.0096,-4.0196,-4.0659,-4.1139,-4.1613,-4.2074,-4.2537,-4.2901,-4.2901,-4.2901,-4.2901,-4.2901,-4.2901,-4.2901,-4.2901,-4.2901,-4.2901,-4.2901,-4.2901,-4.2901,-4.2901,-4.2901,-4.2901,-4.2901,-4.2901,-4.2901,-4.2901,-4.2901,-4.2901,-4.2901,-4.2901,-4.2901,-4.2901,-4.2901,-4.2901,-4.2901,-4.2901,-4.2901,-4.2901,-4.2901,-4.2901,-4.2901,-4.2901,-4.2901,-4.2901,-4.2901,-4.2901,-3.5024,0.0,0.0,-3.3108,0.0,-3.3819,-3.3546,-3.4532,-3.5504,-3.5504,-3.5504,-3.5504,-3.5504,-3.4824,-3.4312,-3.4312,-3.3665,-3.3318,-3.3734,-3.3422,-3.3457,-3.4211,-3.4312,-3.4461,-3.4839,-3.5246,-3.5504,-3.5504,-3.5504,-3.5651,-3.5973,-3.6005,-3.6132,-3.6492,-3.6492,-3.6785,-3.7387,-3.7982,-3.8601,-3.9206,-3.9799,-4.0096,-4.0096,-4.0096,-4.0096,-4.0096,-4.0096,-4.0096,-4.0096,-4.0096,-4.0096,-4.0096,-4.0096,-4.0096,-4.0096,-4.0096,-4.0096,-4.0096,-4.0096,-4.0096,-4.0096,-4.0096,-4.0096,-4.0096,-4.0096,-4.0096,-4.0229,-4.0949,-4.1303,-4.1656,-4.234,-4.2711,-4.2901,-4.2901,-4.2901,-4.2901,-4.2901,-4.2901,-4.2901,-4.2901,-4.2901,-4.2901,-4.2901,-4.2901,-4.2901,-4.2901,-4.2901,-4.2901,-4.2901,-4.2901,-4.2901,-4.2901,-4.2901,-4.2901,-4.2901,-4.2901,-4.2901,-4.2901,-4.2901,-4.2901,-4.2901,-4.2901,-4.2901,-4.2901,-4.2901,-4.2901,-4.2901,-4.2901,-4.2901,-4.2901,-4.2901,-4.2901,0.0,0.0,-3.3857,-3.2926,-3.3481,0.0,-3.3728,-3.4595,-3.5504,-3.5504,-3.5504,-3.5504,-3.5504,-3.4824,-3.4312,-3.4312,-3.3581,-3.3108,-3.3353,-3.3178,-3.3353,-3.4211,-3.4312,-3.4562,-3.5246,-3.5424,-3.5504,-3.5504,-3.5504,-3.5619,-3.5941,-3.5941,-3.61,-3.6445,-3.646,-3.6708,-3.7238,-3.7838,-3.8463,-3.9055,-3.9773,-4.0096,-4.0096,-4.0096,-4.0096,-4.0096,-4.0096,-4.0096,-4.0096,-4.0096,-4.0096,-4.0096,-4.0096,-4.0096,-4.0096,-4.0096,-4.0096,-4.0096,-4.0096,-4.0096,-4.0096,-4.0096,-4.0146,-4.0221,-4.0221,-4.0279,-4.0514,-4.137,-4.1613,-4.1825,-4.2692,-4.2901,-4.2901,-4.2901,-4.2901,-4.2901,-4.2901,-4.2901,-4.2901,-4.2901,-4.2901,-4.2901,-4.2901,-4.2901,-4.2901,-4.2901,-4.2901,-4.2901,-4.2901,-4.2901,-4.2901,-4.2901,-4.2901,-4.2901,-4.2901,-4.2901,-4.2901,-4.2901,-4.2901,-4.2901,-4.2901,-4.2901,-4.2901,-4.2901,-4.2901,-4.2901,-4.2901,-4.2901,-4.2901,-4.2901,-4.2901,-4.2901,0.0,0.0,0.0,0.0,-3.4093,-3.4294,0.0,0.0,-3.5504,0.0,-3.5504,-3.5504,-3.5504,-3.4824,-3.4312,-3.4312,-3.3129,-3.267,-3.3959,-3.3059,-3.2741,-3.4129,-3.4312,-3.4346,-3.4461,-3.51,-3.5504,-3.5504,-3.5504,-3.5587,-3.572,-3.5752,-3.5879,-3.6242,-3.6242,-3.6367,-3.6616,-3.7208,-3.7825,-3.8418,-3.9575,-4.0096,-4.0096,-4.0096,-4.0096,-4.0096,-4.0096,-4.0096,-4.0096,-4.0096,-4.0096,-4.0096,-4.0096,-4.0096,-4.0096,-4.0096,-4.0096,-4.0096,-4.0096,-4.0096,-4.0096,-4.0096,-4.0377,-4.0724,-4.0724,-4.0995,-4.1415,-4.1969,-4.2115,-4.2218,-4.275,-4.2901,-4.2901,-4.2901,-4.2901,-4.2901,-4.2901,-4.2901,-4.2901,-4.2901,-4.2901,-4.2901,-4.2901,-4.2901,-4.2901,-4.2901,-4.2901,-4.2901,-4.2901,-4.2901,-4.2901,-4.2901,-4.2901,-4.2901,-4.2901,-4.2901,-4.2901,-4.2901,-4.2901,-4.2901,-4.2901,-4.2901,-4.2901,-4.2901,-4.2901,-4.2901,-4.2901,-4.2901,-4.2901,-4.2901,-4.2901,-4.2901,-3.4977,0.0,0.0,0.0,-3.4435,-3.4716,-3.4382,0.0,-3.5504,-3.5504,-3.5504,-3.5504,-3.5504,-3.4824,-3.4312,-3.4312,-3.3408,-3.2932,-3.3596,-3.3143,-3.3094,-3.4163,-3.4312,-3.4495,-3.4938,-3.5279,-3.5504,-3.5504,-3.5504,-3.5554,-3.5688,-3.5688,-3.5847,-3.6196,-3.6196,-3.6305,-3.6492,-3.7104,-3.7883,-3.8794,-3.9679,-4.0096,-4.0096,-4.0096,-4.0096,-4.0096,-4.0096,-4.0096,-4.0096,-4.0096,-4.0096,-4.0096,-4.0096,-4.0096,-4.0096,-4.0096,-4.0096,-4.0096,-4.0096,-4.0096,-4.0096,-4.0096,-4.0246,-4.0476,-4.0707,-4.0949,-4.1253,-4.1973,-4.2198,-4.2318,-4.2787,-4.2901,-4.2901,-4.2901,-4.2901,-4.2901,-4.2901,-4.2901,-4.2901,-4.2901,-4.2901,-4.2901,-4.2901,-4.2901,-4.2901,-4.2901,-4.2901,-4.2901,-4.2901,-4.2901,-4.2901,-4.2901,-4.2901,-4.2901,-4.2901,-4.2901,-4.2901,-4.2901,-4.2901,-4.2901,-4.2901,-4.2901,-4.2901,-4.2901,-4.2901,-4.2901,-4.2901,-4.2901,-4.2901,-4.2901,-4.2901,-4.2901,0.0,0.0,0.0,0.0,0.0,-3.5256,0.0,0.0,-3.5683,-3.5537,-3.5504,-3.5504,-3.5504,-3.5019,-3.461,-3.461,-3.3973,-3.3561,-3.3748,-3.361,-3.3768,-3.4509,-3.461,-3.4824,-3.5424,-3.5504,-3.5504,-3.5504,-3.5504,-3.5554,-3.5638,-3.5638,-3.5799,-3.607,-3.6101,-3.6242,-3.6414,-3.7222,-3.8084,-3.8974,-3.9747,-4.0096,-4.0096,-4.0096,-4.0096,-4.0096,-4.0096,-4.0096,-4.0096,-4.0096,-4.0096,-4.0096,-4.0096,-4.0096,-4.0096,-4.0096,-4.0096,-4.0096,-4.0096,-4.0096,-4.0096,-4.0096,-4.0171,-4.0377,-4.0849,-4.1065,-4.1338,-4.2157,-4.2378,-4.2458,-4.2806,-4.2901,-4.2901,-4.2901,-4.2901,-4.2901,-4.2901,-4.2901,-4.2901,-4.2901,-4.2901,-4.2901,-4.2901,-4.2901,-4.2901,-4.2901,-4.2901,-4.2901,-4.2901,-4.2901,-4.2901,-4.2901,-4.2901,-4.2901,-4.2901,-4.2901,-4.2901,-4.2901,-4.2901,-4.2901,-4.2901,-4.2901,-4.2901,-4.2901,-4.2901,-4.2901,-4.2901,-4.2901,-4.2901,-4.2901,-4.2901,-4.2901,0.0,0.0,0.0,0.0,0.0,0.0,0.0,0.0,-3.6196,-3.5619,-3.5504,-3.5504,-3.5504,-3.5472,-3.5439,-3.5439,-3.4758,-3.4509,-3.5279,-3.4725,-3.4543,-3.5359,-3.5439,-3.5457,-3.5504,-3.5504,-3.5504,-3.5504,-3.5504,-3.5504,-3.5504,-3.5504,-3.5572,-3.572,-3.5894,-3.6068,-3.6211,-3.756,-3.8278,-3.8362,-3.9549,-4.0096,-4.0096,-4.0096,-4.0096,-4.0096,-4.0096,-4.0096,-4.0096,-4.0096,-4.0096,-4.0096,-4.0096,-4.0096,-4.0096,-4.0096,-4.0096,-4.0096,-4.0096,-4.0096,-4.0096,-4.0096,-4.0402,-4.0849,-4.1303,-4.1782,-4.2218,-4.2711,-4.2863,-4.2863,-4.2882,-4.2901,-4.2901,-4.2901,-4.2901,-4.2901,-4.2901,-4.2901,-4.2901,-4.2901,-4.2901,-4.2901,-4.2901,-4.2901,-4.2901,-4.2901,-4.2901,-4.2901,-4.2901,-4.2901,-4.2901,-4.2901,-4.2901,-4.2901,-4.2901,-4.2901,-4.2901,-4.2901,-4.2901,-4.2901,-4.2901,-4.2901,-4.2901,-4.2901,-4.2901,-4.2901,-4.2901,-4.2901,-4.2901,-4.2901,-4.2901,-4.2901,0.0,0.0,0.0,0.0,-3.5151,-3.5459,-3.5711,-3.6055,-3.6301,-3.6104,-3.6085,-3.5973,-3.5569,-3.5504,-3.5504,-3.5504,-3.5246,-3.5166,-3.5472,-3.5246,-3.518,-3.5472,-3.5504,-3.5504,-3.5504,-3.5504,-3.5504,-3.5504,-3.5504,-3.5504,-3.5504,-3.5504,-3.5554,-3.5688,-3.5752,-3.5911,-3.6196,-3.7207,-3.7911,-3.8322,-3.9135,-3.9722,-4.0096,-4.0096,-4.0096,-4.0096,-4.0096,-4.0096,-4.0096,-4.0096,-4.0096,-4.0096,-4.0096,-4.0096,-4.0096,-4.0096,-4.0096,-4.0096,-4.0096,-4.0096,-4.0096,-4.0096,-4.0204,-4.0483,-4.1276,-4.163,-4.1909,-4.2692,-4.2901,-4.2901,-4.2901,-4.2901,-4.2901,-4.2901,-4.2901,-4.2901,-4.2901,-4.2901,-4.2901,-4.2901,-4.2901,-4.2901,-4.2901,-4.2901,-4.2901,-4.2901,-4.2901,-4.2901,-4.2901,-4.2901,-4.2901,-4.2901,-4.2901,-4.2901,-4.2901,-4.2901,-4.2901,-4.2901,-4.2901,-4.2901,-4.2901,-4.2901,-4.2901,-4.2901,-4.2901,-4.2901,-4.2901,-4.2901,-4.2901,-4.2901,-4.2901,-4.2901,-3.4899,0.0,0.0,0.0,0.0,-3.5414,-3.5677,-3.6165,-3.6498,-3.6106,-3.6245,-3.6227,-3.5619,-3.5504,-3.5504,-3.5504,-3.5504,-3.5504,-3.5504,-3.5504,-3.5504,-3.5504,-3.5504,-3.5504,-3.5504,-3.5504,-3.5504,-3.5504,-3.5504,-3.5504,-3.5504,-3.5504,-3.5587,-3.5799,-3.5799,-3.5958,-3.6305,-3.7028,-3.7709,-3.8322,-3.892,-3.954,-4.0096,-4.0096,-4.0096,-4.0096,-4.0096,-4.0096,-4.0096,-4.0096,-4.0096,-4.0096,-4.0096,-4.0096,-4.0096,-4.0096,-4.0096,-4.0096,-4.0096,-4.0096,-4.0096,-4.0096,-4.0096,-4.0254,-4.1024,-4.1388,-4.1656,-4.2458,-4.2787,-4.2901,-4.2901,-4.2901,-4.2901,-4.2901,-4.2901,-4.2901,-4.2901,-4.2901,-4.2901,-4.2901,-4.2901,-4.2901,-4.2901,-4.2901,-4.2901,-4.2901,-4.2901,-4.2901,-4.2901,-4.2901,-4.2901,-4.2901,-4.2901,-4.2901,-4.2901,-4.2901,-4.2901,-4.2901,-4.2901,-4.2901,-4.2901,-4.2901,-4.2901,-4.2901,-4.2901,-4.2901,-4.2901,-4.2901,-4.2901,-4.2901,-4.2901,-4.2901,0.0,0.0,0.0,0.0,0.0,0.0,-3.5182,-3.6136,-3.6834,-3.5594,-3.5907,-3.6228,-3.5651,-3.5504,-3.5504,-3.5504,-3.5504,-3.5504,-3.5504,-3.5504,-3.5504,-3.5504,-3.5504,-3.5504,-3.5504,-3.5504,-3.5504,-3.5504,-3.5504,-3.5504,-3.5504,-3.5504,-3.5651,-3.5973,-3.6005,-3.6163,-3.6492,-3.7074,-3.7679,-3.8322,-3.8876,-3.9497,-4.0096,-4.0096,-4.0096,-4.0096,-4.0096,-4.0096,-4.0096,-4.0096,-4.0096,-4.0096,-4.0096,-4.0096,-4.0096,-4.0096,-4.0096,-4.0096,-4.0096,-4.0096,-4.0096,-4.0096,-4.0096,-4.0196,-4.0676,-4.1116,-4.1591,-4.2074,-4.2555,-4.2901,-4.2901,-4.2901,-4.2901,-4.2901,-4.2901,-4.2901,-4.2901,-4.2901,-4.2901,-4.2901,-4.2901,-4.2901,-4.2901,-4.2901,-4.2901,-4.2901,-4.2901,-4.2901,-4.2901,-4.2901,-4.2901,-4.2901,-4.2901,-4.2901,-4.2901,-4.2901,-4.2901,-4.2901,-4.2901,-4.2901,-4.2901,-4.2901,-4.2901,-4.2901,-4.2901,-4.2901,-4.2901,-4.2901,-4.2901,-4.2901,-4.2901,-4.2901,-3.4923,0.0,0.0,0.0,0.0,0.0,-3.5646,-3.6041,-3.6411,-3.6646,-3.65,-3.6299,-3.6166,-3.5782,-3.5504,-3.5504,-3.5504,-3.5504,-3.5504,-3.5504,-3.5504,-3.5504,-3.5504,-3.5504,-3.5504,-3.5504,-3.5504,-3.5504,-3.5504,-3.5504,-3.5504,-3.5504,-3.5587,-3.5799,-3.5926,-3.61,-3.6274,-3.6585,-3.7282,-3.8306,-3.8463,-3.9092,-4.0096,-4.0096,-4.0096,-4.0096,-4.0096,-4.0096,-4.0096,-4.0096,-4.0096,-4.0096,-4.0096,-4.0096,-4.0096,-4.0096,-4.0096,-4.0096,-4.0096,-4.0096,-4.0096,-4.0096,-4.0096,-4.0196,-4.0676,-4.1116,-4.1591,-4.2074,-4.2555,-4.2901,-4.2901,-4.2901,-4.2901,-4.2901,-4.2901,-4.2901,-4.2901,-4.2901,-4.2901,-4.2901,-4.2901,-4.2901,-4.2901,-4.2901,-4.2901,-4.2901,-4.2901,-4.2901,-4.2901,-4.2901,-4.2901,-4.2901,-4.2901,-4.2901,-4.2901,-4.2901,-4.2901,-4.2901,-4.2901,-4.2901,-4.2901,-4.2901,-4.2901,-4.2901,-4.2901,-4.2901,-4.2901,-4.2901,-4.2901,-4.2901,-4.2901,-4.2901,0.0,0.0,0.0,0.0,0.0,0.0,-3.5446,-3.5777,-3.605,-3.6243,-3.6493,-3.6527,-3.6014,-3.5918,-3.5797,-3.5537,-3.5504,-3.5504,-3.5504,-3.5504,-3.5504,-3.5504,-3.5504,-3.5504,-3.5504,-3.5504,-3.5504,-3.5504,-3.5504,-3.5504,-3.5504,-3.5504,-3.5554,-3.5688,-3.5894,-3.6053,-3.6196,-3.6383,-3.7118,-3.8306,-3.8306,-3.893,-4.0096,-4.0096,-4.0096,-4.0096,-4.0096,-4.0096,-4.0096,-4.0096,-4.0096,-4.0096,-4.0096,-4.0096,-4.0096,-4.0096,-4.0096,-4.0096,-4.0096,-4.0096,-4.0096,-4.0096,-4.0096,-4.0146,-4.0427,-4.0832,-4.1321,-4.1782,-4.2398,-4.2901,-4.2901,-4.2901,-4.2901,-4.2901,-4.2901,-4.2901,-4.2901,-4.2901,-4.2901,-4.2901,-4.2901,-4.2901,-4.2901,-4.2901,-4.2901,-4.2901,-4.2901,-4.2901,-4.2901,-4.2901,-4.2901,-4.2901,-4.2901,-4.2901,-4.2901,-4.2901,-4.2901,-4.2901,-4.2901,-4.2901,-4.2901,-4.2901,-4.2901,-4.2901,-4.2901,-4.2901,-4.2901,-4.2901,-4.2806,-4.2614,-4.2614,-4.2614,0.0,0.0,0.0,0.0,-3.4899,0.0,-3.4899,-3.5413,-3.5729,-3.5233,-3.6082,-3.663,-3.5588,-3.5875,-3.6091,-3.5539,-3.5533,-3.5576,-3.5504,-3.5504,-3.5504,-3.5504,-3.5504,-3.5504,-3.5504,-3.5504,-3.5504,-3.5504,-3.5504,-3.5504,-3.5504,-3.5504,-3.5554,-3.5688,-3.5863,-3.6022,-3.6196,-3.6383,-3.7072,-3.8306,-3.8306,-3.893,-4.0096,-4.0096,-4.0096,-4.0096,-4.0096,-4.0096,-4.0096,-4.0096,-4.0096,-4.0096,-4.0096,-4.0096,-4.0096,-4.0096,-4.0096,-4.0096,-4.0096,-4.0096,-4.0096,-4.0096,-4.0096,-4.0096,-4.0096,-4.041,-4.0919,-4.1432,-4.2218,-4.2901,-4.2901,-4.2901,-4.2901,-4.2901,-4.2901,-4.2901,-4.2901,-4.2901,-4.2901,-4.2901,-4.2901,-4.2901,-4.2901,-4.2901,-4.2901,-4.2901,-4.2901,-4.2901,-4.2901,-4.2901,-4.2901,-4.2901,-4.2901,-4.2901,-4.2901,-4.2901,-4.2901,-4.2901,-4.2901,-4.2901,-4.2901,-4.2901,-4.2901,-4.2901,-4.2901,-4.2901,-4.2901,-4.2844,-4.2614,-4.2198,-4.2136,-4.2115,0.0,0.0,-3.4899,-3.4899,-3.4899,0.0,-3.4899,-3.5015,-3.5256,-3.5712,-3.5605,-3.5529,-3.5876,-3.5656,-3.5397,-3.5297,-3.5765,-3.5997,-3.5544,-3.5504,-3.5504,-3.5504,-3.5504,-3.5504,-3.5504,-3.5504,-3.5504,-3.5504,-3.5504,-3.5504,-3.5504,-3.5504,-3.5554,-3.5688,-3.5752,-3.5879,-3.6196,-3.6242,-3.6936,-3.8306,-3.8306,-3.893,-4.0096,-4.0096,-4.0096,-4.0096,-4.0096,-4.0096,-4.0096,-4.0096,-4.0096,-4.0096,-4.0096,-4.0096,-4.0096,-4.0096,-4.0096,-4.0096,-4.0096,-4.0096,-4.0096,-4.0096,-4.0096,-4.0096,-4.0096,-4.041,-4.0972,-4.1825,-4.2458,-4.2901,-4.2901,-4.2901,-4.2901,-4.2901,-4.2901,-4.2901,-4.2901,-4.2901,-4.2901,-4.2901,-4.2901,-4.2901,-4.2901,-4.2901,-4.2901,-4.2901,-4.2901,-4.2901,-4.2901,-4.2901,-4.2901,-4.2901,-4.2901,-4.2901,-4.2901,-4.2901,-4.2901,-4.2901,-4.2901,-4.2901,-4.2901,-4.2901,-4.2901,-4.2901,-4.2901,-4.2901,-4.2901,-4.2518,-4.2297,-4.2177,-4.1825,-4.1652,-3.5117,-3.4947,-3.4899,-3.4899,-3.4899,0.0,0.0,-3.4899,-3.4998,-3.5379,-3.549,-3.5517,-3.5548,-3.5594,-3.555,-3.5244,-3.5814,-3.6068,-3.543,-3.5984,-3.643,-3.643,-3.6148,-3.5941,-3.5941,-3.5683,-3.5504,-3.5504,-3.5504,-3.5504,-3.5504,-3.5504,-3.5522,-3.5589,-3.5671,-3.5816,-3.6085,-3.6461,-3.7205,-3.8306,-3.8601,-3.9216,-4.0096,-4.0096,-4.0096,-4.0096,-4.0096,-4.0096,-4.0096,-4.0096,-4.0096,-4.0096,-4.0096,-4.0096,-4.0096,-4.0096,-4.0096,-4.0096,-4.0096,-4.0096,-4.0096,-4.0096,-4.0096,-4.0096,-4.0096,-4.041,-4.0949,-4.1652,-4.2198,-4.2596,-4.2844,-4.2901,-4.2901,-4.2901,-4.2901,-4.2901,-4.2901,-4.2901,-4.2901,-4.2901,-4.2901,-4.2901,-4.2901,-4.2901,-4.2901,-4.2901,-4.2901,-4.2901,-4.2901,-4.2901,-4.2901,-4.2901,-4.2901,-4.2901,-4.2901,-4.2901,-4.2901,-4.2901,-4.2901,-4.2901,-4.2901,-4.2901,-4.2901,-4.2901,-4.2901,-4.2769,-4.2537,-4.2077,-4.1846,-4.1846,-4.1366,-4.1139,-3.5361,-3.5138,-3.5081,-3.4932,-3.4899,-3.4899,0.0,0.0,0.0,-3.4899,-3.5363,-3.5613,-3.5089,-3.5484,-3.5716,-3.5206,-3.5741,-3.6039,-3.5438,-3.6497,-3.7313,-3.7207,-3.6858,-3.6538,-3.6399,-3.5846,-3.5504,-3.5504,-3.5504,-3.5504,-3.5504,-3.5504,-3.5504,-3.5504,-3.5621,-3.5799,-3.6005,-3.66,-3.7383,-3.8322,-3.8794,-3.9418,-4.0096,-4.0096,-4.0096,-4.0096,-4.0096,-4.0096,-4.0096,-4.0096,-4.0096,-4.0096,-4.0096,-4.0096,-4.0096,-4.0096,-4.0096,-4.0096,-4.0096,-4.0096,-4.0096,-4.0096,-4.0096,-4.0096,-4.0096,-4.041,-4.0896,-4.1253,-4.1782,-4.2297,-4.2673,-4.2825,-4.2901,-4.2901,-4.2901,-4.2901,-4.2901,-4.2901,-4.2901,-4.2901,-4.2901,-4.2901,-4.2901,-4.2901,-4.2901,-4.2901,-4.2901,-4.2901,-4.2901,-4.2901,-4.2901,-4.2901,-4.2901,-4.2901,-4.2901,-4.2901,-4.2901,-4.2901,-4.2901,-4.2901,-4.2901,-4.2901,-4.2863,-4.2768,-4.2768,-4.2537,-4.2056,-4.1591,-4.1366,-4.1348,-4.0879,-4.0676,-3.6222,-3.5974,-3.5727,-3.5048,-3.4899,-3.4899,-3.4899,0.0,-3.4899,-3.4899,0.0,-3.4991,-3.4943,0.0,0.0,-3.4938,-3.5548,-3.6009,-3.5926,-3.6618,-3.6975,-3.6492,-3.6947,-3.7041,-3.6461,-3.5846,-3.5504,-3.5504,-3.5504,-3.5504,-3.5504,-3.5504,-3.5504,-3.5504,-3.5621,-3.5799,-3.6005,-3.6196,-3.6981,-3.8306,-3.8379,-3.8984,-4.0096,-4.0096,-4.0096,-4.0096,-4.0096,-4.0096,-4.0096,-4.0096,-4.0096,-4.0096,-4.0096,-4.0096,-4.0096,-4.0096,-4.0096,-4.0096,-4.0096,-4.0096,-4.0096,-4.0096,-4.0096,-4.0096,-4.0096,-4.041,-4.0802,-4.0855,-4.1521,-4.2198,-4.2277,-4.2595,-4.2901,-4.2901,-4.2901,-4.2901,-4.2901,-4.2901,-4.2901,-4.2901,-4.2901,-4.2901,-4.2901,-4.2901,-4.2901,-4.2901,-4.2901,-4.2901,-4.2901,-4.2901,-4.2901,-4.2901,-4.2901,-4.2901,-4.2901,-4.2901,-4.2901,-4.2901,-4.2901,-4.2901,-4.2901,-4.2901,-4.2692,-4.2297,-4.2297,-4.2053,-4.1569,-4.1094,-4.0896,-4.0873,-4.0402,-4.0171,-3.6904,-3.6663,-3.6572,-3.6257,-3.586,-3.5545,-3.5545,-3.5214,-3.4899,-3.4899,0.0,0.0,0.0,0.0,0.0,0.0,-3.5512,-3.5843,-3.5413,-3.6373,-3.7023,-3.6787,-3.6695,-3.6584,-3.6371,-3.6153,-3.6022,-3.6022,-3.5701,-3.5504,-3.5504,-3.5504,-3.5522,-3.5621,-3.5671,-3.5816,-3.6116,-3.6523,-3.7071,-3.7796,-3.849,-3.9082,-3.9575,-3.9944,-4.0096,-4.0096,-4.0096,-4.0096,-4.0096,-4.0096,-4.0096,-4.0096,-4.0096,-4.0096,-4.0096,-4.0096,-4.0096,-4.0096,-4.0096,-4.0096,-4.0096,-4.0096,-4.0096,-4.0096,-4.0096,-4.0246,-4.0434,-4.0731,-4.1088,-4.1499,-4.2053,-4.2358,-4.2557,-4.2844,-4.2901,-4.2901,-4.2901,-4.2901,-4.2901,-4.2901,-4.2901,-4.2901,-4.2901,-4.2901,-4.2901,-4.2901,-4.2901,-4.2901,-4.2901,-4.2901,-4.2901,-4.2901,-4.2901,-4.2901,-4.2901,-4.2901,-4.2901,-4.2901,-4.2653,-4.2498,-4.2498,-4.2221,-4.2118,-4.2198,-4.1867,-4.1437,-4.0961,-4.0696,-4.0417,-4.0162,-4.0121,-4.0096,-3.7281,-3.7127,-3.7129,-3.7101,-3.6704,-3.6307,-3.6307,-3.5727,-3.5197,-3.5197,-3.5032,0.0,0.0,0.0,-3.4899,0.0,0.0,-3.5512,-3.4982,-3.5827,-3.6572,-3.6837,-3.6434,-3.6179,-3.6294,-3.6338,-3.6307,-3.6122,-3.5883,-3.5683,-3.5504,-3.5504,-3.5554,-3.5688,-3.5752,-3.5926,-3.6196,-3.6708,-3.7087,-3.7417,-3.8451,-3.9028,-3.9232,-3.9825,-4.0096,-4.0096,-4.0096,-4.0096,-4.0096,-4.0096,-4.0096,-4.0096,-4.0096,-4.0096,-4.0096,-4.0096,-4.0096,-4.0096,-4.0096,-4.0096,-4.0096,-4.0096,-4.0096,-4.0096,-4.0096,-4.0096,-4.0171,-4.0507,-4.0683,-4.0949,-4.163,-4.1909,-4.2136,-4.2595,-4.2711,-4.2731,-4.2863,-4.2901,-4.2901,-4.2901,-4.2901,-4.2901,-4.2901,-4.2901,-4.2901,-4.2901,-4.2901,-4.2901,-4.2901,-4.2901,-4.2901,-4.2901,-4.2901,-4.2844,-4.2711,-4.2711,-4.2653,-4.2518,-4.2198,-4.1994,-4.1994,-4.1678,-4.1609,-4.1803,-4.1388,-4.0908,-4.0417,-4.0294,-4.0079,-3.9703,-3.991,-3.9995,-3.7238,-3.7198,-3.7172,-3.7114,-3.7085,-3.7069,-3.7069,-3.6489,-3.5959,-3.5959,-3.5396,-3.4899,-3.4899,-3.4899,0.0,0.0,0.0,0.0,0.0,-3.4932,-3.5278,-3.613,-3.6277,-3.6296,-3.6312,-3.6302,-3.6025,-3.5369,-3.5968,-3.6116,-3.5537,-3.5504,-3.5554,-3.5688,-3.5894,-3.6068,-3.6196,-3.6414,-3.6816,-3.7417,-3.8039,-3.8629,-3.9232,-3.9825,-4.0096,-4.0096,-4.0096,-4.0096,-4.0096,-4.0096,-4.0096,-4.0096,-4.0096,-4.0096,-4.0096,-4.0096,-4.0096,-4.0096,-4.0096,-4.0096,-4.0096,-4.0096,-4.0096,-4.0096,-4.0096,-4.0096,-4.0096,-4.0121,-4.0434,-4.0802,-4.0849,-4.1185,-4.1635,-4.2115,-4.2218,-4.2358,-4.2806,-4.2901,-4.2901,-4.2901,-4.2901,-4.2901,-4.2901,-4.2901,-4.2901,-4.2901,-4.2901,-4.2901,-4.2901,-4.2901,-4.2901,-4.2901,-4.2901,-4.2711,-4.2259,-4.2218,-4.2032,-4.1569,-4.1525,-4.1525,-4.1525,-4.1503,-4.1281,-4.0849,-4.0825,-4.0531,-3.991,-3.9926,-3.9833,-3.9703,-3.9703,-3.9703,-3.7332,-3.7342,-3.7422,-3.7785,-3.753,-3.7267,-3.7727,-3.7268,-3.6738,-3.6738,-3.6141,-3.5628,-3.5628,-3.523,0.0,0.0,0.0,0.0,0.0,-3.5245,-3.5368,-3.5596,-3.6056,-3.6315,-3.6241,-3.6722,-3.691,-3.6584,-3.6456,-3.6305,-3.6116,-3.5799,-3.5703,-3.5894,-3.6053,-3.6211,-3.6383,-3.646,-3.66,-3.6816,-3.7809,-3.8407,-3.8629,-3.9627,-4.0096,-4.0096,-4.0096,-4.0096,-4.0096,-4.0096,-4.0096,-4.0096,-4.0096,-4.0096,-4.0096,-4.0096,-4.0096,-4.0096,-4.0096,-4.0096,-4.0096,-4.0096,-4.0096,-4.0096,-4.0096,-4.0096,-4.0096,-4.0096,-4.0204,-4.0427,-4.0707,-4.0919,-4.1162,-4.163,-4.1739,-4.1867,-4.2338,-4.2438,-4.2438,-4.2438,-4.2438,-4.2358,-4.2035,-4.1955,-4.218,-4.2806,-4.2901,-4.2787,-4.2478,-4.2438,-4.232,-4.2015,-4.1955,-4.1909,-4.176,-4.1739,-4.1543,-4.1065,-4.1042,-4.1042,-4.1042,-4.0754,-4.0635,-4.0802,-4.0427,-4.0096,-3.9901,-3.9807,-3.9755,-3.9703,-3.9616,-3.9616,-3.6981,-3.7041,-3.7191,-3.7822,-3.76,-3.7436,-3.8073,-3.7666,-3.7209,-3.7448,-3.6903,-3.639,-3.639,-3.5794,0.0,0.0,0.0,0.0,0.0,-3.5423,-3.5469,-3.5377,-3.575,-3.5964,-3.5892,-3.6546,-3.693,-3.6826,-3.6582,-3.6474,-3.6508,-3.5991,-3.5799,-3.6005,-3.6148,-3.6242,-3.632,-3.6352,-3.6383,-3.6414,-3.7576,-3.8193,-3.8334,-3.9497,-4.0062,-4.0096,-4.0096,-4.0096,-4.0096,-4.0096,-4.0096,-4.0096,-4.0096,-4.0096,-4.0096,-4.0096,-4.0096,-4.0096,-4.0096,-4.0096,-4.0096,-4.0096,-4.0096,-4.0096,-4.0096,-4.0096,-4.0121,-4.0303,-4.0246,-4.0221,-4.0683,-4.0676,-4.0659,-4.1139,-4.1253,-4.1388,-4.1846,-4.1952,-4.1952,-4.1952,-4.1952,-4.1867,-4.1547,-4.1503,-4.17,-4.232,-4.24,-4.23,-4.1994,-4.1952,-4.1846,-4.1525,-4.1503,-4.1437,-4.1276,-4.1094,-4.0879,-4.058,-4.0556,-4.0556,-4.0556,-4.0254,-4.0246,-4.0556,-4.0121,-3.9875,-3.9824,-3.9729,-3.9651,-3.9547,-3.9511,-3.9511]},{"header":{"parameterUnit":"m.s-1","parameterCategory":1,"la1":30.6,"la2":29.2853,"lo1":-89.7004,"lo2":-87.6739,"dy":0.0162,"dx":0.0183,"nx":112,"ny":82,"refTime":"2024-03-25T06:00:00:Z","depth":0,"parameterNumber":3,"parameterNumberName":"V-component_of_WINDS"},"data":[0.0,0.0,0.0,0.0,0.0,0.0,0.0,0.0,0.0,0.0,0.0,0.0,0.0,0.0,0.0,0.0,0.0,0.0,0.0,0.0,0.0,0.0,0.0,0.0,0.0,0.0,0.0,0.0,0.0,0.0,0.0,0.0,0.0,0.0,0.0,0.0,0.0,0.0,0.0,0.0,0.0,0.0,0.0,0.0,0.0,0.0,0.0,0.0,0.0,0.0,0.0,0.0,0.0,0.0,0.0,0.0,0.0,0.0,0.0,0.0,0.0,0.0,0.0,0.0,0.0,0.0,0.0,0.0,0.0,0.0,0.0,0.0,0.0,0.0,0.0,0.0,0.0,0.0,0.0,0.0,0.0,0.0,0.0,0.0,0.0,0.0,0.0,0.0,0.0,0.0,0.501,0.5099,0.5463,0.528,0.4243,0.3172,0.2056,0.0805,0.0,0.0,0.0,0.0,0.0,0.0,0.0,0.0,0.0,0.0,0.0,0.0,0.0,0.0,0.0,0.0,0.0,0.0,0.0,0.0,0.0,0.0,0.0,0.0,0.0,0.0,0.0,0.0,0.0,0.0,0.0,0.0,0.0,0.0,0.0,0.0,0.0,0.0,0.0,0.0,0.0,0.0,0.0,0.0,0.0,0.0,0.0,0.0,0.0,0.0,0.0,0.0,0.0,0.0,0.0,0.0,0.0,0.0,0.0,0.0,0.0,0.0,0.0,0.0,0.0,0.0,0.0,0.0,0.0,0.0,0.0,0.0,0.0,0.0,0.0,0.0,0.0,0.0,0.0,0.0,0.0,0.0,0.0,0.0,0.0,0.0,0.0,0.0,0.0,0.0,0.0,0.0,0.0,0.0,0.0,0.0,0.0,0.0,0.0,0.0,0.0,0.0,0.0,0.0,0.5146,0.5552,0.5644,0.5644,0.546,0.3849,0.264,0.2189,0.0,0.0,0.0,0.0,0.0,0.0,0.0,0.0,0.0,0.0,0.0,0.0,0.0,0.0,0.0,0.0,0.0,0.0,0.0,0.0,0.0,0.0,0.0,0.0,0.0,0.0,0.0,0.0,0.0,0.0,0.0,0.0,0.0,0.0,0.0,0.0,0.0,0.0,0.0,0.0,0.0,0.0,0.0,0.0,0.0,0.0,0.0,0.0,0.0,0.0,0.0,0.0,0.0,0.0,0.0,0.0,0.0,0.0,0.0,0.0,0.0,0.0,0.0,0.0,0.0,0.0,0.0,0.0,0.0,0.0,0.0,0.0,0.0,0.0,0.0,0.0,0.0,0.0,0.0,0.0,0.0,0.0,0.0,0.0,0.0,0.0,0.0,0.0,0.0,0.0,0.0,0.0,0.0,0.0,0.0,0.0,0.0,0.0,0.0,0.0,0.0,0.0,0.0,0.5458,0.5725,0.6038,0.608,0.6038,0.5908,0.4654,0.3487,0.2546,0.0984,0.0,0.0,0.0,0.0,0.0,0.0,0.0,0.0,0.0,0.0,0.0,0.0,0.0,0.0,0.0,0.0,0.0,0.0,0.0,0.0,0.0,0.0,0.0,0.0,0.0,0.0,0.0,0.0,0.0,0.0,0.0,0.0,0.0,0.0,0.0,0.0,0.0,0.0,0.0,0.0,0.0,0.0,0.0,0.0,0.0,0.0,0.0,0.0,0.0,0.0,0.0,0.0,0.0,0.0,0.0,0.0,0.0,0.0,0.0,0.0,0.0,0.0,0.0,0.0,0.0,0.0,0.0,0.0,0.0,0.0,0.0,0.0,0.0,0.0,0.0,0.0,0.0,0.0,0.0,0.0,0.0,0.0,0.0,0.0,0.0,0.0,0.0,0.0,0.0,0.0,0.0,0.0,0.0,0.0,0.0,0.0,0.0,0.0,0.0,0.0,0.0,0.0,0.6038,0.6171,0.6299,0.6387,0.6343,0.6169,0.505,0.3844,0.2726,0.1476,0.0,0.0,0.0,0.0,0.0,0.0,0.0,0.0,0.0,0.0,0.0,0.0,0.0,0.0,0.0,0.0,0.0,0.0,0.0,0.0,0.0,0.0,0.0,0.0,0.0,0.0,0.0,0.0,0.0,0.0,0.0,0.0,0.0,0.0,0.0,0.0,0.0,0.0,0.0,0.0,0.0,0.0,0.0,0.0,0.0,0.0,0.0,0.0,0.0,0.0,0.0,0.0,0.0,0.0,0.0,0.0,0.0,0.0,0.0,0.0,0.0,0.0,0.0,0.0,0.0,0.0,0.0,0.0,0.0,0.0,0.0,0.0,0.0,0.0,0.0,0.0,0.0,0.0,0.0,0.0,0.0,0.0,0.0,0.0,0.0,0.0,0.0,0.0,0.0,0.0,0.0,0.0,0.0,0.0,0.0,0.0,0.0,0.0,0.0,0.0,0.0,0.0,0.5952,0.6083,0.6127,0.6302,0.6384,0.6387,0.4512,0.3263,0.3173,0.0985,0.0,0.0,0.0,0.0,0.0,0.0,0.0,0.0,0.0,0.0,0.0,0.0,0.0,0.0,0.0,0.0,0.0,0.0,0.0,0.0,0.0,0.0,0.0,0.0,0.0,0.0,0.0,0.0,0.0,0.0,0.0,0.0,0.0,0.0,0.0,0.0,0.0,0.0,0.0,0.0,0.0,0.0,0.0,0.0,0.0,0.0,0.0,0.0,0.0,0.0,0.0,0.0,0.0,0.0,0.0,0.0,0.0,0.0,0.0,0.0,0.0,0.0,0.0,0.0,0.0,0.0,0.0,0.0,0.0,0.0,0.0,0.0,0.0,0.0,0.0,0.0,0.0,0.0,0.0,0.0,0.0,0.0,0.0,0.0,0.0,0.0,0.0,0.0,0.0,0.0,0.0,0.0,0.0,0.0,0.0,0.0,0.0,0.0,0.0,0.0,0.0,0.0,0.6041,0.6169,0.6254,0.6343,0.6343,0.6213,0.5453,0.4427,0.3089,0.0,0.0,0.0,0.0,0.0,0.0,0.0,0.0,0.0,0.0,0.0,0.0,0.0,0.0,0.0,0.0,0.0,0.0,0.0,0.0,0.0,0.0,0.0,0.0,0.0,0.0,0.0,0.0,0.0,0.0,0.0,0.0,0.0,0.0,0.0,0.0,0.0,0.0,0.0,0.0,0.0,0.0,0.0,0.0,0.0,0.0,0.0,0.0,0.0,0.0,0.0,0.0,0.0,0.0,0.0,0.0,0.0,0.0,0.0,0.0,0.0,0.0,0.0,0.0,0.0,0.0,0.0,0.0,0.0,0.0,0.0,0.0,0.0,0.0,0.0,0.0,0.0,0.0,0.0,0.0,0.0,0.0,0.0,0.0,0.0,0.0,0.0,0.0,0.0,0.0,0.0,0.0,0.0,0.0,0.0,0.0,0.0,0.0,0.0,0.0,0.0,0.0,0.5908,0.6038,0.6154,0.6239,0.6327,0.6311,0.6095,0.5741,0.491,0.3423,0.0,0.0,0.0,0.0,0.0,0.0,0.0,0.0,0.0,0.0,0.0,0.0,0.0,0.0,0.0,0.0,0.0,0.0,0.0,0.0,0.0,0.0,0.0,0.0,0.0,0.0,0.0,0.0,0.0,0.0,0.0,0.0,0.0,0.0,0.0,0.0,0.0,0.0,0.0,0.0,0.0,0.0,0.0,0.0,0.0,0.0,0.0,0.0,0.0,0.0,0.0,0.0,0.0,0.0,0.0,0.0,0.0,0.0,0.0,0.0,0.0,0.0,0.0,0.0,0.0,0.0,0.0,0.0,0.0,0.0,0.0,0.0,0.0,0.0,0.0,0.0,0.0,0.0,0.0,0.0,0.0,0.0,0.0,0.0,0.0,0.0,0.0,0.0,0.0,0.0,0.0,0.0,0.0,0.0,0.0,0.0,0.0,0.0,0.0,0.0,0.0,0.0,0.573,0.5949,0.6075,0.5901,0.615,0.6227,0.6088,0.4991,0.4321,0.0,0.0,0.0,0.0,0.0,0.0,0.0,0.0,0.0,0.0,0.0,0.0,0.0,0.0,0.0,0.0,0.0,0.0,0.0,0.0,0.0,0.0,0.0,0.0,0.0,0.0,0.0,0.0,0.0,0.0,0.0,0.0,0.0,0.0,0.0,0.0,0.0,0.0,0.0,0.0,0.0,0.0,0.0,0.0,0.0,0.0,0.0,0.0,0.0,0.0,0.0,0.0,0.0,0.0,0.0,0.0,0.0,0.0,0.0,0.0,0.0,0.0,0.0,0.0,0.0,0.0,0.0,0.0,0.0,0.0,0.0,0.0,0.0,0.0,0.0,0.0,0.0,0.0,0.0,0.0,0.0,0.0,0.0,0.0,0.0,0.0,0.0,0.0,0.0,0.0,0.0,0.0,0.0,0.0,0.0,0.0,0.0,0.0,0.0,0.0,0.0,0.0,0.0,0.6263,0.6381,0.6371,0.6186,0.5882,0.5661,0.5621,0.5285,0.4782,0.4068,0.0,0.0,0.0,0.0,0.0,0.0,0.0,0.0,0.0,0.0,0.0,0.0,0.0,0.0,0.0,0.0,0.0,0.0,0.0,0.0,0.0,0.0,0.0,0.0,0.0,0.0,0.0,0.0,0.0,0.0,0.0,0.0,0.0,0.0,0.0,0.0,0.0,0.0,0.0,0.0,0.0,0.0,0.0,0.0,0.0,0.0,0.0,0.0,0.0,0.0,0.0,0.0,0.0,0.0,0.0,0.0,0.0,0.0,0.0,0.0,0.0,0.0,0.0,0.0,0.0,0.0,0.0,0.0,0.0,0.0,0.0,0.0,0.0,0.0,0.0,0.0,0.0,0.0,0.0,0.0,0.0,0.0,0.0,0.0,0.0,0.0,0.0,0.0,0.0,0.0,0.0,0.0,0.0,0.0,0.0,0.0,0.0,0.0,0.0,0.0,0.0,0.0,0.6841,0.695,0.6937,0.6617,0.6034,0.5647,0.5595,0.5389,0.4984,0.4369,0.0,0.0,0.0,0.0,0.0,0.0,0.0,0.0,0.0,0.0,0.0,0.0,0.0,0.0,0.0,0.0,0.0,0.0,0.0,0.0,0.0,0.0,0.0,0.0,0.0,0.0,0.0,0.0,0.0,0.0,0.0,0.0,0.0,0.0,0.0,0.0,0.0,0.0,0.0,0.0,0.0,0.0,0.0,0.0,0.0,0.0,0.0,0.0,0.0,0.0,0.0,0.0,0.0,0.0,0.0,0.0,0.0,0.0,0.0,0.0,0.0,0.0,0.0,0.0,0.0,0.0,0.0,0.0,0.0,0.0,0.0,0.0,0.0,0.0,0.0,0.0,0.0,0.0,0.0,0.0,0.0,0.0,0.0,0.0,0.0,0.0,0.0,0.0,0.0,0.0,0.0,0.0,0.0,0.0,0.0,0.0,0.0,0.0,0.0,0.0,0.0,0.0,0.7424,0.7689,0.7748,0.7183,0.657,0.6119,0.5912,0.5401,0.5057,0.5018,0.0,0.0,0.0,0.0,0.0,0.0,0.0,0.0,0.0,0.0,0.0,0.0,0.0,0.0,0.0,0.0,0.0,0.0,0.0,0.0,0.0,0.0,0.0,0.0,0.0,0.0,0.0,0.0,0.0,0.0,0.0,0.0,0.0,0.0,0.0,0.0,0.0,0.0,0.0,0.0,0.0,0.0,0.0,0.0,0.0,0.0,0.0,0.0,0.0,0.0,0.0,0.0,0.0,0.0,0.0,0.0,0.0,0.0,0.0,0.0,0.6376,0.5568,0.0,0.0,0.0,0.0,0.0,0.0,0.0,0.0,0.0,0.0,0.0,0.0,0.0,0.0,0.0,0.0,0.0,0.0,0.0,0.0,0.0,0.0,0.0,0.0,0.0,0.0,0.0,0.0,0.0,0.0,0.0,0.0,0.0,0.0,0.0,0.0,0.0,0.0,0.0,0.0,0.8333,0.8705,0.8746,0.8159,0.7559,0.6856,0.598,0.5786,0.5518,0.5015,0.4841,0.0,0.0,0.0,0.0,0.0,0.0,0.0,0.0,0.0,0.0,0.0,0.0,0.0,0.0,0.0,0.0,0.0,0.0,0.0,0.0,0.0,0.0,0.0,0.0,0.0,0.0,0.0,0.0,0.0,0.0,0.0,0.0,0.0,0.0,0.0,0.0,0.0,0.0,0.0,0.0,0.0,0.0,0.0,0.0,0.0,0.0,0.0,0.0,0.0,0.0,0.0,0.0,0.0,0.0,0.0,0.0,0.0,0.0,0.0,0.7485,0.6776,0.0,0.0,0.0,0.0,0.0,0.0,0.0,0.0,0.0,0.0,0.0,0.0,0.0,0.0,0.0,0.0,0.0,0.0,0.0,0.0,0.0,0.0,0.0,0.0,0.0,0.0,0.0,0.0,0.0,0.0,0.0,0.0,0.0,0.0,0.0,0.0,0.0,0.0,0.0,0.0,0.9004,0.9473,0.9696,0.916,0.8418,0.7693,0.7161,0.6668,0.6093,0.5479,0.544,0.0,0.0,0.0,0.0,0.0,0.0,0.0,0.0,0.0,0.0,0.0,0.0,0.0,0.0,0.0,0.0,0.0,0.0,0.0,0.0,0.0,0.0,0.0,0.0,0.0,0.0,0.0,0.0,0.0,0.0,0.0,0.0,0.0,0.0,0.0,0.0,0.0,0.0,0.0,0.0,0.0,0.0,0.0,0.0,0.0,0.0,0.0,0.0,0.0,0.0,0.0,0.0,0.0,0.9043,0.913,0.9437,0.9388,0.9432,0.9559,0.8584,0.8141,0.8053,0.7041,0.0,0.0,0.0,0.0,0.0,0.0,0.0,0.0,0.0,0.0,0.0,0.0,0.0,0.0,0.0,0.0,0.0,0.0,0.0,0.0,0.0,0.0,0.8925,0.8281,0.8582,0.8744,0.7704,0.0,0.0,0.0,0.0,0.0,0.0,0.0,0.0,0.0,0.0,0.0,0.9461,1.0105,1.0406,0.9954,0.915,0.8571,0.8304,0.7548,0.6784,0.6131,0.6054,0.5786,0.0,0.0,0.0,0.0,0.0,0.0,0.0,0.0,0.0,0.0,0.0,0.0,0.0,0.0,0.0,0.0,0.0,0.0,0.0,0.0,0.0,0.0,0.0,0.0,0.0,0.0,0.0,0.0,0.0,0.0,0.0,0.0,1.1234,1.1332,0.0,0.0,0.0,0.0,0.0,0.0,0.0,0.0,0.0,0.0,0.0,0.0,0.0,1.0939,1.0939,1.0381,1.0164,1.0376,0.9602,0.9476,0.9907,0.9646,0.9559,0.9602,0.9689,0.0,0.934,0.9034,0.0,0.0,0.0,0.0,0.0,0.0,0.0,0.0,0.0,0.0,0.0,0.0,0.0,0.0,0.0,0.0,0.0,0.0,0.0,0.0,0.0,0.0,0.9774,0.9426,0.9427,0.9419,0.9068,0.8241,0.7714,0.8359,0.8354,0.84,0.0,0.0,0.0,0.0,0.0,0.0,0.9852,1.0513,1.0738,0.9992,0.9765,0.9193,0.7974,0.7744,0.7437,0.6826,0.6788,0.6479,0.5825,0.5786,0.0,0.0,0.0,0.0,0.0,0.0,0.0,0.0,0.0,0.0,0.0,0.0,0.0,0.0,0.0,0.0,0.0,0.0,0.0,0.0,0.0,0.0,0.0,0.0,0.0,0.0,0.0,0.0,0.0,1.2599,1.2875,1.2875,1.24,1.1929,0.0,0.0,0.0,0.0,0.0,0.0,0.0,0.0,0.0,1.1697,1.1697,1.1697,1.1697,1.1397,1.1354,1.1563,1.1182,1.1182,1.1531,1.1397,1.1354,1.1354,1.1488,1.144,1.1225,0.999,0.9388,0.9301,0.0,0.0,0.0,0.0,0.8504,0.8548,0.8763,0.854,0.8273,0.8671,0.0,0.0,0.0,0.0,0.0,0.0,0.0,0.9314,0.94,0.9521,0.9578,0.9442,0.9423,0.9395,0.9301,0.8814,0.8464,0.8898,0.8932,0.8919,0.9091,0.9042,0.0,0.0,0.0,0.9544,0.9544,1.0067,1.0293,0.9922,0.9695,0.9316,0.8703,0.8437,0.805,0.7437,0.7399,0.713,0.6479,0.6479,0.6093,0.0,0.0,0.0,0.0,0.0,0.0,0.0,0.0,0.0,0.0,0.0,0.0,0.0,0.0,0.0,0.0,0.0,0.0,0.0,0.0,0.0,0.0,0.0,0.0,0.0,0.0,0.0,0.0,1.3695,1.4166,1.413,1.3561,1.3082,0.0,0.0,0.0,0.0,0.0,0.0,1.2328,1.2583,1.2674,1.2674,1.2674,1.2674,1.2674,1.2456,1.2456,1.2668,1.237,1.237,1.2717,1.2632,1.2589,1.2583,1.2674,1.2674,1.2462,1.0933,1.0294,1.0289,1.0077,0.999,0.999,1.0028,1.0072,1.0115,1.0332,1.0371,1.0371,1.0371,1.0332,1.0231,1.0053,0.0,0.0,0.0,0.0,0.9233,0.9275,0.928,0.9272,0.9216,0.9206,0.9192,0.9176,0.9048,0.9001,0.9164,0.92,0.9115,0.8968,0.8944,0.0,0.8727,0.9051,0.9284,0.9284,0.9657,0.9846,0.9771,0.9473,0.9246,0.9165,0.8856,0.8508,0.805,0.8012,0.7744,0.7169,0.713,0.6822,0.617,0.0,0.0,0.0,0.0,0.0,0.0,0.0,0.0,0.0,0.0,0.0,0.0,0.0,0.0,0.0,0.0,0.0,0.0,0.0,0.0,0.0,0.0,0.0,0.0,0.0,0.0,0.0,0.0,0.0,1.4124,1.4405,0.0,0.0,0.0,0.0,1.2029,1.2802,1.3317,1.3317,1.409,1.4566,1.4566,1.4566,1.4566,1.4566,1.3747,1.3451,1.362,1.2541,1.2242,1.2674,1.2456,1.2322,1.2328,1.2589,1.2547,1.2328,1.2266,1.2217,1.2157,1.1918,1.1875,1.1901,1.2072,1.2157,1.22,1.2456,1.2547,1.2547,1.2547,1.237,1.2111,1.1832,1.1055,0.0,0.0,0.9586,0.906,0.926,0.9291,0.9235,0.9046,0.8999,0.8982,0.8774,0.8722,0.8779,0.8957,0.8874,0.8727,0.8718,0.0,0.8713,0.8703,0.9051,0.9284,0.9284,0.9657,0.9771,0.9359,0.9322,0.9132,0.878,0.8703,0.8699,0.8665,0.8665,0.8394,0.7783,0.7744,0.7476,0.6865,0.6822,0.0,0.0,0.0,0.0,0.0,0.0,0.0,0.0,0.0,0.0,0.0,0.0,0.0,0.0,0.0,0.0,0.0,0.0,0.0,0.0,0.0,0.0,0.0,0.0,0.0,0.0,0.0,0.0,1.4489,1.4482,0.0,1.3922,1.3851,1.3766,1.3578,1.3837,1.4097,1.4216,1.4524,1.4692,1.4692,1.4692,1.4692,1.4692,1.4391,1.4265,1.4349,1.409,1.4097,1.4265,1.4265,1.4307,1.4307,1.4398,1.4391,1.4307,1.4188,1.3499,1.2547,1.2467,1.2462,1.2462,1.2541,1.2547,1.2583,1.2674,1.2717,1.2717,1.2717,1.2632,1.2493,1.2206,1.1839,1.1457,1.1249,1.0857,1.0577,1.0616,1.0545,1.0445,1.0362,1.034,1.0318,1.0267,1.0244,1.0272,1.0323,0.9856,0.9647,1.0169,1.0244,1.0244,1.0244,0.9916,0.9695,0.9695,0.9349,0.9084,0.8932,0.8894,0.8856,0.8703,0.8703,0.8703,0.8703,0.8703,0.8585,0.8394,0.8394,0.8089,0.7476,0.7476,0.7207,0.0,0.0,0.0,0.0,0.0,0.0,0.0,0.0,0.0,0.0,0.0,0.0,0.0,0.0,0.0,0.0,0.0,0.0,0.0,0.0,0.0,0.0,0.0,0.0,0.0,1.5587,1.567,1.5587,1.5545,1.5504,1.5496,1.5151,1.495,1.5061,1.4859,1.4783,1.4824,1.4908,1.495,1.495,1.5056,1.5113,1.5113,1.5213,1.5262,1.5262,1.544,1.5432,1.5289,1.5465,1.5491,1.5298,1.5389,1.5389,1.5389,1.5264,1.4566,1.362,1.3535,1.3535,1.362,1.362,1.362,1.362,1.362,1.362,1.362,1.362,1.362,1.3568,1.3213,1.2855,1.2479,1.2165,1.1693,1.1288,1.1288,1.12,1.1111,1.1111,1.1111,1.1111,1.1111,1.1111,1.1186,1.1446,1.085,1.0481,1.0999,1.1111,1.1111,1.1111,1.0663,1.0293,1.0293,0.9609,0.9122,0.9122,0.8856,0.8703,0.8703,0.8703,0.8703,0.8703,0.8703,0.8703,0.8703,0.8703,0.8508,0.8127,0.8089,0.7821,0.7207,0.0,0.0,0.0,0.0,0.0,0.0,0.0,0.0,0.0,0.0,0.0,0.0,0.0,0.0,0.0,0.0,0.0,0.0,0.0,0.0,0.0,0.0,0.0,1.7374,1.7536,1.7617,1.7342,1.7561,1.7683,1.7698,1.6911,1.6435,1.6435,1.5839,1.5396,1.5187,1.5362,1.546,1.546,1.5725,1.5885,1.5885,1.6221,1.6367,1.6367,1.6367,1.6126,1.5627,1.5799,1.5625,1.516,1.5335,1.5411,1.5403,1.5403,1.5396,1.5389,1.5173,1.5215,1.5389,1.5389,1.5389,1.5389,1.5389,1.5389,1.5389,1.5389,1.5389,1.533,1.5002,1.4149,1.3284,1.2941,1.2042,1.1186,1.1186,1.1186,1.1186,1.1186,1.1186,1.1186,1.1186,1.1186,1.1409,1.2194,1.1706,1.1186,1.1186,1.1186,1.1186,1.1186,1.1149,0.0,1.1149,1.0443,0.9922,0.9922,0.9198,0.8737,0.8703,0.8703,0.8703,0.8703,0.8703,0.8703,0.8703,0.8703,0.8703,0.8703,0.8703,0.8394,0.7821,0.0,0.0,0.0,0.0,0.0,0.0,0.0,0.0,0.0,0.0,0.0,0.0,0.0,0.0,0.0,0.0,0.0,0.0,0.0,0.0,0.0,1.9362,1.9274,1.7819,1.7787,1.7868,1.7836,1.7747,1.7706,1.7698,1.7302,1.7066,1.7066,1.7185,1.7247,1.7205,1.69,1.6703,1.6703,1.6104,1.5766,1.5766,1.5844,1.5887,1.5887,1.602,1.6021,1.5898,1.6162,1.6191,1.606,1.6111,1.5987,1.5739,1.5739,1.56,1.5389,1.5347,1.5347,1.5389,1.5389,1.5389,1.5389,1.5389,1.5389,1.5389,1.5389,1.5389,1.533,1.5002,1.4562,1.408,1.3765,1.325,1.2826,1.2826,1.2826,1.2826,1.2826,1.2826,1.2826,1.2826,1.2826,1.29,1.3119,1.2973,1.2826,1.2826,1.2826,1.2826,1.2826,1.2342,1.1966,1.1966,1.126,1.055,0.996,0.969,0.9349,0.8742,0.8703,0.8703,0.8703,0.8703,0.8703,0.8703,0.8703,0.8703,0.8703,0.8703,0.8627,0.0,0.0,0.0,0.0,0.0,0.0,0.0,0.0,0.0,0.0,0.0,0.0,0.0,0.0,0.0,0.0,0.0,0.0,0.0,0.0,0.0,0.0,2.0284,2.0196,1.9067,1.9036,1.9085,1.9085,1.8917,1.8838,1.8908,1.8539,1.8269,1.826,1.8446,1.849,1.8364,1.8188,1.8086,1.8086,1.7663,1.744,1.744,1.7526,1.7595,1.7595,1.7693,1.766,1.7432,1.7697,1.7451,1.6888,1.6969,1.6652,1.6147,1.6522,1.6574,1.6334,0.0,0.0,0.0,0.0,1.5389,1.5389,1.5389,1.5389,1.5389,1.5389,1.5389,1.5352,1.5163,1.4878,1.4633,1.4435,1.4157,1.3901,1.3901,1.3901,1.3901,1.3901,1.3901,1.3865,1.3733,1.3697,1.366,1.3521,1.3492,0.0,1.3492,1.3492,1.3492,1.3492,1.3083,1.2783,1.2783,1.2114,1.1409,1.0962,1.0594,1.0212,0.9755,0.9717,0.0,0.0,0.0,0.9046,0.8703,0.8703,0.0,0.0,0.0,0.8703,0.8703,0.8703,0.0,0.0,0.7668,0.7668,0.0,0.0,0.0,0.0,0.0,0.0,0.0,0.0,0.0,0.0,0.0,0.0,0.0,0.0,0.0,0.0,2.0605,2.0605,2.0605,2.0605,2.0605,2.0605,2.0459,2.0459,2.0644,2.0186,1.9848,1.9861,1.9724,1.9564,1.9307,1.9479,0.0,0.0,0.0,1.9841,1.9841,2.0069,2.0187,2.0187,2.0187,1.9962,1.9489,1.9735,1.9081,1.7822,1.7981,1.758,1.6861,1.7672,1.798,1.7797,1.6251,1.5565,1.5433,1.5396,1.5389,1.5389,1.5389,0.0,0.0,1.5389,1.5389,1.5389,1.5389,1.5163,1.49,1.49,1.4714,1.4511,1.4511,1.4511,1.4511,1.4511,1.4511,1.443,1.4137,1.4078,1.399,1.366,1.3601,1.3601,1.3601,1.3543,1.3492,1.3492,1.3492,1.3492,1.3492,1.2863,1.2415,1.2305,1.1669,0.0,1.1111,1.1111,1.0812,1.0067,0.9954,0.9576,0.8856,0.8742,0.8703,0.8703,0.8703,0.8703,0.8703,0.8703,0.8703,0.8703,0.8703,0.8703,0.0,0.0,0.0,0.0,0.0,0.0,0.0,0.0,0.0,0.0,0.0,0.0,0.0,0.0,0.0,2.0605,2.0605,2.0605,2.0605,2.0605,2.0605,2.0605,2.0849,2.1024,2.1064,2.1291,2.146,2.145,2.1709,2.1854,2.1821,2.1422,2.1236,2.1236,2.0498,2.0129,2.0129,2.0152,2.0187,2.0187,2.0187,0.0,2.003,2.0075,1.9951,1.9659,1.9704,1.9491,1.9178,1.9353,1.9263,1.8897,1.754,1.6519,1.5789,1.5484,1.5389,1.5389,1.5389,1.5389,1.5389,1.5389,1.5389,1.5389,1.5389,1.5163,0.0,1.49,1.4714,1.4511,1.4511,1.4511,1.4511,1.4511,1.4511,1.4489,1.443,1.4416,1.4394,1.4335,1.432,1.432,1.432,1.3843,1.3492,1.3492,1.3492,1.3492,1.3492,1.3346,1.301,1.2378,1.2157,1.1818,1.1149,1.1111,1.1037,1.0887,1.0255,0.9846,0.969,0.9041,0.8703,0.8703,0.8703,0.8703,0.8703,0.8703,0.8703,0.8703,0.8703,0.8703,0.0,0.0,0.0,0.0,0.0,0.0,0.0,0.0,0.0,0.0,0.0,2.0605,2.0605,0.0,2.0605,2.0605,2.0605,2.0605,2.0605,2.0762,2.0898,2.0898,2.1064,2.1278,2.1543,2.1943,2.2197,2.2197,2.2588,2.2779,2.2779,2.2528,2.2413,2.2413,2.1917,2.1641,2.1641,2.1641,2.1641,2.1641,2.1641,2.1641,2.1641,2.1641,2.1373,2.0962,2.0962,2.0578,2.0047,2.0545,2.0651,2.0428,1.9608,1.8282,1.6754,1.6122,1.5804,1.563,1.563,1.5528,1.5389,1.5389,1.5389,1.5389,1.5389,1.5272,1.5148,1.5148,1.5031,1.4948,1.4948,1.4948,1.4948,1.4948,1.4948,1.4904,1.4743,1.4706,1.4655,1.454,1.4511,1.4511,1.4511,1.4232,1.3982,1.3982,1.3843,1.374,1.374,1.3594,1.3346,1.2936,1.29,1.2746,1.2342,1.1929,1.1706,1.1706,1.0962,1.0331,0.9916,0.9501,0.9122,0.8703,0.8703,0.8703,0.8703,0.8703,0.8703,0.8703,0.8703,0.8818,0.0,0.0,0.0,0.0,0.0,0.0,0.0,0.0,2.0605,2.0605,2.0605,2.0605,2.0605,2.0605,2.0605,2.0605,2.0605,2.0635,2.0723,2.1006,2.1259,2.1424,2.1444,2.158,2.1973,2.2383,2.2637,2.2637,2.2906,2.3091,2.3091,2.3091,2.3091,2.3091,2.3091,2.3091,2.3091,2.3091,2.3091,2.3091,2.3091,2.3091,2.3091,2.3091,2.2687,2.1961,2.1961,2.1507,2.0827,2.165,2.1961,2.1933,2.1468,2.0166,1.8395,1.7146,1.6512,1.6245,1.5978,1.5703,1.5469,1.5411,1.5389,1.5389,1.5389,1.5389,1.5389,1.5389,1.5389,1.5389,1.5389,1.5389,1.5389,1.5389,1.5389,1.5316,1.5053,1.4995,1.4922,1.4706,1.4655,1.4655,1.4655,1.4655,1.4651,1.4526,1.4194,1.3982,1.3982,1.3697,1.3492,1.3492,1.3492,1.3492,1.3492,1.29,1.2526,1.2526,1.1781,1.1037,1.0406,1.0067,0.9576,0.8932,0.878,0.8703,0.8703,0.8703,0.8703,0.8703,0.8703,0.8932,2.0605,2.0605,2.0605,2.0605,2.0605,2.0605,0.0,0.0,2.0605,2.0605,2.0605,2.0605,2.0605,2.0605,2.0605,2.0605,2.0605,2.0703,2.1064,2.1161,2.1483,2.2275,2.2363,2.2393,2.2441,2.2822,2.3023,2.3023,2.3062,2.3091,2.3091,2.3091,2.3091,2.3091,2.3091,2.3091,2.3091,2.3091,2.3091,2.3091,2.3091,2.3091,2.3091,2.3091,2.3047,2.296,2.296,2.2872,2.2775,2.2916,2.296,2.2862,2.1959,2.1505,2.0979,1.8532,1.7628,1.7427,1.6303,1.5891,1.5768,1.5484,1.5389,1.5389,1.5389,1.5389,1.5389,1.5389,1.5389,1.5389,1.5389,1.5389,1.5389,1.5389,1.5389,1.5382,1.5345,1.533,1.5323,1.5328,1.5279,1.5279,1.5279,1.5279,1.5131,1.4599,1.4194,1.3982,1.3982,1.3697,1.3492,1.3492,1.3492,1.3492,1.3492,1.3419,1.3382,1.3382,1.2599,1.212,1.204,1.0663,0.9846,0.9765,0.9084,0.8703,0.8703,0.8703,0.8703,0.8703,0.8703,0.8932,2.1165,2.1308,2.1423,0.0,2.1652,2.1308,2.1308,2.0944,2.0605,2.0605,2.0605,2.0605,2.0605,2.0972,2.1308,0.0,2.1502,2.1706,2.1858,2.1936,2.2068,2.2471,2.2734,2.2838,2.2838,2.2994,2.3091,2.3091,2.3091,2.3091,2.3091,2.3091,2.3091,2.3091,2.3091,2.3091,2.3091,2.3091,2.3091,2.3091,2.3091,2.3091,2.3091,2.3091,2.3091,2.3091,2.3091,2.3091,2.3091,2.3091,2.3091,2.3047,2.2687,2.2501,2.2233,2.0014,1.8918,1.8407,1.7372,1.6726,1.6247,1.5592,1.5389,1.5389,1.5389,1.5389,1.5389,1.5389,1.5389,1.5389,1.5389,1.5389,1.5389,1.5389,1.5389,1.5389,1.5389,1.5389,1.5389,1.5389,1.5389,1.5389,1.5389,1.5389,1.5228,1.4816,1.4472,1.4232,1.4042,1.3697,1.3492,1.3492,1.3492,1.3492,1.3492,1.3492,1.3492,1.3492,1.32,1.279,1.2335,1.1632,1.085,0.9916,0.9576,0.916,0.8703,0.8703,0.8703,0.8703,0.8703,0.8932,2.169,2.1945,0.0,2.2585,2.2247,2.1728,2.1499,2.1011,2.0605,2.0605,2.0605,2.0673,2.0905,2.1423,2.1869,2.2096,2.2485,2.2736,2.2596,2.2766,2.2921,2.305,2.3079,2.3222,2.3484,2.3266,2.3091,2.3091,2.3091,2.3091,2.3091,2.3091,2.3091,2.3091,2.3091,2.3091,2.3091,2.3091,2.3091,2.3091,2.3091,2.3091,2.3091,2.3091,2.3091,2.3091,2.3091,2.3091,2.3091,2.3091,2.3091,2.3091,2.3091,2.3091,2.2896,2.138,2.0316,1.9522,1.8508,1.7596,1.671,1.5971,1.5582,1.5389,1.5389,1.5389,1.5389,1.5389,1.5389,1.5389,1.5389,1.5389,1.5389,1.5389,1.5389,1.5389,1.5389,1.5389,1.5389,1.5389,1.5389,1.5389,1.5389,1.5316,1.5148,1.482,1.4538,1.4291,1.4049,1.3697,1.3492,1.3492,1.3492,1.3492,1.3492,1.3492,1.3492,1.3492,1.3492,1.3236,1.2673,1.2415,1.1632,1.0255,0.9992,0.9501,0.8703,0.8703,0.8703,0.8703,0.8765,0.8947,0.0,0.0,2.2771,2.2021,2.1842,2.1614,2.0828,2.0605,2.0605,2.0605,2.0605,2.0828,2.1614,2.1794,2.2059,2.2846,2.3377,2.3511,2.314,2.3484,2.3929,2.4383,2.3637,2.3484,0.0,2.3647,2.3091,2.3091,2.3091,2.3091,2.3091,2.3091,2.3091,2.3091,2.3091,2.3091,2.3091,2.3091,2.3091,2.3091,2.3091,2.3091,2.3091,2.3091,2.3091,2.3091,2.3091,2.3091,2.3091,2.3091,2.3091,2.3091,2.3091,2.3091,2.3052,2.259,2.185,2.0853,1.9505,1.8227,1.7109,1.6768,1.6105,1.5389,1.5389,1.5389,1.5389,1.5389,1.5389,1.5389,1.5389,1.5389,1.5389,1.5389,1.5389,1.5389,1.5389,1.5389,1.5389,1.5389,1.5389,1.5389,1.5389,1.5126,1.4805,1.4531,1.4247,1.3996,1.3982,1.3697,1.3492,1.3492,1.3492,1.3492,1.3492,1.3492,1.3492,1.3492,1.3492,1.3492,1.3455,1.2709,1.1892,1.1074,1.0293,0.9501,0.8703,0.8703,0.8703,0.8708,0.8916,0.9015,2.3121,0.0,2.3793,2.4047,2.372,2.3268,2.2973,2.2537,2.2172,2.2172,2.2172,2.2285,2.2547,2.2984,2.3516,2.4149,2.4634,2.5037,2.5265,2.4678,2.4322,2.4478,2.4198,0.0,0.0,0.0,2.3091,2.3091,2.3091,2.3091,2.3091,2.3091,2.3091,2.3091,2.3091,2.3091,2.3091,2.3091,2.3091,2.3091,2.3091,2.3091,2.3091,2.3091,2.3091,2.3091,2.3091,2.3091,2.3091,2.3091,2.3091,2.3091,2.3091,2.3091,2.3042,2.2666,2.2123,2.1427,2.0103,1.917,1.8371,1.7098,1.6501,1.6139,1.559,1.5389,1.5389,1.5389,1.5389,1.5389,1.5389,1.5389,1.5389,1.5389,1.5389,1.5389,1.5389,1.5389,1.5389,1.5389,1.5389,1.5389,1.5389,1.5301,1.5087,1.4585,1.4042,1.366,1.366,1.3565,1.3492,1.3492,1.3492,1.3492,1.3492,1.3492,1.3492,1.3492,1.3492,1.3492,1.3492,1.3236,1.2709,1.1892,1.1236,1.0484,0.9679,0.9281,0.9115,0.9115,0.915,0.9183,2.3902,2.4301,2.4564,2.4814,2.4492,2.4036,2.3756,2.3132,2.266,2.2957,2.2771,2.2734,2.3279,2.3781,2.4353,2.5205,2.5753,2.6136,2.6358,2.5864,2.5463,2.5463,2.5168,2.4744,0.0,0.0,0.0,2.3135,2.3091,2.3091,2.3091,2.3091,2.3091,2.3091,2.3091,2.3091,2.3091,2.3091,2.3091,2.3091,2.3091,2.3091,2.3091,2.3091,2.3091,2.3091,2.3091,2.3091,2.3091,2.3091,2.3091,2.3091,2.3091,2.3091,2.3023,2.25,2.2119,2.1734,2.0709,1.9882,1.9054,1.7634,1.6935,1.6542,1.5665,1.5389,1.5389,1.5389,1.5389,1.5389,1.5389,1.5389,1.5389,1.5389,1.5389,1.5389,1.5389,1.5389,1.5389,1.5389,1.5389,1.5389,1.5389,1.5287,1.5035,1.443,1.3938,1.3623,1.3514,1.3492,1.3492,1.3492,1.3492,1.3492,1.3492,1.3492,1.3492,1.3492,1.3492,1.3492,1.3492,1.3492,1.3176,1.2496,1.1757,1.1074,1.039,0.9661,0.9282,0.9286,0.9362,0.9395,2.4373,2.4707,2.5123,2.4337,2.4156,2.3975,2.3279,2.2547,2.2209,2.2947,2.2499,2.2424,0.0,2.4156,2.4583,2.5936,2.6586,2.6812,2.6551,2.6927,2.7185,0.0,0.0,0.0,0.0,0.0,0.0,2.3222,2.3135,2.3091,2.3091,2.3091,2.3091,2.3091,2.3091,2.3091,2.3091,2.3091,2.3091,2.3091,2.3091,2.3091,2.3091,2.3091,2.3091,2.3091,2.3091,2.3091,2.3091,2.3091,2.3091,2.3091,2.3091,2.3091,2.2994,2.2197,2.1885,2.1816,2.1317,2.0402,1.9213,1.8278,1.7432,1.6583,1.5665,1.5389,1.5389,1.5389,1.5389,1.5389,1.5389,1.5389,1.5389,1.5389,1.5389,1.5389,1.5389,1.5389,1.5389,1.5389,1.5389,1.5389,1.5389,1.5119,1.4696,1.4121,1.4018,1.3887,1.3543,1.3492,1.3492,1.3492,1.3492,1.3492,1.3492,1.3492,1.3492,1.3492,1.3492,1.3492,1.3492,1.3514,1.3327,1.2853,1.1914,1.1229,1.0754,0.9795,0.9356,0.9319,0.9526,0.962,2.4898,2.5158,2.5229,2.5052,2.5004,2.4933,2.4755,2.4564,2.4456,2.4683,2.454,2.4528,2.4933,2.5004,2.5361,2.6525,2.6801,0.0,2.7846,2.751,0.0,2.7185,0.0,2.6588,2.5872,2.5621,0.0,2.4198,2.3484,2.3091,2.3091,2.3091,2.3091,2.3091,2.3091,2.3091,2.3091,2.3091,2.3091,2.3091,2.3091,2.3091,2.3091,2.3091,2.3091,2.3091,2.3091,2.3091,2.3091,2.3091,2.3091,2.3091,2.3091,2.3091,2.2994,2.2197,2.1885,2.1777,2.1006,2.0537,2.001,1.8479,1.7836,1.7391,1.5873,1.5389,1.5389,1.5389,1.5389,1.5389,1.5389,1.5389,1.5389,1.5389,1.5389,1.5389,1.5389,1.5389,1.5389,1.5389,1.5389,1.5389,1.5389,1.5119,1.4849,1.4681,1.4494,1.4181,1.3572,1.3492,1.3492,1.3492,1.3492,1.3492,1.3492,1.3492,1.3492,1.3492,1.3492,1.3492,1.3492,1.3733,1.3819,1.371,1.2573,1.1927,1.1829,1.0473,0.9833,0.9838,0.989,0.9914,2.4636,2.5052,2.5312,2.5312,2.5312,2.5312,2.5312,2.5052,2.4862,2.5241,2.5016,0.0,2.5229,2.5312,2.5661,0.0,0.0,0.0,2.8366,2.8099,2.7765,0.0,2.7765,0.0,2.6505,2.6423,2.5872,2.4616,2.3647,2.3091,2.3091,2.3091,2.3091,2.3091,2.3091,2.3091,2.3091,2.3091,2.3091,2.3091,2.3091,2.3091,2.3091,2.3091,2.3091,2.3091,2.3091,2.3091,2.3091,2.3091,2.3091,2.3091,2.3091,2.3091,2.2994,2.2197,2.1885,2.1758,2.0909,2.0605,2.0362,1.9006,1.8327,1.7755,1.6386,1.5707,1.5465,1.5865,1.5707,1.5506,1.5865,1.5707,1.5389,1.5389,1.5389,1.5389,1.5389,1.5389,1.5389,1.5389,1.5389,1.5389,1.5389,1.5236,1.5068,1.4922,1.4754,1.4494,1.3989,1.3799,1.3653,1.3514,1.3492,1.3492,1.3492,1.3492,1.3492,1.3492,1.3631,1.3711,1.3711,1.4026,1.426,1.4399,1.3366,1.2893,1.3019,1.1807,1.0977,1.0549,1.0549,1.0381,2.4108,2.4671,2.5312,2.5312,2.5312,2.5312,2.5312,2.4743,2.4445,2.5158,0.0,2.448,2.5158,2.5312,2.5636,2.6621,0.0,2.7246,2.827,2.8462,2.851,2.851,2.851,2.8179,2.7429,2.7267,2.6517,2.4787,2.382,2.3222,2.3101,2.3091,2.3091,2.3091,2.3091,2.3091,2.3091,2.3091,2.3091,2.3091,2.3091,2.3091,2.3091,2.3091,2.3091,2.3091,2.3091,2.3091,2.3091,2.3091,2.3091,2.3091,2.3091,2.3091,2.2994,2.2197,2.1885,2.1758,2.0909,2.0605,2.045,1.9578,1.8727,1.7836,1.6944,1.6105,1.5548,1.6304,1.5982,1.559,1.6345,1.5982,1.5389,1.5389,1.5389,1.5389,1.5389,1.5389,1.5389,1.5389,1.5389,1.5389,1.5389,1.5389,1.5287,1.5009,1.4966,1.4849,1.4575,1.4291,1.3938,1.3653,1.3623,1.3623,1.3623,1.3623,1.3623,1.3623,1.3924,1.4086,1.4086,1.4394,1.4662,1.49,1.411,1.3794,1.4097,1.3148,1.2297,1.1494,1.1494,1.1063,2.4108,2.4671,2.5312,2.5312,2.5312,2.5312,2.5312,2.5194,0.0,0.0,2.5194,2.5123,2.5276,2.5312,2.5516,2.6142,0.0,0.0,0.0,0.0,2.851,0.0,0.0,2.8431,2.8299,2.7644,0.0,2.5663,2.4744,2.3897,2.3135,2.3091,2.3091,2.3091,2.3091,2.3091,2.3091,2.3091,2.3091,2.3091,2.3091,2.3091,2.3091,2.3091,2.3091,2.3091,2.3091,2.3091,2.3091,2.3091,2.3091,2.3091,2.3091,2.3091,2.2994,2.2197,2.1885,2.1758,2.0909,2.0605,2.045,1.9578,1.8727,1.7836,1.6944,1.6105,1.5423,1.559,1.5506,1.5423,1.559,1.5506,1.5389,1.5389,1.5389,1.5389,1.5389,1.5389,1.5389,1.5389,1.5389,1.5389,1.5389,1.5389,1.5367,1.5309,1.5301,1.5185,1.4863,1.4582,1.4401,1.4342,1.4335,1.4335,1.4335,1.4335,1.4335,1.4335,1.4394,1.4423,1.4423,1.4692,1.4849,1.49,1.4317,1.4043,1.4097,1.3148,1.2632,1.2467,1.2467,1.2376,2.3415,2.3793,2.4204,2.4564,2.4384,2.4204,2.46,0.0,0.0,0.0,2.5312,2.5312,2.5312,2.5312,0.0,0.0,0.0,0.0,0.0,0.0,0.0,0.0,0.0,0.0,0.0,2.8139,2.7296,2.5902,2.5411,2.4573,2.3178,2.3091,2.3091,2.3091,2.3091,2.3091,2.3091,2.3091,2.3091,2.3091,2.3091,2.3091,2.3091,2.3091,2.3091,2.3091,2.3091,2.3091,2.3091,2.3091,2.3091,2.3091,2.3091,2.3091,2.2994,2.2197,2.1885,2.1758,2.0909,2.0605,2.0527,2.0128,1.9371,1.8527,1.7634,1.6788,1.6064,1.6064,1.5748,1.5506,1.5948,1.5748,1.5389,1.5389,1.5389,1.5389,1.5389,1.5389,1.5389,1.5389,1.5389,1.5389,1.5389,1.5389,1.5389,1.5389,1.5389,1.533,1.517,1.5065,1.4838,1.454,1.4511,1.4511,1.4511,1.4511,1.4511,1.4511,1.4626,1.4714,1.4714,1.4988,1.5155,1.5155,1.492,1.4783,1.4783,1.4307,1.388,1.3451,1.3451,1.3148,2.2585,2.2883,2.3132,2.372,2.3427,2.3132,2.372,2.4,0.0,0.0,2.5194,2.5312,2.5312,0.0,2.5444,0.0,2.6502,0.0,0.0,0.0,0.0,0.0,0.0,0.0,2.851,2.851,0.0,2.6205,2.5746,2.4819,2.3178,2.3091,2.3091,2.3091,2.3091,2.3091,2.3091,2.3091,2.3091,2.3091,2.3091,2.3091,2.3091,2.3091,2.3091,2.3091,2.3091,2.3091,2.3091,2.3091,2.3091,2.3091,2.3091,2.3091,2.2994,2.2197,2.1885,2.1758,2.0909,2.0605,2.0605,2.0605,2.001,1.9183,1.8487,1.7553,1.6698,1.6698,1.6064,1.5548,1.6221,1.5899,1.5389,1.5389,1.5389,1.5389,1.5389,1.5389,1.5389,1.5389,1.5389,1.5389,1.5389,1.5389,1.5389,1.5389,1.5389,1.5389,1.5389,1.5389,1.524,1.4728,1.467,1.467,1.467,1.467,1.467,1.467,1.4911,1.5009,1.5009,1.525,1.5389,1.5389,1.5389,1.5389,1.5389,1.5389,1.5041,1.4398,1.4398,1.3964,2.1869,2.2435,2.3032,2.3058,2.3058,2.3032,2.3106,0.0,0.0,2.4192,2.4791,2.5312,2.5312,2.5312,2.5324,2.5372,0.0,2.691,0.0,0.0,0.0,0.0,0.0,0.0,2.851,2.851,2.8087,2.7133,2.5547,2.4155,2.3135,2.3091,2.3091,2.3091,2.3091,2.3091,2.3091,2.3091,2.3091,2.3091,2.3091,2.3091,2.3091,2.3091,2.3091,2.3091,2.3091,2.3091,2.3091,2.3091,2.3091,2.3091,2.3091,2.3091,2.2994,2.2197,2.1885,2.1758,2.0909,2.0605,2.0605,2.0605,2.001,1.9301,1.9213,1.8037,1.6698,1.6698,1.6064,1.5431,1.5506,1.5472,1.5389,1.5389,1.5389,1.5389,1.5389,1.5389,1.5389,1.5389,1.5389,1.5389,1.5389,1.5389,1.5389,1.5389,1.5389,1.5389,1.5389,1.5389,1.5367,1.5309,1.5301,1.5301,1.5301,1.5301,1.5301,1.5301,1.533,1.5345,1.5345,1.5374,1.5389,1.5389,1.5389,1.5389,1.5389,1.5389,1.5347,1.5257,1.5257,1.5215,2.169,2.169,2.169,2.2172,2.1907,2.169,2.2172,0.0,2.3573,2.4011,2.4743,2.5312,2.5312,2.5312,2.5312,2.5312,0.0,0.0,2.6898,0.0,0.0,0.0,2.851,0.0,0.0,0.0,2.7886,2.6464,2.5704,2.4648,2.3178,2.3091,2.3091,2.3091,2.3091,2.3091,2.3091,2.3091,2.3091,2.3091,2.3091,2.3091,2.3091,2.3091,2.3091,2.3091,2.3091,2.3091,2.3091,2.3091,2.3091,2.3091,2.3091,2.3091,2.3023,2.248,2.21,2.1797,2.1182,2.0791,2.0605,2.0605,2.0372,1.9971,1.946,1.8447,1.7391,1.6862,1.6064,1.5389,1.5389,1.5389,1.5389,1.5389,1.5389,1.5389,1.5389,1.5389,1.5389,1.5389,1.5389,1.5389,1.5389,1.5389,1.5389,1.5389,1.5389,1.5389,1.5389,1.5389,1.5389,1.5389,1.5389,1.5389,1.5389,1.5389,1.5389,1.5389,1.5389,1.5389,1.5389,1.5389,1.5389,1.5389,1.5389,1.5389,1.5389,1.5389,1.5389,1.5389,1.5389,1.5389,2.128,2.1011,2.076,2.1308,2.1011,2.075,0.0,0.0,2.3132,2.3683,2.46,2.5312,2.5312,2.5312,2.5312,2.5312,0.0,2.6898,2.6898,0.0,0.0,0.0,0.0,2.851,2.851,2.851,2.7846,2.6329,2.6205,2.5537,2.3973,2.3647,2.3396,2.3091,2.3091,2.3091,2.3091,2.3091,2.3091,2.3091,2.3091,2.3091,2.3091,2.3091,2.3091,2.3091,2.3091,2.3091,2.3091,2.3091,2.3091,2.3091,2.3091,2.3091,2.3042,2.2666,2.2246,2.1816,2.1346,2.0937,2.0605,2.0605,2.0605,2.0489,1.9854,1.9094,1.8198,1.735,1.627,1.5389,1.5389,1.5389,1.5389,1.5389,1.5389,1.5389,1.5389,1.5389,1.5389,1.5389,1.5389,1.5389,1.5389,1.5389,1.5389,1.5389,1.5389,1.5389,1.5389,1.5389,1.5389,1.5389,1.5389,1.5389,1.5389,1.5389,1.5389,1.5389,1.5389,1.5389,1.5389,1.5389,1.5389,1.5389,1.5389,1.5389,1.5389,1.5389,1.5389,1.5389,1.5389,1.5389,2.0605,2.0605,2.0605,2.0605,2.0605,2.0605,0.0,2.1842,2.2995,2.3032,2.424,2.5312,2.5312,2.5312,2.5312,2.5312,2.6189,0.0,2.6898,0.0,0.0,0.0,0.0,2.851,2.851,2.851,2.8139,2.7267,2.7185,2.6764,2.583,2.4946,2.4069,2.3135,2.3091,2.3091,2.3091,2.3091,2.3091,2.3091,2.3091,2.3091,2.3091,2.3091,2.3091,2.3091,2.3091,2.3091,2.3091,2.3091,2.3091,2.3091,2.3091,2.3091,2.3042,2.2666,2.2246,2.1816,2.1346,2.0937,2.0605,2.0605,2.0605,2.0605,2.0605,1.9971,1.9094,1.8238,1.6755,1.5389,1.5389,1.5389,1.5389,1.5389,1.5389,1.5389,1.5389,1.5389,1.5389,1.5389,1.5389,1.5389,1.5389,1.5389,1.5389,1.5389,1.5389,1.5389,1.5389,1.5389,1.5389,1.5389,1.5389,1.5389,1.5389,1.5389,1.5389,1.5389,1.5389,1.5389,1.5389,1.5389,1.5389,1.5389,1.5389,1.5389,1.5389,1.5389,1.5389,1.5389,1.5389,1.5389,2.0605,2.0605,2.0605,2.0605,2.0605,2.075,2.128,2.2247,2.3132,2.3647,2.4564,2.5312,2.5312,2.5312,2.5312,2.5312,2.6189,0.0,0.0,0.0,0.0,2.851,2.851,2.851,0.0,2.851,2.8139,2.7267,2.7765,2.7418,2.5872,2.5537,2.4988,2.4079,2.343,2.3091,2.3091,2.3091,2.3091,2.3091,2.3091,2.3091,2.3091,2.3091,2.3091,2.3091,2.3091,2.3091,2.3091,2.3091,2.3091,2.3091,2.3091,2.3091,2.3081,2.2945,2.2676,2.2256,2.1826,2.1396,2.0967,2.0703,2.0605,2.0605,2.0605,1.9569,1.8126,1.664,1.5831,1.5389,1.5389,1.5389,1.5389,1.5389,1.5389,1.5389,1.5389,1.5389,1.5389,1.5389,1.5389,1.5389,1.5389,1.5389,1.5389,1.5389,1.5389,1.5389,1.5389,1.5389,1.5389,1.5389,1.5389,1.5389,1.5389,1.5389,1.5389,1.5389,1.5389,1.5389,1.5389,1.5389,1.5389,1.5389,1.5389,1.5389,1.5389,1.5389,1.5389,1.5389,1.5389,1.5506,0.0,2.0605,2.0605,2.0605,2.0605,0.0,2.1614,2.2435,2.3206,2.3938,2.4743,2.5312,2.5312,2.5312,2.5312,2.5312,2.6189,2.6898,0.0,0.0,0.0,2.851,0.0,0.0,2.851,2.851,2.8259,2.7725,2.8179,2.8007,2.6876,2.6505,2.5913,2.5031,2.3777,2.3091,2.3091,2.3091,2.3091,2.3091,2.3091,2.3091,2.3091,2.3091,2.3091,2.3091,2.3091,2.3091,0.0,2.3091,2.3091,2.3091,2.3091,2.3091,2.3091,2.3091,2.2828,2.2451,2.2031,2.1602,2.1122,2.0752,2.0605,2.0527,2.0206,1.9125,1.7755,1.6673,1.5914,1.5389,1.5389,1.5389,1.5389,1.5389,1.5389,1.5389,1.5389,1.5389,1.5389,1.5389,1.5389,1.5389,1.5389,1.5389,1.5389,1.5389,1.5389,1.5389,1.5389,1.5389,1.5389,1.5389,1.5389,1.5389,1.5389,1.5389,1.5389,1.5389,1.5389,1.5389,1.5389,1.5389,1.5389,1.5389,1.5389,1.5389,1.5389,1.5389,1.5455,1.5571,1.5571,1.5782,0.0,2.0605,2.0605,2.0605,2.0605,2.0828,2.169,2.2472,0.0,2.4011,2.4791,2.5312,2.5312,2.5312,2.5324,2.536,2.625,2.691,0.0,2.7861,0.0,0.0,2.851,2.851,2.851,2.851,2.851,2.851,2.851,2.851,2.851,2.7672,2.6764,2.5819,2.4102,2.3178,2.3091,2.3091,2.3091,2.3091,2.3091,2.3091,2.3091,2.3091,2.3091,2.3091,2.3091,2.3091,2.3091,2.3091,2.3091,2.3091,2.3091,2.3091,2.3091,2.3091,2.2847,2.25,2.207,2.165,2.1161,2.0723,2.0605,2.045,1.9657,1.8727,1.7997,1.7917,1.6714,1.5389,1.5389,1.5389,1.5389,1.5389,1.5389,1.5389,1.5389,1.5389,1.5389,1.5389,1.5389,1.5389,1.5389,1.5389,1.5389,1.5389,1.5389,1.5389,1.5389,1.5389,1.5389,1.5389,1.5389,1.5389,1.5389,1.5389,1.5389,1.5389,1.5389,1.5389,1.5389,1.5389,1.5389,1.5389,1.5389,1.5389,1.5389,1.5411,1.5621,1.5913,1.5935,1.6111,2.0605,0.0,2.0605,2.0605,2.0605,2.0972,0.0,2.2883,2.339,0.0,0.0,0.0,2.5312,2.5312,2.5444,2.5841,2.6453,2.7042,2.7438,0.0,0.0,2.851,2.851,2.851,2.851,2.851,2.851,2.851,2.851,2.851,2.851,2.7672,2.6764,2.5819,2.4744,2.382,2.3101,2.3091,2.3091,2.3091,2.3091,2.3091,2.3091,2.3091,2.3091,2.3091,2.3091,2.3091,2.3091,2.3091,2.3091,2.3091,2.3091,2.3091,2.3091,2.3091,2.3033,2.2886,2.251,2.209,2.1602,2.086,2.0605,2.0566,2.0372,1.9204,1.7876,1.718,1.6229,1.5389,1.5389,1.5389,1.5389,1.5389,1.5389,1.5389,1.5389,1.5389,1.5389,1.5389,1.5389,1.5389,1.5389,1.5389,1.5389,1.5389,1.5389,1.5389,1.5389,1.5389,1.5389,1.5389,1.5389,1.5389,1.5389,1.5389,1.5389,1.5389,1.5389,1.5389,1.5389,1.5389,1.5389,1.5389,1.5389,1.5389,1.5389,1.5679,1.5797,1.5921,1.6155,1.6477,2.0605,2.0605,2.0605,2.0605,2.0605,2.1011,2.2611,0.0,0.0,0.0,0.0,0.0,0.0,0.0,0.0,2.6094,2.6916,0.0,0.0,0.0,2.851,2.851,2.851,2.851,2.851,2.851,2.851,2.851,2.851,2.851,2.851,2.8059,2.7377,2.6464,2.5579,2.4445,2.3091,2.3091,2.3091,2.3091,2.3091,2.3091,2.3091,2.3091,2.3091,2.3091,2.3091,2.3091,2.3091,2.3091,2.3091,2.3091,2.3091,2.3091,2.3091,2.3091,2.3091,2.3033,2.2656,2.2109,2.1514,2.1025,2.0732,2.0605,2.0605,1.9648,1.8407,1.7553,1.6394,1.5389,1.5389,1.5389,1.5389,1.5389,1.5389,1.5389,1.5389,1.5389,1.5389,1.5389,1.5389,1.5389,1.5389,1.5389,1.5389,1.5389,1.5389,1.5389,1.5389,1.5389,1.5389,1.5389,1.5389,1.5389,1.5389,1.5389,1.5389,1.5389,1.5389,1.5389,1.5389,1.5389,1.5389,1.5389,1.5389,1.5462,1.5608,1.5833,1.6067,1.6345,1.6558,1.6807,2.0605,2.0605,2.0644,2.0644,2.0722,2.1203,2.2697,0.0,0.0,0.0,0.0,0.0,0.0,0.0,0.0,0.0,0.0,0.0,2.877,2.8657,2.855,2.851,2.851,2.851,2.851,2.851,2.851,2.851,2.851,2.851,2.851,2.851,2.8099,2.7226,2.6287,2.4988,2.3353,2.3178,2.3091,2.3091,2.3091,2.3091,2.3091,2.3091,2.3091,2.3091,2.3091,2.3091,2.3091,2.3091,2.3091,2.3091,2.3091,2.3091,2.3091,2.3091,2.3091,2.3033,2.2656,2.2041,2.1385,2.1317,2.1035,2.0703,2.0703,2.0028,1.9143,1.8407,1.696,1.559,1.5423,1.5389,1.5389,1.5389,1.5389,1.5389,1.5389,1.5389,1.5389,1.5389,1.5389,1.5389,1.5389,1.5389,1.5389,1.5389,1.5389,1.5389,1.5389,1.5389,1.5389,1.5389,1.5389,1.5389,1.5389,1.5389,1.5389,1.5389,1.5389,1.5389,1.5389,1.5389,1.5389,1.5389,1.5433,1.5643,1.5913,1.6016,1.633,1.6903,1.6954,1.7069,2.0605,2.0731,2.0867,2.0867,2.1387,2.2101,2.3027,0.0,0.0,0.0,0.0,0.0,0.0,0.0,2.6504,0.0,0.0,2.8745,0.0,0.0,2.8685,2.851,2.851,2.851,2.851,2.851,2.851,2.851,2.851,2.851,2.851,2.851,2.8099,2.7226,2.6287,2.5326,2.4284,2.3517,2.3091,2.3091,2.3091,2.3091,2.3091,2.3091,2.3091,2.3091,2.3091,2.3091,2.3091,2.3091,2.3091,2.3091,2.3091,2.3091,2.3091,2.3091,2.3091,2.3033,2.2656,2.2422,2.2256,2.1894,2.1494,2.1093,2.1093,2.0265,1.9262,1.9134,1.7836,1.6345,1.559,1.5389,1.5389,1.5389,1.5389,1.5389,1.5389,1.5389,1.5389,1.5389,1.5389,1.5389,1.5389,1.5389,1.5389,1.5389,1.5389,1.5389,1.5389,1.5389,1.5389,1.5389,1.5389,1.5389,1.5389,1.5389,1.5389,1.5389,1.5389,1.5389,1.5389,1.5389,1.5389,1.5389,1.5701,1.587,1.5913,1.6448,1.6807,1.691,1.7128,1.7282,2.0731,2.0896,2.1205,2.1749,2.208,2.2558,2.3779,0.0,0.0,0.0,0.0,0.0,0.0,0.0,2.7446,2.8744,0.0,2.9,2.9106,2.8961,2.8764,2.8657,2.8578,2.851,2.851,2.851,2.851,2.851,2.851,2.851,2.851,2.851,2.8311,2.7926,2.7051,2.6121,2.52,2.4317,2.3604,2.3091,2.3091,2.3091,2.3091,2.3091,2.3091,2.3091,2.3091,2.3091,2.3091,2.3091,2.3091,2.3091,2.3091,2.3091,2.3091,2.3091,2.3091,2.3062,2.2877,2.2705,2.248,2.2285,2.1934,2.1582,2.1582,2.1151,2.0492,1.9483,1.7977,1.6617,1.6221,1.5748,1.5389,1.5389,1.5389,1.5389,1.5389,1.5389,1.544,1.5657,1.5652,1.5745,1.5906,1.5935,1.5935,1.5935,1.5935,1.5935,1.5935,1.5935,1.5935,1.5935,1.5935,1.5935,1.5935,1.5935,1.5796,1.5411,1.5389,1.5389,1.5389,1.5557,1.5652,1.5652,1.6001,1.625,1.6426,1.6756,1.6991,1.7113,1.726,1.7279,2.0867,2.1099,2.153,2.2697,2.2835,2.3095,2.4456,0.0,0.0,0.0,0.0,0.0,0.0,2.7705,0.0,2.9525,2.9404,2.9236,2.938,2.9106,2.8831,2.8803,2.8618,2.851,2.851,2.851,2.851,2.851,2.851,2.851,2.851,2.851,2.851,2.851,2.7644,2.6753,2.5819,2.4956,2.4026,2.3091,2.3091,2.3091,2.3091,2.3091,2.3091,2.3091,2.3091,2.3091,2.3091,2.3091,2.3091,2.3091,2.3091,2.3091,2.3091,2.3091,2.3091,2.3091,2.3091,2.2886,2.2656,2.2656,2.2373,2.2031,2.2031,2.1963,2.1534,1.9894,1.8364,1.7144,1.6737,1.6133,1.565,1.565,1.565,1.565,1.565,1.565,1.5723,1.5972,1.6023,1.6096,1.6375,1.6411,1.6411,1.6411,1.6411,1.6411,1.6411,1.6411,1.6411,1.6411,1.6411,1.6411,1.6411,1.6411,1.6162,1.5679,1.565,1.565,1.565,1.5891,1.6023,1.6023,1.6367,1.6646,1.6903,1.6976,1.7091,1.7279,1.7279,1.7279,2.0906,2.1167,2.1835,2.3353,2.3756,0.0,2.4791,2.5418,0.0,0.0,0.0,0.0,0.0,2.8946,2.9332,2.9406,2.938,2.938,2.9419,2.9197,2.9013,2.8843,2.8618,2.851,2.851,2.851,2.851,2.851,2.851,2.851,2.851,2.851,2.851,2.851,2.7644,2.6753,2.5819,2.4956,2.4026,2.3091,2.3091,2.3091,2.3091,2.3091,2.3091,2.3091,2.3091,2.3091,2.3091,2.3091,2.3091,2.3091,2.3091,2.3091,2.3091,2.3091,2.3091,2.3091,2.3091,2.3081,2.3052,2.3052,2.2769,2.2471,2.2471,2.2197,2.1668,2.0629,1.9637,1.8521,1.6857,1.6389,1.6345,1.6345,1.6345,1.6345,1.6345,1.6345,1.6353,1.6375,1.6382,1.6389,1.6411,1.6411,1.6411,1.6411,1.6411,1.6411,1.6411,1.6411,1.6411,1.6411,1.6411,1.6411,1.6411,1.6411,1.6389,1.6345,1.6345,1.6345,1.6345,1.6367,1.6382,1.6382,1.6697,1.6873,1.6903,1.715,1.7257,1.7279,1.7279,1.7279,2.1215,2.1397,2.1911,2.3573,0.0,0.0,0.0,0.0,0.0,0.0,2.7067,0.0,0.0,0.0,2.965,2.965,2.965,2.965,2.965,2.9443,2.9197,2.9,2.8816,2.8657,2.851,2.851,2.851,2.851,2.851,2.851,2.851,2.851,2.851,2.851,2.7644,2.6753,2.5819,2.4956,2.4026,2.3091,2.3091,2.3091,2.3091,2.3091,2.3091,2.3091,2.3091,2.3091,2.3091,2.3091,2.3091,2.3091,2.3091,2.3091,2.3091,2.3091,2.3091,2.3091,2.3091,2.3091,2.3091,2.3091,2.2984,2.2857,2.2857,2.275,2.2313,2.0703,2.0034,1.9392,1.7647,1.68,1.6411,1.6411,1.6411,1.6411,1.6411,1.6411,1.647,1.6675,1.6719,1.6778,1.693,1.6967,1.6967,1.6967,1.6967,1.6967,1.6967,1.6967,1.6967,1.6967,1.6967,1.6967,1.6967,1.6967,1.6967,1.6967,1.6587,1.6411,1.6411,1.6609,1.6719,1.6719,1.6989,1.715,1.715,1.7267,1.7279,1.7279,1.7279,1.7279,2.1436,2.154,2.2014,0.0,0.0,0.0,0.0,0.0,0.0,0.0,2.7821,0.0,0.0,0.0,0.0,2.9792,2.9792,2.9792,2.9792,2.956,2.9341,2.9197,2.9,2.8843,2.8697,2.8709,2.8709,2.8709,2.8709,2.8657,2.8618,2.8578,2.8578,2.851,2.7644,2.6753,2.5819,2.4956,2.4026,2.3091,2.3091,2.3091,2.3091,2.3091,2.3091,2.3091,2.3091,2.3091,2.3091,2.3091,2.3091,2.3091,2.3091,2.3091,2.3091,2.3091,2.3091,2.3091,2.3091,2.3091,2.3091,2.3091,2.3091,2.3091,2.3091,2.3091,2.2775,2.1141,2.0458,1.985,1.8423,1.7377,1.6674,1.6674,1.6674,1.6674,1.6674,1.6674,1.674,1.696,1.7049,1.7069,1.7296,1.7279,1.7279,1.7279,1.7279,1.7279,1.7279,1.7279,1.7279,1.7279,1.7279,1.7279,1.7279,1.7279,1.7279,1.7279,1.6916,1.6674,1.6674,1.6887,1.7049,1.7049,1.7216,1.7279,1.7279,1.7279,1.7279,1.7279,1.7279,1.7279,2.1502,2.1655,2.2166,0.0,0.0,0.0,0.0,0.0,0.0,0.0,0.0,2.9792,2.9792,2.9792,0.0,2.9792,2.9792,2.9792,2.9792,2.956,2.9419,2.9419,2.9236,2.9091,2.9091,2.9091,2.9091,2.9091,2.9091,2.9013,2.8791,2.8791,2.8724,2.851,2.7644,2.6753,2.5819,2.4956,2.4026,2.3091,2.3091,2.3091,2.3091,2.3091,2.3091,2.3091,2.3091,2.3091,2.3091,2.3091,2.3091,2.3091,2.3091,2.3091,2.3091,2.3091,2.3091,2.3091,2.3091,2.3091,2.3091,2.3091,2.3091,2.3091,2.3091,2.3091,2.2916,2.1961,2.0962,1.996,1.9063,1.8056,1.7279,1.7279,1.7279,1.7279,1.7279,1.7279,1.7279,1.7279,1.7279,1.7279,1.7279,1.7279,1.7279,1.7279,1.7279,1.7279,1.7279,1.7279,1.7279,1.7279,1.7279,1.7279,1.7279,1.7279,1.7279,1.7279,1.7279,1.7279,1.7279,1.7279,1.7279,1.7279,1.7279,1.7279,1.7279,1.7279,1.7279,1.7279,1.7279,1.7279,2.1492,2.1769,0.0,2.3708,0.0,0.0,0.0,0.0,0.0,0.0,2.9277,2.9792,2.9792,2.9792,2.9792,2.9792,2.9792,2.9792,2.9792,2.974,2.9599,2.9419,2.9341,2.9275,2.9091,2.9091,2.9091,2.9091,2.9091,2.9013,2.8791,2.8791,2.8724,2.851,2.7644,2.6753,2.5819,2.4956,2.4026,2.3091,2.3091,2.3091,2.3091,2.3091,2.3091,2.3091,2.3091,2.3091,2.3091,2.3091,2.3091,2.3091,2.3091,2.3091,2.3091,2.3091,2.3091,2.3091,2.3091,2.3091,2.3091,2.3091,2.3091,2.3091,2.3091,2.3091,2.2916,2.1961,2.0962,1.996,1.9063,1.8056,1.7279,1.7279,1.7279,1.7279,1.7279,1.7279,1.7279,1.7279,1.7279,1.7279,1.7279,1.7279,1.7279,1.7279,1.7279,1.7279,1.7279,1.7279,1.7279,1.7279,1.7279,1.7279,1.7279,1.7279,1.7279,1.7279,1.7279,1.7279,1.7279,1.7279,1.7279,1.7279,1.7279,1.7279,1.7279,1.7279,1.7279,1.7279,1.7279,1.7279,2.1606,2.2025,0.0,2.3793,2.4337,2.5111,2.7169,0.0,0.0,0.0,0.0,2.9792,2.9792,2.9792,2.9792,2.9792,2.9792,2.9792,2.9792,2.9792,2.974,2.956,2.956,2.9521,2.9378,2.9378,2.9378,2.9378,2.9378,2.9248,2.8922,2.8922,2.8776,2.851,2.7644,2.6753,2.5819,2.4956,2.4026,2.3091,2.3091,2.3091,2.3091,2.3091,2.3091,2.3091,2.3091,2.3091,2.3091,2.3091,2.3091,2.3091,2.3091,2.3091,2.3091,2.3091,2.3091,2.3091,2.3091,2.3091,2.3091,2.3091,2.3091,2.3091,2.3091,2.3091,2.2916,2.1961,2.0962,1.996,1.9063,1.8056,1.7279,1.7279,1.7279,1.7279,1.7279,1.7279,1.7279,1.7279,1.7279,1.7279,1.7279,1.7279,1.7279,1.7279,1.7279,1.7279,1.7279,1.7279,1.7279,1.7279,1.7279,1.7279,1.7279,1.7279,1.7279,1.7279,1.7279,1.7279,1.7279,1.7279,1.7279,1.7279,1.7279,1.7279,1.7279,1.7279,1.7279,1.7279,1.7279,1.7279,2.1769,0.0,0.0,2.3902,2.4814,0.0,2.7726,2.8574,2.9151,2.9679,0.0,2.9792,2.9792,2.9856,2.9895,2.9895,2.9972,2.9972,2.9895,2.9972,2.9972,2.9895,2.9895,2.9895,2.9895,2.983,2.9792,2.9792,2.9792,2.9585,2.9131,2.9091,2.8934,2.851,2.7725,2.6887,2.5955,2.5084,2.4155,2.3222,2.3135,2.3091,2.3091,2.3091,2.3091,2.3091,2.3091,2.3091,2.3091,2.3091,2.3091,2.3091,2.3091,2.3091,2.3091,2.3091,2.3091,2.3091,2.3091,2.3091,2.3091,2.3091,2.3091,2.3091,2.3091,2.3091,2.2916,2.1961,2.0962,1.996,1.9063,1.8056,1.7279,1.7279,1.7279,1.7279,1.7279,1.7279,1.7279,1.7279,1.7279,1.7279,1.7279,1.7279,1.7279,1.7279,1.7279,1.7279,1.7279,1.7279,1.7279,1.7279,1.7279,1.7279,1.7279,1.7279,1.7279,1.7279,1.7279,1.7279,1.7279,1.7279,1.7279,1.7279,1.7279,1.7279,1.7279,1.7279,1.7279,1.7279,1.7279,1.7279,2.1606,2.1921,0.0,0.0,2.5792,2.7578,2.801,2.8888,2.9641,2.9767,2.9792,2.9792,2.9792,3.0266,3.0645,3.0645,3.1206,3.1392,3.0758,3.1206,3.1355,3.072,3.0645,3.0645,3.0645,3.0139,2.9792,2.9792,2.9792,2.9585,2.9131,2.9091,2.8934,2.851,2.8311,2.7805,2.6928,2.5997,2.5073,2.4198,2.343,2.3091,2.3091,2.3091,2.3091,2.3091,2.3091,2.3091,2.3091,2.3091,2.3091,2.3091,2.3091,2.3091,2.3091,2.3091,2.3091,2.3091,2.3091,2.3091,2.3091,2.3091,2.3091,2.3091,2.3091,2.3091,2.2916,2.1961,2.0962,1.996,1.9063,1.8056,1.7279,1.7279,1.7279,1.7279,1.7279,1.7279,1.7279,1.7279,1.7279,1.7279,1.7279,1.7279,1.7279,1.7279,1.7279,1.7279,1.7279,1.7279,1.7279,1.7279,1.7279,1.7279,1.7279,1.7279,1.7279,1.7279,1.7279,1.7279,1.7279,1.7279,1.7279,1.7279,1.7279,1.7279,1.7279,1.7279,1.7279,1.7279,1.7279,1.7279,2.1568,0.0,0.0,2.4276,0.0,2.7631,2.8024,2.8976,2.9792,2.9792,2.9792,2.9792,2.9792,3.0406,3.0895,3.0895,3.1599,3.1965,3.1526,3.1856,3.1819,3.1007,3.0895,3.0758,3.0419,3.0037,2.9792,2.9792,2.9792,2.9585,2.9131,2.9091,2.8934,2.851,2.851,2.8099,2.7226,2.6287,2.5368,2.4498,2.356,2.3091,2.3091,2.3091,2.3091,2.3091,2.3091,2.3091,2.3091,2.3091,2.3091,2.3091,2.3091,2.3091,2.3091,2.3091,2.3091,2.3091,2.3091,2.3091,2.3091,2.3091,2.3091,2.3091,2.3091,2.3091,2.2818,2.1373,2.0593,1.9869,1.8465,1.7692,1.7279,1.7279,1.7279,1.7279,1.7279,1.7279,1.7279,1.7279,1.7279,1.7279,1.7279,1.7279,1.7279,1.7279,1.7279,1.7279,1.7279,1.7279,1.7279,1.7279,1.7279,1.7279,1.7279,1.7279,1.7279,1.7279,1.7279,1.7279,1.7279,1.7279,1.7279,1.7279,1.7279,1.7279,1.7279,1.7279,1.7279,1.7279,1.7279,1.7279,0.0,0.0,2.3324,2.4587,2.5924,0.0,2.7742,2.89,2.9792,2.9792,2.9792,2.9792,2.9792,3.0406,3.0895,3.0895,3.1659,3.2182,3.1928,3.211,3.1928,3.1007,3.0895,3.0645,3.0037,2.9856,2.9792,2.9792,2.9792,2.9624,2.917,2.917,2.8973,2.8538,2.855,2.8167,2.7429,2.6494,2.5579,2.4701,2.3604,2.3091,2.3091,2.3091,2.3091,2.3091,2.3091,2.3091,2.3091,2.3091,2.3091,2.3091,2.3091,2.3091,2.3091,2.3091,2.3091,2.3091,2.3091,2.3091,2.3091,2.3091,2.3003,2.2872,2.2872,2.2731,2.2227,2.0458,1.996,1.9559,1.7738,1.7279,1.7279,1.7279,1.7279,1.7279,1.7279,1.7279,1.7279,1.7279,1.7279,1.7279,1.7279,1.7279,1.7279,1.7279,1.7279,1.7279,1.7279,1.7279,1.7279,1.7279,1.7279,1.7279,1.7279,1.7279,1.7279,1.7279,1.7279,1.7279,1.7279,1.7279,1.7279,1.7279,1.7279,1.7279,1.7279,1.7279,1.7279,1.7279,1.7279,1.7279,0.0,0.0,0.0,0.0,2.5113,2.6914,0.0,0.0,2.9792,0.0,2.9792,2.9792,2.9792,3.0406,3.0895,3.0895,3.2132,3.2599,3.1254,3.2205,3.2528,3.1068,3.0895,3.0857,3.0758,3.0177,2.9792,2.9792,2.9792,2.9663,2.938,2.9341,2.9184,2.8764,2.8764,2.8605,2.8351,2.747,2.6547,2.561,2.3897,2.3091,2.3091,2.3091,2.3091,2.3091,2.3091,2.3091,2.3091,2.3091,2.3091,2.3091,2.3091,2.3091,2.3091,2.3091,2.3091,2.3091,2.3091,2.3091,2.3091,2.3091,2.2555,2.1882,2.1882,2.1284,2.0367,1.9293,1.8972,1.8742,1.7598,1.7279,1.7279,1.7279,1.7279,1.7279,1.7279,1.7279,1.7279,1.7279,1.7279,1.7279,1.7279,1.7279,1.7279,1.7279,1.7279,1.7279,1.7279,1.7279,1.7279,1.7279,1.7279,1.7279,1.7279,1.7279,1.7279,1.7279,1.7279,1.7279,1.7279,1.7279,1.7279,1.7279,1.7279,1.7279,1.7279,1.7279,1.7279,1.7279,1.7279,1.7279,2.1645,0.0,0.0,0.0,2.4676,2.6399,2.6801,0.0,2.9792,2.9792,2.9792,2.9792,2.9792,3.0406,3.0895,3.0895,3.1842,3.2362,3.1673,3.2146,3.2169,3.1031,3.0895,3.072,3.0305,2.9998,2.9792,2.9792,2.9792,2.9702,2.9419,2.9419,2.9223,2.8791,2.8791,2.8685,2.851,2.7644,2.6464,2.5073,2.3724,2.3091,2.3091,2.3091,2.3091,2.3091,2.3091,2.3091,2.3091,2.3091,2.3091,2.3091,2.3091,2.3091,2.3091,2.3091,2.3091,2.3091,2.3091,2.3091,2.3091,2.3091,2.2828,2.2378,2.1872,2.1373,2.0737,1.9239,1.8788,1.8565,1.7559,1.7279,1.7279,1.7279,1.7279,1.7279,1.7279,1.7279,1.7279,1.7279,1.7279,1.7279,1.7279,1.7279,1.7279,1.7279,1.7279,1.7279,1.7279,1.7279,1.7279,1.7279,1.7279,1.7279,1.7279,1.7279,1.7279,1.7279,1.7279,1.7279,1.7279,1.7279,1.7279,1.7279,1.7279,1.7279,1.7279,1.7279,1.7279,1.7279,1.7279,1.7279,0.0,0.0,0.0,0.0,0.0,2.5674,0.0,0.0,2.9546,2.9753,2.9792,2.9792,2.9792,3.0241,3.062,3.062,3.1267,3.1709,3.1539,3.1686,3.1489,3.0733,3.062,3.0406,2.9856,2.9792,2.9792,2.9792,2.9792,2.9702,2.9509,2.9509,2.9314,2.8949,2.891,2.8764,2.8578,2.7418,2.6174,2.4829,2.3647,2.3091,2.3091,2.3091,2.3091,2.3091,2.3091,2.3091,2.3091,2.3091,2.3091,2.3091,2.3091,2.3091,2.3091,2.3091,2.3091,2.3091,2.3091,2.3091,2.3091,2.3091,2.296,2.2555,2.1606,2.115,2.061,1.888,1.8427,1.8241,1.7512,1.7279,1.7279,1.7279,1.7279,1.7279,1.7279,1.7279,1.7279,1.7279,1.7279,1.7279,1.7279,1.7279,1.7279,1.7279,1.7279,1.7279,1.7279,1.7279,1.7279,1.7279,1.7279,1.7279,1.7279,1.7279,1.7279,1.7279,1.7279,1.7279,1.7279,1.7279,1.7279,1.7279,1.7279,1.7279,1.7279,1.7279,1.7279,1.7279,1.7279,1.7279,0.0,0.0,0.0,0.0,0.0,0.0,0.0,0.0,2.8791,2.9624,2.9792,2.9792,2.9792,2.983,2.9869,2.9869,3.0482,3.0733,2.9998,3.052,3.0696,2.9934,2.9869,2.9818,2.9792,2.9792,2.9792,2.9792,2.9792,2.9792,2.9792,2.9792,2.965,2.938,2.9197,2.9013,2.8803,2.6853,2.5819,2.5694,2.394,2.3091,2.3091,2.3091,2.3091,2.3091,2.3091,2.3091,2.3091,2.3091,2.3091,2.3091,2.3091,2.3091,2.3091,2.3091,2.3091,2.3091,2.3091,2.3091,2.3091,2.3091,2.2511,2.1606,2.0593,1.965,1.8742,1.7692,1.7372,1.7372,1.7326,1.7279,1.7279,1.7279,1.7279,1.7279,1.7279,1.7279,1.7279,1.7279,1.7279,1.7279,1.7279,1.7279,1.7279,1.7279,1.7279,1.7279,1.7279,1.7279,1.7279,1.7279,1.7279,1.7279,1.7279,1.7279,1.7279,1.7279,1.7279,1.7279,1.7279,1.7279,1.7279,1.7279,1.7279,1.7279,1.7279,1.7279,1.7279,1.7279,1.7279,1.7279,0.0,0.0,0.0,0.0,2.2937,2.42,2.4832,2.6135,2.7541,2.8718,2.8961,2.9131,2.9714,2.9792,2.9792,2.9792,3.0037,3.0101,2.983,3.0037,3.0113,2.983,2.9792,2.9792,2.9792,2.9792,2.9792,2.9792,2.9792,2.9792,2.9792,2.9792,2.9702,2.9419,2.9341,2.9145,2.8791,2.7406,2.6423,2.5788,2.4573,2.3691,2.3091,2.3091,2.3091,2.3091,2.3091,2.3091,2.3091,2.3091,2.3091,2.3091,2.3091,2.3091,2.3091,2.3091,2.3091,2.3091,2.3091,2.3091,2.3091,2.3091,2.2862,2.2325,2.0692,1.9968,1.9376,1.7738,1.7279,1.7279,1.7279,1.7279,1.7279,1.7279,1.7279,1.7279,1.7279,1.7279,1.7279,1.7279,1.7279,1.7279,1.7279,1.7279,1.7279,1.7279,1.7279,1.7279,1.7279,1.7279,1.7279,1.7279,1.7279,1.7279,1.7279,1.7279,1.7279,1.7279,1.7279,1.7279,1.7279,1.7279,1.7279,1.7279,1.7279,1.7279,1.7279,1.7279,1.7279,1.7279,1.7279,1.7279,2.1807,0.0,0.0,0.0,0.0,2.3496,2.4121,2.5206,2.6456,2.7956,2.8382,2.8752,2.9624,2.9792,2.9792,2.9792,2.9792,2.9792,2.9792,2.9792,2.9792,2.9792,2.9792,2.9792,2.9792,2.9792,2.9792,2.9792,2.9792,2.9792,2.9792,2.9792,2.9663,2.9314,2.9314,2.9118,2.8685,2.7713,2.6712,2.5788,2.4914,2.3993,2.3091,2.3091,2.3091,2.3091,2.3091,2.3091,2.3091,2.3091,2.3091,2.3091,2.3091,2.3091,2.3091,2.3091,2.3091,2.3091,2.3091,2.3091,2.3091,2.3091,2.3091,2.2775,2.1186,2.0466,1.9869,1.8241,1.7559,1.7279,1.7279,1.7279,1.7279,1.7279,1.7279,1.7279,1.7279,1.7279,1.7279,1.7279,1.7279,1.7279,1.7279,1.7279,1.7279,1.7279,1.7279,1.7279,1.7279,1.7279,1.7279,1.7279,1.7279,1.7279,1.7279,1.7279,1.7279,1.7279,1.7279,1.7279,1.7279,1.7279,1.7279,1.7279,1.7279,1.7279,1.7279,1.7279,1.7279,1.7279,1.7279,1.7279,0.0,0.0,0.0,0.0,0.0,0.0,2.3563,2.4489,2.5612,2.7374,2.8117,2.8688,2.9585,2.9792,2.9792,2.9792,2.9792,2.9792,2.9792,2.9792,2.9792,2.9792,2.9792,2.9792,2.9792,2.9792,2.9792,2.9792,2.9792,2.9792,2.9792,2.9792,2.9585,2.9131,2.9091,2.8895,2.851,2.7684,2.6753,2.5788,2.4946,2.4026,2.3091,2.3091,2.3091,2.3091,2.3091,2.3091,2.3091,2.3091,2.3091,2.3091,2.3091,2.3091,2.3091,2.3091,2.3091,2.3091,2.3091,2.3091,2.3091,2.3091,2.3091,2.2916,2.1971,2.1006,2.0005,1.9063,1.8064,1.7279,1.7279,1.7279,1.7279,1.7279,1.7279,1.7279,1.7279,1.7279,1.7279,1.7279,1.7279,1.7279,1.7279,1.7279,1.7279,1.7279,1.7279,1.7279,1.7279,1.7279,1.7279,1.7279,1.7279,1.7279,1.7279,1.7279,1.7279,1.7279,1.7279,1.7279,1.7279,1.7279,1.7279,1.7279,1.7279,1.7279,1.7279,1.7279,1.7279,1.7279,1.7279,1.7279,2.1769,0.0,0.0,0.0,0.0,0.0,2.2709,2.3071,2.3758,2.5541,2.6519,2.7415,2.8639,2.9365,2.9792,2.9792,2.9792,2.9792,2.9792,2.9792,2.9792,2.9792,2.9792,2.9792,2.9792,2.9792,2.9792,2.9792,2.9792,2.9792,2.9792,2.9792,2.9663,2.9314,2.9157,2.8973,2.8724,2.8327,2.7336,2.5777,2.5579,2.4606,2.3091,2.3091,2.3091,2.3091,2.3091,2.3091,2.3091,2.3091,2.3091,2.3091,2.3091,2.3091,2.3091,2.3091,2.3091,2.3091,2.3091,2.3091,2.3091,2.3091,2.3091,2.2916,2.1971,2.1006,2.0005,1.9063,1.8064,1.7279,1.7279,1.7279,1.7279,1.7279,1.7279,1.7279,1.7279,1.7279,1.7279,1.7279,1.7279,1.7279,1.7279,1.7279,1.7279,1.7279,1.7279,1.7279,1.7279,1.7279,1.7279,1.7279,1.7279,1.7279,1.7279,1.7279,1.7279,1.7279,1.7279,1.7279,1.7279,1.7279,1.7279,1.7279,1.7279,1.7279,1.7279,1.7279,1.7279,1.7279,1.7279,1.7279,0.0,0.0,0.0,0.0,0.0,0.0,2.2149,2.2356,2.2911,2.4331,2.5316,2.6417,2.7948,2.8763,2.9378,2.9753,2.9792,2.9792,2.9792,2.9792,2.9792,2.9792,2.9792,2.9792,2.9792,2.9792,2.9792,2.9792,2.9792,2.9792,2.9792,2.9792,2.9702,2.9419,2.9197,2.9,2.8791,2.8618,2.7592,2.5777,2.5777,2.4861,2.3091,2.3091,2.3091,2.3091,2.3091,2.3091,2.3091,2.3091,2.3091,2.3091,2.3091,2.3091,2.3091,2.3091,2.3091,2.3091,2.3091,2.3091,2.3091,2.3091,2.3091,2.3003,2.2467,2.1596,2.0602,1.965,1.838,1.7279,1.7279,1.7279,1.7279,1.7279,1.7279,1.7279,1.7279,1.7279,1.7279,1.7279,1.7279,1.7279,1.7279,1.7279,1.7279,1.7279,1.7279,1.7279,1.7279,1.7279,1.7279,1.7279,1.7279,1.7279,1.7279,1.7279,1.7279,1.7279,1.7279,1.7279,1.7279,1.7279,1.7279,1.7279,1.7279,1.7279,1.7279,1.7279,1.7512,1.7924,1.7924,1.7924,0.0,0.0,0.0,0.0,2.1807,0.0,2.1807,2.2128,2.2652,2.3486,2.4395,2.5529,2.7123,2.784,2.8452,2.9231,2.9422,2.9523,2.9792,2.9792,2.9792,2.9792,2.9792,2.9792,2.9792,2.9792,2.9792,2.9792,2.9792,2.9792,2.9792,2.9792,2.9702,2.9419,2.9236,2.904,2.8791,2.8618,2.762,2.5777,2.5777,2.4861,2.3091,2.3091,2.3091,2.3091,2.3091,2.3091,2.3091,2.3091,2.3091,2.3091,2.3091,2.3091,2.3091,2.3091,2.3091,2.3091,2.3091,2.3091,2.3091,2.3091,2.3091,2.3091,2.3091,2.2457,2.1472,2.0376,1.8742,1.7279,1.7279,1.7279,1.7279,1.7279,1.7279,1.7279,1.7279,1.7279,1.7279,1.7279,1.7279,1.7279,1.7279,1.7279,1.7279,1.7279,1.7279,1.7279,1.7279,1.7279,1.7279,1.7279,1.7279,1.7279,1.7279,1.7279,1.7279,1.7279,1.7279,1.7279,1.7279,1.7279,1.7279,1.7279,1.7279,1.7279,1.7279,1.7419,1.7924,1.8788,1.8926,1.8972,0.0,0.0,2.1807,2.1807,2.1807,0.0,2.1807,2.188,2.2084,2.2642,2.3455,2.4305,2.5004,2.5787,2.6372,2.6538,2.689,2.7746,2.9561,2.9792,2.9792,2.9792,2.9792,2.9792,2.9792,2.9792,2.9792,2.9792,2.9792,2.9792,2.9792,2.9792,2.9702,2.9419,2.9341,2.9184,2.8791,2.8764,2.777,2.5777,2.5777,2.4861,2.3091,2.3091,2.3091,2.3091,2.3091,2.3091,2.3091,2.3091,2.3091,2.3091,2.3091,2.3091,2.3091,2.3091,2.3091,2.3091,2.3091,2.3091,2.3091,2.3091,2.3091,2.3091,2.3091,2.2457,2.1329,1.9559,1.8241,1.7279,1.7279,1.7279,1.7279,1.7279,1.7279,1.7279,1.7279,1.7279,1.7279,1.7279,1.7279,1.7279,1.7279,1.7279,1.7279,1.7279,1.7279,1.7279,1.7279,1.7279,1.7279,1.7279,1.7279,1.7279,1.7279,1.7279,1.7279,1.7279,1.7279,1.7279,1.7279,1.7279,1.7279,1.7279,1.7279,1.7279,1.7279,1.8102,1.8611,1.8834,1.9559,1.9923,2.1678,2.1731,2.1807,2.1807,2.1807,0.0,0.0,2.1807,2.1869,2.2108,2.2664,2.3341,2.4034,2.4692,2.5299,2.5724,2.62,2.6811,2.7681,2.8177,2.8462,2.8462,2.8882,2.917,2.917,2.9546,2.9792,2.9792,2.9792,2.9792,2.9792,2.9792,2.974,2.9599,2.947,2.9263,2.8961,2.8422,2.7342,2.5777,2.5368,2.4445,2.3091,2.3091,2.3091,2.3091,2.3091,2.3091,2.3091,2.3091,2.3091,2.3091,2.3091,2.3091,2.3091,2.3091,2.3091,2.3091,2.3091,2.3091,2.3091,2.3091,2.3091,2.3091,2.3091,2.2457,2.1373,1.9923,1.8788,1.7917,1.7419,1.7279,1.7279,1.7279,1.7279,1.7279,1.7279,1.7279,1.7279,1.7279,1.7279,1.7279,1.7279,1.7279,1.7279,1.7279,1.7279,1.7279,1.7279,1.7279,1.7279,1.7279,1.7279,1.7279,1.7279,1.7279,1.7279,1.7279,1.7279,1.7279,1.7279,1.7279,1.7279,1.7279,1.7279,1.7552,1.8056,1.901,1.9513,1.9513,2.0512,2.0962,2.1989,2.1904,2.1921,2.1828,2.1807,2.1807,0.0,0.0,0.0,2.1807,2.2097,2.2579,2.328,2.3709,2.4204,2.4939,2.5435,2.5588,2.522,2.5853,2.6493,2.6909,2.7711,2.8291,2.8502,2.9287,2.9792,2.9792,2.9792,2.9792,2.9792,2.9792,2.9792,2.9792,2.956,2.9314,2.9091,2.8211,2.7098,2.5788,2.5073,2.4155,2.3091,2.3091,2.3091,2.3091,2.3091,2.3091,2.3091,2.3091,2.3091,2.3091,2.3091,2.3091,2.3091,2.3091,2.3091,2.3091,2.3091,2.3091,2.3091,2.3091,2.3091,2.3091,2.3091,2.2457,2.1516,2.0737,1.965,1.8611,1.7785,1.7466,1.7279,1.7279,1.7279,1.7279,1.7279,1.7279,1.7279,1.7279,1.7279,1.7279,1.7279,1.7279,1.7279,1.7279,1.7279,1.7279,1.7279,1.7279,1.7279,1.7279,1.7279,1.7279,1.7279,1.7279,1.7279,1.7279,1.7279,1.7279,1.7279,1.7279,1.7372,1.7606,1.7606,1.8056,1.9055,2.0005,2.0512,2.0503,2.1507,2.1971,2.2306,2.2261,2.2325,2.1901,2.1807,2.1807,2.1807,0.0,2.1807,2.1807,0.0,2.1918,2.1994,0.0,0.0,2.2258,2.2646,2.294,2.2888,2.3328,2.4358,2.6331,2.6967,2.7597,2.8422,2.9287,2.9792,2.9792,2.9792,2.9792,2.9792,2.9792,2.9792,2.9792,2.956,2.9314,2.9091,2.8791,2.7678,2.5777,2.5704,2.4776,2.3091,2.3091,2.3091,2.3091,2.3091,2.3091,2.3091,2.3091,2.3091,2.3091,2.3091,2.3091,2.3091,2.3091,2.3091,2.3091,2.3091,2.3091,2.3091,2.3091,2.3091,2.3091,2.3091,2.2457,2.1695,2.1552,2.0195,1.8788,1.8657,1.7971,1.7279,1.7279,1.7279,1.7279,1.7279,1.7279,1.7279,1.7279,1.7279,1.7279,1.7279,1.7279,1.7279,1.7279,1.7279,1.7279,1.7279,1.7279,1.7279,1.7279,1.7279,1.7279,1.7279,1.7279,1.7279,1.7279,1.7279,1.7279,1.7279,1.7279,1.7738,1.8611,1.8611,1.9109,2.0051,2.1051,2.1516,2.1561,2.2511,2.296,2.2948,2.2854,2.2853,2.2656,2.2408,2.2211,2.2211,2.2004,2.1807,2.1807,0.0,0.0,0.0,0.0,0.0,0.0,2.219,2.2397,2.2128,2.2729,2.3529,2.4465,2.5161,2.6035,2.7221,2.8373,2.904,2.904,2.9495,2.9792,2.9792,2.9792,2.974,2.956,2.947,2.9263,2.8922,2.8343,2.7557,2.6588,2.5537,2.4659,2.3897,2.3353,2.3091,2.3091,2.3091,2.3091,2.3091,2.3091,2.3091,2.3091,2.3091,2.3091,2.3091,2.3091,2.3091,2.3091,2.3091,2.3091,2.3091,2.3091,2.3091,2.3091,2.3091,2.2828,2.2413,2.1828,2.1105,2.024,1.9109,1.8473,1.801,1.7419,1.7279,1.7279,1.7279,1.7279,1.7279,1.7279,1.7279,1.7279,1.7279,1.7279,1.7279,1.7279,1.7279,1.7279,1.7279,1.7279,1.7279,1.7279,1.7279,1.7279,1.7279,1.7279,1.7279,1.7279,1.7831,1.8149,1.8149,1.8688,1.8918,1.8788,1.9467,2.0322,2.1266,2.181,2.2403,2.2896,2.3047,2.3091,2.3923,2.3766,2.3654,2.3296,2.2936,2.2687,2.2687,2.2325,2.1994,2.1994,2.189,0.0,0.0,0.0,2.1807,0.0,0.0,2.219,2.1859,2.2387,2.2853,2.2907,2.383,2.4807,2.5769,2.7135,2.8048,2.8285,2.8993,2.9546,2.9792,2.9792,2.9702,2.9419,2.9341,2.9157,2.8791,2.8103,2.7568,2.7185,2.5631,2.4744,2.4456,2.3517,2.3091,2.3091,2.3091,2.3091,2.3091,2.3091,2.3091,2.3091,2.3091,2.3091,2.3091,2.3091,2.3091,2.3091,2.3091,2.3091,2.3091,2.3091,2.3091,2.3091,2.3091,2.3091,2.296,2.228,2.1917,2.1373,1.9968,1.9376,1.8926,1.7971,1.7692,1.7645,1.7372,1.7279,1.7279,1.7279,1.7279,1.7279,1.7279,1.7279,1.7279,1.7279,1.7279,1.7279,1.7279,1.7279,1.7279,1.7279,1.7279,1.7419,1.7692,1.7692,1.7831,1.8102,1.8788,1.9193,1.9193,1.9824,2.0014,1.9604,2.0466,2.1409,2.2403,2.2624,2.3081,2.3797,2.345,2.3266,2.5473,2.515,2.4838,2.3531,2.3174,2.3163,2.3163,2.2801,2.247,2.247,2.2118,2.1807,2.1807,2.1807,0.0,0.0,0.0,0.0,0.0,2.1828,2.1937,2.2195,2.339,2.4252,2.4263,2.5656,2.6901,2.7758,2.8292,2.8922,2.9753,2.9792,2.9702,2.9419,2.9197,2.9013,2.8791,2.8578,2.8059,2.7185,2.6205,2.5326,2.4456,2.3517,2.3091,2.3091,2.3091,2.3091,2.3091,2.3091,2.3091,2.3091,2.3091,2.3091,2.3091,2.3091,2.3091,2.3091,2.3091,2.3091,2.3091,2.3091,2.3091,2.3091,2.3091,2.3091,2.3091,2.3047,2.2413,2.1695,2.1606,2.0872,1.9914,1.8972,1.8742,1.8473,1.7512,1.7279,1.7279,1.7279,1.7279,1.7279,1.7279,1.7279,1.7279,1.7279,1.7279,1.7279,1.7279,1.7279,1.7279,1.7279,1.7279,1.7692,1.865,1.8742,1.9155,2.0051,2.0141,2.0141,2.0141,2.0187,2.0638,2.1606,2.165,2.2236,2.345,2.346,2.358,2.3797,2.3797,2.3797,2.6567,2.6452,2.6203,2.5187,2.4723,2.4375,2.3804,2.3287,2.2956,2.2956,2.2584,2.2263,2.2263,2.2014,0.0,0.0,0.0,0.0,0.0,2.1282,2.1304,2.1494,2.2203,2.2747,2.2866,2.4421,2.5605,2.6035,2.7596,2.8621,2.8922,2.9314,2.9431,2.9197,2.9,2.8803,2.8618,2.855,2.8339,2.8059,2.6535,2.5663,2.5326,2.381,2.3091,2.3091,2.3091,2.3091,2.3091,2.3091,2.3091,2.3091,2.3091,2.3091,2.3091,2.3091,2.3091,2.3091,2.3091,2.3091,2.3091,2.3091,2.3091,2.3091,2.3091,2.3091,2.3091,2.3091,2.2862,2.2467,2.1872,2.1472,2.0917,1.9968,1.9741,1.9467,1.8519,1.8288,1.8288,1.8288,1.8288,1.8473,1.9101,1.9231,1.878,1.7512,1.7279,1.7559,1.8195,1.8288,1.8511,1.9147,1.9231,1.9376,1.9695,1.9741,2.015,2.115,2.1195,2.1195,2.1195,2.1784,2.2006,2.1695,2.2467,2.3091,2.3503,2.3624,2.3711,2.3797,2.398,2.398,2.7678,2.7597,2.7395,2.6483,2.6084,2.5669,2.4784,2.4228,2.3819,2.3514,2.306,2.2739,2.2739,2.2366,0.0,0.0,0.0,0.0,0.0,2.1022,2.0945,2.1099,2.1428,2.1716,2.1834,2.3114,2.4213,2.4898,2.6639,2.7862,2.8331,2.9015,2.9314,2.9091,2.8882,2.8764,2.8697,2.8657,2.8618,2.8578,2.6864,2.5944,2.5735,2.4026,2.3188,2.3091,2.3091,2.3091,2.3091,2.3091,2.3091,2.3091,2.3091,2.3091,2.3091,2.3091,2.3091,2.3091,2.3091,2.3091,2.3091,2.3091,2.3091,2.3091,2.3091,2.3091,2.3047,2.2687,2.2828,2.2872,2.1917,2.1971,2.1961,2.0962,2.0737,2.0466,1.9513,1.9285,1.9285,1.9285,1.9285,1.9467,2.0096,2.0187,1.9778,1.8511,1.8326,1.8557,1.9193,1.9285,1.9513,2.0141,2.0187,2.0322,2.0692,2.1051,2.1507,2.2148,2.2192,2.2192,2.2192,2.2775,2.2828,2.2192,2.3047,2.3547,2.3634,2.3754,2.3884,2.4057,2.4153,2.4153]}]]